<?xml version="1.0" encoding="UTF-8" standalone="no" ?>
<gpx xmlns="http://www.topografix.com/GPX/1/1" xmlns:xsi="http://www.w3.org/2001/XMLSchema-instance" xsi:schemaLocation="http://www.topografix.com/GPX/1/1 http://www.topografix.com/GPX/1/1/gpx.xsd" version="1.1" creator="VisuGPX - https://www.visugpx.com">
  <metadata>
    <name>Couloir Nerot</name>
    <desc><![CDATA[Jusqu\'au goulet du couloir Nerot, massif du Chambeyron]]></desc>
  </metadata>
  <trk>
    <name><![CDATA[2015-03-27 14:11:10]]></name>
    <trkseg>
      <trkpt lat="44.59358" lon="6.84799">
        <ele>1905.47</ele>
        <time>2015-03-27T07:34:19Z</time>
      </trkpt>
      <trkpt lat="44.5936" lon="6.848">
        <ele>1905.47</ele>
        <time>2015-03-27T07:34:21Z</time>
      </trkpt>
      <trkpt lat="44.59354" lon="6.84796">
        <ele>1908.83</ele>
        <time>2015-03-27T07:34:27Z</time>
      </trkpt>
      <trkpt lat="44.5936" lon="6.84799">
        <ele>1912.2</ele>
        <time>2015-03-27T07:34:32Z</time>
      </trkpt>
      <trkpt lat="44.59358" lon="6.84797">
        <ele>1915.56</ele>
        <time>2015-03-27T07:34:37Z</time>
      </trkpt>
      <trkpt lat="44.59358" lon="6.84798">
        <ele>1918.45</ele>
        <time>2015-03-27T07:34:44Z</time>
      </trkpt>
      <trkpt lat="44.59359" lon="6.84799">
        <ele>1921.33</ele>
        <time>2015-03-27T07:34:51Z</time>
      </trkpt>
      <trkpt lat="44.59358" lon="6.84801">
        <ele>1924.7</ele>
        <time>2015-03-27T07:35:00Z</time>
      </trkpt>
      <trkpt lat="44.59361" lon="6.84803">
        <ele>1925.66</ele>
        <time>2015-03-27T07:35:24Z</time>
      </trkpt>
      <trkpt lat="44.59362" lon="6.84803">
        <ele>1924.7</ele>
        <time>2015-03-27T07:35:46Z</time>
      </trkpt>
      <trkpt lat="44.59362" lon="6.84801">
        <ele>1925.66</ele>
        <time>2015-03-27T07:35:53Z</time>
      </trkpt>
      <trkpt lat="44.59358" lon="6.848">
        <ele>1926.14</ele>
        <time>2015-03-27T07:36:07Z</time>
      </trkpt>
      <trkpt lat="44.59359" lon="6.84802">
        <ele>1926.14</ele>
        <time>2015-03-27T07:36:14Z</time>
      </trkpt>
      <trkpt lat="44.5936" lon="6.848">
        <ele>1924.7</ele>
        <time>2015-03-27T07:36:23Z</time>
      </trkpt>
      <trkpt lat="44.59359" lon="6.848">
        <ele>1926.14</ele>
        <time>2015-03-27T07:36:34Z</time>
      </trkpt>
      <trkpt lat="44.59359" lon="6.84798">
        <ele>1926.62</ele>
        <time>2015-03-27T07:36:47Z</time>
      </trkpt>
      <trkpt lat="44.59361" lon="6.84799">
        <ele>1926.62</ele>
        <time>2015-03-27T07:37:06Z</time>
      </trkpt>
      <trkpt lat="44.59359" lon="6.84798">
        <ele>1926.62</ele>
        <time>2015-03-27T07:37:26Z</time>
      </trkpt>
      <trkpt lat="44.5936" lon="6.84802">
        <ele>1925.18</ele>
        <time>2015-03-27T07:37:32Z</time>
      </trkpt>
      <trkpt lat="44.59359" lon="6.84801">
        <ele>1925.18</ele>
        <time>2015-03-27T07:37:41Z</time>
      </trkpt>
      <trkpt lat="44.59359" lon="6.84802">
        <ele>1924.22</ele>
        <time>2015-03-27T07:38:23Z</time>
      </trkpt>
      <trkpt lat="44.59359" lon="6.848">
        <ele>1924.22</ele>
        <time>2015-03-27T07:38:45Z</time>
      </trkpt>
      <trkpt lat="44.59357" lon="6.84799">
        <ele>1924.7</ele>
        <time>2015-03-27T07:39:00Z</time>
      </trkpt>
      <trkpt lat="44.59356" lon="6.84799">
        <ele>1925.66</ele>
        <time>2015-03-27T07:39:02Z</time>
      </trkpt>
      <trkpt lat="44.59351" lon="6.84794">
        <ele>1924.7</ele>
        <time>2015-03-27T07:39:27Z</time>
      </trkpt>
      <trkpt lat="44.59349" lon="6.84798">
        <ele>1923.25</ele>
        <time>2015-03-27T07:39:39Z</time>
      </trkpt>
      <trkpt lat="44.59349" lon="6.84799">
        <ele>1922.77</ele>
        <time>2015-03-27T07:39:40Z</time>
      </trkpt>
      <trkpt lat="44.59354" lon="6.84827">
        <ele>1921.81</ele>
        <time>2015-03-27T07:39:57Z</time>
      </trkpt>
      <trkpt lat="44.59354" lon="6.84831">
        <ele>1921.81</ele>
        <time>2015-03-27T07:39:59Z</time>
      </trkpt>
      <trkpt lat="44.59362" lon="6.84851">
        <ele>1917.97</ele>
        <time>2015-03-27T07:40:13Z</time>
      </trkpt>
      <trkpt lat="44.59362" lon="6.84853">
        <ele>1917.97</ele>
        <time>2015-03-27T07:40:14Z</time>
      </trkpt>
      <trkpt lat="44.59361" lon="6.84858">
        <ele>1916.04</ele>
        <time>2015-03-27T07:40:17Z</time>
      </trkpt>
      <trkpt lat="44.59361" lon="6.84859">
        <ele>1916.04</ele>
        <time>2015-03-27T07:40:18Z</time>
      </trkpt>
      <trkpt lat="44.59363" lon="6.84866">
        <ele>1916.04</ele>
        <time>2015-03-27T07:40:22Z</time>
      </trkpt>
      <trkpt lat="44.59372" lon="6.84895">
        <ele>1913.64</ele>
        <time>2015-03-27T07:40:40Z</time>
      </trkpt>
      <trkpt lat="44.59378" lon="6.84914">
        <ele>1913.16</ele>
        <time>2015-03-27T07:40:52Z</time>
      </trkpt>
      <trkpt lat="44.59387" lon="6.84947">
        <ele>1912.2</ele>
        <time>2015-03-27T07:41:12Z</time>
      </trkpt>
      <trkpt lat="44.59394" lon="6.84974">
        <ele>1911.24</ele>
        <time>2015-03-27T07:41:29Z</time>
      </trkpt>
      <trkpt lat="44.59401" lon="6.85005">
        <ele>1910.28</ele>
        <time>2015-03-27T07:41:46Z</time>
      </trkpt>
      <trkpt lat="44.59406" lon="6.85034">
        <ele>1911.72</ele>
        <time>2015-03-27T07:42:03Z</time>
      </trkpt>
      <trkpt lat="44.59411" lon="6.85068">
        <ele>1911.72</ele>
        <time>2015-03-27T07:42:22Z</time>
      </trkpt>
      <trkpt lat="44.59415" lon="6.85103">
        <ele>1912.2</ele>
        <time>2015-03-27T07:42:42Z</time>
      </trkpt>
      <trkpt lat="44.59421" lon="6.85128">
        <ele>1912.68</ele>
        <time>2015-03-27T07:42:58Z</time>
      </trkpt>
      <trkpt lat="44.59433" lon="6.85148">
        <ele>1913.16</ele>
        <time>2015-03-27T07:43:14Z</time>
      </trkpt>
      <trkpt lat="44.59434" lon="6.85151">
        <ele>1913.16</ele>
        <time>2015-03-27T07:43:16Z</time>
      </trkpt>
      <trkpt lat="44.59432" lon="6.85164">
        <ele>1913.64</ele>
        <time>2015-03-27T07:43:26Z</time>
      </trkpt>
      <trkpt lat="44.59429" lon="6.8518">
        <ele>1913.64</ele>
        <time>2015-03-27T07:43:41Z</time>
      </trkpt>
      <trkpt lat="44.5943" lon="6.85187">
        <ele>1913.64</ele>
        <time>2015-03-27T07:43:55Z</time>
      </trkpt>
      <trkpt lat="44.59428" lon="6.85188">
        <ele>1913.64</ele>
        <time>2015-03-27T07:44:16Z</time>
      </trkpt>
      <trkpt lat="44.5943" lon="6.8519">
        <ele>1913.64</ele>
        <time>2015-03-27T07:44:37Z</time>
      </trkpt>
      <trkpt lat="44.5943" lon="6.85183">
        <ele>1913.16</ele>
        <time>2015-03-27T07:44:55Z</time>
      </trkpt>
      <trkpt lat="44.59429" lon="6.85185">
        <ele>1913.16</ele>
        <time>2015-03-27T07:45:20Z</time>
      </trkpt>
      <trkpt lat="44.59427" lon="6.85184">
        <ele>1913.64</ele>
        <time>2015-03-27T07:45:44Z</time>
      </trkpt>
      <trkpt lat="44.59431" lon="6.85186">
        <ele>1913.64</ele>
        <time>2015-03-27T07:46:08Z</time>
      </trkpt>
      <trkpt lat="44.59431" lon="6.85183">
        <ele>1913.64</ele>
        <time>2015-03-27T07:46:38Z</time>
      </trkpt>
      <trkpt lat="44.59429" lon="6.85183">
        <ele>1913.64</ele>
        <time>2015-03-27T07:46:58Z</time>
      </trkpt>
      <trkpt lat="44.59431" lon="6.85182">
        <ele>1913.64</ele>
        <time>2015-03-27T07:47:15Z</time>
      </trkpt>
      <trkpt lat="44.59429" lon="6.85183">
        <ele>1913.64</ele>
        <time>2015-03-27T07:47:31Z</time>
      </trkpt>
      <trkpt lat="44.59431" lon="6.85184">
        <ele>1913.64</ele>
        <time>2015-03-27T07:47:48Z</time>
      </trkpt>
      <trkpt lat="44.5943" lon="6.85185">
        <ele>1913.64</ele>
        <time>2015-03-27T07:48:00Z</time>
      </trkpt>
      <trkpt lat="44.59431" lon="6.85186">
        <ele>1912.2</ele>
        <time>2015-03-27T07:48:03Z</time>
      </trkpt>
      <trkpt lat="44.59429" lon="6.85187">
        <ele>1913.16</ele>
        <time>2015-03-27T07:48:05Z</time>
      </trkpt>
      <trkpt lat="44.59425" lon="6.85197">
        <ele>1913.64</ele>
        <time>2015-03-27T07:48:19Z</time>
      </trkpt>
      <trkpt lat="44.59424" lon="6.85201">
        <ele>1912.2</ele>
        <time>2015-03-27T07:48:35Z</time>
      </trkpt>
      <trkpt lat="44.59421" lon="6.85206">
        <ele>1912.2</ele>
        <time>2015-03-27T07:48:52Z</time>
      </trkpt>
      <trkpt lat="44.5942" lon="6.85209">
        <ele>1912.2</ele>
        <time>2015-03-27T07:49:12Z</time>
      </trkpt>
      <trkpt lat="44.59422" lon="6.85208">
        <ele>1911.72</ele>
        <time>2015-03-27T07:49:38Z</time>
      </trkpt>
      <trkpt lat="44.59421" lon="6.85212">
        <ele>1911.72</ele>
        <time>2015-03-27T07:49:58Z</time>
      </trkpt>
      <trkpt lat="44.59419" lon="6.85217">
        <ele>1911.72</ele>
        <time>2015-03-27T07:50:18Z</time>
      </trkpt>
      <trkpt lat="44.59416" lon="6.85224">
        <ele>1911.72</ele>
        <time>2015-03-27T07:50:37Z</time>
      </trkpt>
      <trkpt lat="44.59415" lon="6.85226">
        <ele>1913.16</ele>
        <time>2015-03-27T07:50:40Z</time>
      </trkpt>
      <trkpt lat="44.59412" lon="6.85233">
        <ele>1913.16</ele>
        <time>2015-03-27T07:50:58Z</time>
      </trkpt>
      <trkpt lat="44.59411" lon="6.85242">
        <ele>1913.64</ele>
        <time>2015-03-27T07:51:10Z</time>
      </trkpt>
      <trkpt lat="44.5941" lon="6.85258">
        <ele>1915.08</ele>
        <time>2015-03-27T07:51:25Z</time>
      </trkpt>
      <trkpt lat="44.5941" lon="6.85274">
        <ele>1916.53</ele>
        <time>2015-03-27T07:51:39Z</time>
      </trkpt>
      <trkpt lat="44.59412" lon="6.85293">
        <ele>1917.49</ele>
        <time>2015-03-27T07:51:55Z</time>
      </trkpt>
      <trkpt lat="44.59411" lon="6.85311">
        <ele>1918.45</ele>
        <time>2015-03-27T07:52:12Z</time>
      </trkpt>
      <trkpt lat="44.5941" lon="6.8533">
        <ele>1919.89</ele>
        <time>2015-03-27T07:52:29Z</time>
      </trkpt>
      <trkpt lat="44.59406" lon="6.85347">
        <ele>1920.85</ele>
        <time>2015-03-27T07:52:46Z</time>
      </trkpt>
      <trkpt lat="44.59403" lon="6.8536">
        <ele>1921.81</ele>
        <time>2015-03-27T07:53:00Z</time>
      </trkpt>
      <trkpt lat="44.59399" lon="6.85373">
        <ele>1922.77</ele>
        <time>2015-03-27T07:53:15Z</time>
      </trkpt>
      <trkpt lat="44.59395" lon="6.8539">
        <ele>1923.74</ele>
        <time>2015-03-27T07:53:31Z</time>
      </trkpt>
      <trkpt lat="44.59391" lon="6.85406">
        <ele>1926.14</ele>
        <time>2015-03-27T07:53:49Z</time>
      </trkpt>
      <trkpt lat="44.59386" lon="6.85423">
        <ele>1926.62</ele>
        <time>2015-03-27T07:54:06Z</time>
      </trkpt>
      <trkpt lat="44.59376" lon="6.85445">
        <ele>1928.54</ele>
        <time>2015-03-27T07:54:26Z</time>
      </trkpt>
      <trkpt lat="44.59367" lon="6.85461">
        <ele>1929.5</ele>
        <time>2015-03-27T07:54:44Z</time>
      </trkpt>
      <trkpt lat="44.59362" lon="6.85469">
        <ele>1930.95</ele>
        <time>2015-03-27T07:54:59Z</time>
      </trkpt>
      <trkpt lat="44.59351" lon="6.85487">
        <ele>1932.39</ele>
        <time>2015-03-27T07:55:15Z</time>
      </trkpt>
      <trkpt lat="44.59342" lon="6.85501">
        <ele>1933.83</ele>
        <time>2015-03-27T07:55:32Z</time>
      </trkpt>
      <trkpt lat="44.5933" lon="6.85519">
        <ele>1936.23</ele>
        <time>2015-03-27T07:55:52Z</time>
      </trkpt>
      <trkpt lat="44.5932" lon="6.8553">
        <ele>1937.67</ele>
        <time>2015-03-27T07:56:08Z</time>
      </trkpt>
      <trkpt lat="44.59308" lon="6.85544">
        <ele>1938.64</ele>
        <time>2015-03-27T07:56:25Z</time>
      </trkpt>
      <trkpt lat="44.59296" lon="6.85557">
        <ele>1940.56</ele>
        <time>2015-03-27T07:56:44Z</time>
      </trkpt>
      <trkpt lat="44.59285" lon="6.85566">
        <ele>1941.52</ele>
        <time>2015-03-27T07:57:00Z</time>
      </trkpt>
      <trkpt lat="44.59273" lon="6.85575">
        <ele>1942.96</ele>
        <time>2015-03-27T07:57:16Z</time>
      </trkpt>
      <trkpt lat="44.5926" lon="6.85583">
        <ele>1944.88</ele>
        <time>2015-03-27T07:57:31Z</time>
      </trkpt>
      <trkpt lat="44.5925" lon="6.85591">
        <ele>1946.33</ele>
        <time>2015-03-27T07:57:46Z</time>
      </trkpt>
      <trkpt lat="44.5924" lon="6.85602">
        <ele>1947.77</ele>
        <time>2015-03-27T07:58:02Z</time>
      </trkpt>
      <trkpt lat="44.59227" lon="6.85613">
        <ele>1949.21</ele>
        <time>2015-03-27T07:58:20Z</time>
      </trkpt>
      <trkpt lat="44.59215" lon="6.85623">
        <ele>1950.65</ele>
        <time>2015-03-27T07:58:38Z</time>
      </trkpt>
      <trkpt lat="44.59208" lon="6.85629">
        <ele>1951.13</ele>
        <time>2015-03-27T07:58:54Z</time>
      </trkpt>
      <trkpt lat="44.5921" lon="6.85635">
        <ele>1952.09</ele>
        <time>2015-03-27T07:59:22Z</time>
      </trkpt>
      <trkpt lat="44.59211" lon="6.85639">
        <ele>1950.65</ele>
        <time>2015-03-27T07:59:55Z</time>
      </trkpt>
      <trkpt lat="44.5921" lon="6.85639">
        <ele>1952.09</ele>
        <time>2015-03-27T08:00:25Z</time>
      </trkpt>
      <trkpt lat="44.59206" lon="6.85642">
        <ele>1952.57</ele>
        <time>2015-03-27T08:00:38Z</time>
      </trkpt>
      <trkpt lat="44.59203" lon="6.85651">
        <ele>1954.98</ele>
        <time>2015-03-27T08:00:51Z</time>
      </trkpt>
      <trkpt lat="44.59196" lon="6.85664">
        <ele>1957.38</ele>
        <time>2015-03-27T08:01:07Z</time>
      </trkpt>
      <trkpt lat="44.59184" lon="6.85675">
        <ele>1959.3</ele>
        <time>2015-03-27T08:01:23Z</time>
      </trkpt>
      <trkpt lat="44.59177" lon="6.85681">
        <ele>1961.23</ele>
        <time>2015-03-27T08:01:38Z</time>
      </trkpt>
      <trkpt lat="44.59172" lon="6.85691">
        <ele>1963.15</ele>
        <time>2015-03-27T08:01:54Z</time>
      </trkpt>
      <trkpt lat="44.59168" lon="6.85705">
        <ele>1965.07</ele>
        <time>2015-03-27T08:02:10Z</time>
      </trkpt>
      <trkpt lat="44.59166" lon="6.85719">
        <ele>1966.99</ele>
        <time>2015-03-27T08:02:23Z</time>
      </trkpt>
      <trkpt lat="44.59164" lon="6.85731">
        <ele>1969.4</ele>
        <time>2015-03-27T08:02:37Z</time>
      </trkpt>
      <trkpt lat="44.59151" lon="6.8573">
        <ele>1971.32</ele>
        <time>2015-03-27T08:02:52Z</time>
      </trkpt>
      <trkpt lat="44.59147" lon="6.85722">
        <ele>1972.28</ele>
        <time>2015-03-27T08:03:02Z</time>
      </trkpt>
      <trkpt lat="44.59143" lon="6.85702">
        <ele>1974.69</ele>
        <time>2015-03-27T08:03:19Z</time>
      </trkpt>
      <trkpt lat="44.59142" lon="6.85688">
        <ele>1976.13</ele>
        <time>2015-03-27T08:03:31Z</time>
      </trkpt>
      <trkpt lat="44.59145" lon="6.8567">
        <ele>1978.53</ele>
        <time>2015-03-27T08:03:46Z</time>
      </trkpt>
      <trkpt lat="44.5915" lon="6.85653">
        <ele>1980.45</ele>
        <time>2015-03-27T08:03:59Z</time>
      </trkpt>
      <trkpt lat="44.59153" lon="6.85638">
        <ele>1982.38</ele>
        <time>2015-03-27T08:04:11Z</time>
      </trkpt>
      <trkpt lat="44.59149" lon="6.85631">
        <ele>1983.82</ele>
        <time>2015-03-27T08:04:24Z</time>
      </trkpt>
      <trkpt lat="44.59143" lon="6.85641">
        <ele>1985.74</ele>
        <time>2015-03-27T08:04:38Z</time>
      </trkpt>
      <trkpt lat="44.59137" lon="6.85652">
        <ele>1987.66</ele>
        <time>2015-03-27T08:04:52Z</time>
      </trkpt>
      <trkpt lat="44.59128" lon="6.85666">
        <ele>1989.1</ele>
        <time>2015-03-27T08:05:06Z</time>
      </trkpt>
      <trkpt lat="44.59128" lon="6.85669">
        <ele>1989.59</ele>
        <time>2015-03-27T08:05:08Z</time>
      </trkpt>
      <trkpt lat="44.5912" lon="6.8568">
        <ele>1990.55</ele>
        <time>2015-03-27T08:05:21Z</time>
      </trkpt>
      <trkpt lat="44.59118" lon="6.8569">
        <ele>1992.47</ele>
        <time>2015-03-27T08:05:34Z</time>
      </trkpt>
      <trkpt lat="44.59113" lon="6.85711">
        <ele>1995.35</ele>
        <time>2015-03-27T08:05:50Z</time>
      </trkpt>
      <trkpt lat="44.59108" lon="6.85726">
        <ele>1997.76</ele>
        <time>2015-03-27T08:06:05Z</time>
      </trkpt>
      <trkpt lat="44.59105" lon="6.85735">
        <ele>1998.72</ele>
        <time>2015-03-27T08:06:16Z</time>
      </trkpt>
      <trkpt lat="44.59104" lon="6.85748">
        <ele>2000.16</ele>
        <time>2015-03-27T08:06:31Z</time>
      </trkpt>
      <trkpt lat="44.59102" lon="6.85762">
        <ele>2001.6</ele>
        <time>2015-03-27T08:06:45Z</time>
      </trkpt>
      <trkpt lat="44.591" lon="6.85777">
        <ele>2004.01</ele>
        <time>2015-03-27T08:06:58Z</time>
      </trkpt>
      <trkpt lat="44.591" lon="6.85793">
        <ele>2005.45</ele>
        <time>2015-03-27T08:07:12Z</time>
      </trkpt>
      <trkpt lat="44.5911" lon="6.85809">
        <ele>2007.85</ele>
        <time>2015-03-27T08:07:29Z</time>
      </trkpt>
      <trkpt lat="44.59112" lon="6.85819">
        <ele>2009.29</ele>
        <time>2015-03-27T08:07:44Z</time>
      </trkpt>
      <trkpt lat="44.59112" lon="6.85819">
        <ele>2009.29</ele>
        <time>2015-03-27T08:08:00Z</time>
      </trkpt>
      <trkpt lat="44.59109" lon="6.85821">
        <ele>2007.85</ele>
        <time>2015-03-27T08:08:24Z</time>
      </trkpt>
      <trkpt lat="44.59108" lon="6.85821">
        <ele>2004.49</ele>
        <time>2015-03-27T08:08:40Z</time>
      </trkpt>
      <trkpt lat="44.59108" lon="6.8582">
        <ele>2009.29</ele>
        <time>2015-03-27T08:08:41Z</time>
      </trkpt>
      <trkpt lat="44.59109" lon="6.85821">
        <ele>2006.41</ele>
        <time>2015-03-27T08:08:53Z</time>
      </trkpt>
      <trkpt lat="44.59112" lon="6.85833">
        <ele>2009.77</ele>
        <time>2015-03-27T08:09:07Z</time>
      </trkpt>
      <trkpt lat="44.59111" lon="6.85851">
        <ele>2011.7</ele>
        <time>2015-03-27T08:09:22Z</time>
      </trkpt>
      <trkpt lat="44.59108" lon="6.85872">
        <ele>2015.06</ele>
        <time>2015-03-27T08:09:38Z</time>
      </trkpt>
      <trkpt lat="44.59106" lon="6.85887">
        <ele>2018.43</ele>
        <time>2015-03-27T08:09:52Z</time>
      </trkpt>
      <trkpt lat="44.59096" lon="6.85903">
        <ele>2019.87</ele>
        <time>2015-03-27T08:10:07Z</time>
      </trkpt>
      <trkpt lat="44.59087" lon="6.85916">
        <ele>2021.79</ele>
        <time>2015-03-27T08:10:22Z</time>
      </trkpt>
      <trkpt lat="44.59075" lon="6.85925">
        <ele>2023.71</ele>
        <time>2015-03-27T08:10:40Z</time>
      </trkpt>
      <trkpt lat="44.59064" lon="6.85925">
        <ele>2025.15</ele>
        <time>2015-03-27T08:10:54Z</time>
      </trkpt>
      <trkpt lat="44.59052" lon="6.85917">
        <ele>2026.6</ele>
        <time>2015-03-27T08:11:10Z</time>
      </trkpt>
      <trkpt lat="44.59039" lon="6.85904">
        <ele>2029</ele>
        <time>2015-03-27T08:11:27Z</time>
      </trkpt>
      <trkpt lat="44.59028" lon="6.85895">
        <ele>2029.96</ele>
        <time>2015-03-27T08:11:42Z</time>
      </trkpt>
      <trkpt lat="44.59025" lon="6.85892">
        <ele>2030.44</ele>
        <time>2015-03-27T08:11:47Z</time>
      </trkpt>
      <trkpt lat="44.59013" lon="6.85885">
        <ele>2032.84</ele>
        <time>2015-03-27T08:12:03Z</time>
      </trkpt>
      <trkpt lat="44.59004" lon="6.85881">
        <ele>2034.77</ele>
        <time>2015-03-27T08:12:17Z</time>
      </trkpt>
      <trkpt lat="44.58994" lon="6.85877">
        <ele>2036.69</ele>
        <time>2015-03-27T08:12:30Z</time>
      </trkpt>
      <trkpt lat="44.58985" lon="6.85882">
        <ele>2039.57</ele>
        <time>2015-03-27T08:12:45Z</time>
      </trkpt>
      <trkpt lat="44.58975" lon="6.85889">
        <ele>2041.5</ele>
        <time>2015-03-27T08:13:01Z</time>
      </trkpt>
      <trkpt lat="44.58962" lon="6.85901">
        <ele>2044.38</ele>
        <time>2015-03-27T08:13:19Z</time>
      </trkpt>
      <trkpt lat="44.58956" lon="6.85901">
        <ele>2046.3</ele>
        <time>2015-03-27T08:13:36Z</time>
      </trkpt>
      <trkpt lat="44.58957" lon="6.85899">
        <ele>2046.78</ele>
        <time>2015-03-27T08:13:55Z</time>
      </trkpt>
      <trkpt lat="44.58955" lon="6.85901">
        <ele>2046.78</ele>
        <time>2015-03-27T08:14:11Z</time>
      </trkpt>
      <trkpt lat="44.58956" lon="6.85904">
        <ele>2047.26</ele>
        <time>2015-03-27T08:14:40Z</time>
      </trkpt>
      <trkpt lat="44.5895" lon="6.85902">
        <ele>2047.26</ele>
        <time>2015-03-27T08:14:53Z</time>
      </trkpt>
      <trkpt lat="44.58941" lon="6.85901">
        <ele>2048.71</ele>
        <time>2015-03-27T08:15:09Z</time>
      </trkpt>
      <trkpt lat="44.58931" lon="6.85898">
        <ele>2049.67</ele>
        <time>2015-03-27T08:15:24Z</time>
      </trkpt>
      <trkpt lat="44.58917" lon="6.85897">
        <ele>2051.59</ele>
        <time>2015-03-27T08:15:41Z</time>
      </trkpt>
      <trkpt lat="44.58903" lon="6.85896">
        <ele>2052.55</ele>
        <time>2015-03-27T08:15:59Z</time>
      </trkpt>
      <trkpt lat="44.58888" lon="6.85893">
        <ele>2053.03</ele>
        <time>2015-03-27T08:16:15Z</time>
      </trkpt>
      <trkpt lat="44.58877" lon="6.85892">
        <ele>2053.03</ele>
        <time>2015-03-27T08:16:29Z</time>
      </trkpt>
      <trkpt lat="44.58863" lon="6.85888">
        <ele>2055.92</ele>
        <time>2015-03-27T08:16:48Z</time>
      </trkpt>
      <trkpt lat="44.58853" lon="6.8589">
        <ele>2058.32</ele>
        <time>2015-03-27T08:17:04Z</time>
      </trkpt>
      <trkpt lat="44.58847" lon="6.85889">
        <ele>2059.76</ele>
        <time>2015-03-27T08:17:23Z</time>
      </trkpt>
      <trkpt lat="44.58845" lon="6.8589">
        <ele>2060.24</ele>
        <time>2015-03-27T08:17:53Z</time>
      </trkpt>
      <trkpt lat="44.58835" lon="6.85887">
        <ele>2060.72</ele>
        <time>2015-03-27T08:18:10Z</time>
      </trkpt>
      <trkpt lat="44.58821" lon="6.85882">
        <ele>2062.65</ele>
        <time>2015-03-27T08:18:27Z</time>
      </trkpt>
      <trkpt lat="44.58808" lon="6.85875">
        <ele>2063.61</ele>
        <time>2015-03-27T08:18:45Z</time>
      </trkpt>
      <trkpt lat="44.58793" lon="6.85875">
        <ele>2066.49</ele>
        <time>2015-03-27T08:19:03Z</time>
      </trkpt>
      <trkpt lat="44.58782" lon="6.85876">
        <ele>2066.97</ele>
        <time>2015-03-27T08:19:18Z</time>
      </trkpt>
      <trkpt lat="44.58771" lon="6.85876">
        <ele>2068.41</ele>
        <time>2015-03-27T08:19:37Z</time>
      </trkpt>
      <trkpt lat="44.58761" lon="6.8587">
        <ele>2070.34</ele>
        <time>2015-03-27T08:19:53Z</time>
      </trkpt>
      <trkpt lat="44.58748" lon="6.85869">
        <ele>2071.3</ele>
        <time>2015-03-27T08:20:09Z</time>
      </trkpt>
      <trkpt lat="44.58735" lon="6.85871">
        <ele>2073.7</ele>
        <time>2015-03-27T08:20:27Z</time>
      </trkpt>
      <trkpt lat="44.58724" lon="6.85867">
        <ele>2076.1</ele>
        <time>2015-03-27T08:20:44Z</time>
      </trkpt>
      <trkpt lat="44.58716" lon="6.85862">
        <ele>2079.47</ele>
        <time>2015-03-27T08:21:00Z</time>
      </trkpt>
      <trkpt lat="44.58707" lon="6.85849">
        <ele>2081.87</ele>
        <time>2015-03-27T08:21:17Z</time>
      </trkpt>
      <trkpt lat="44.58701" lon="6.85865">
        <ele>2084.76</ele>
        <time>2015-03-27T08:21:33Z</time>
      </trkpt>
      <trkpt lat="44.58693" lon="6.85875">
        <ele>2087.64</ele>
        <time>2015-03-27T08:21:52Z</time>
      </trkpt>
      <trkpt lat="44.58691" lon="6.85873">
        <ele>2088.12</ele>
        <time>2015-03-27T08:22:10Z</time>
      </trkpt>
      <trkpt lat="44.5869" lon="6.85872">
        <ele>2088.12</ele>
        <time>2015-03-27T08:22:39Z</time>
      </trkpt>
      <trkpt lat="44.58692" lon="6.85867">
        <ele>2088.12</ele>
        <time>2015-03-27T08:23:04Z</time>
      </trkpt>
      <trkpt lat="44.5869" lon="6.85867">
        <ele>2088.6</ele>
        <time>2015-03-27T08:23:35Z</time>
      </trkpt>
      <trkpt lat="44.5869" lon="6.85868">
        <ele>2088.6</ele>
        <time>2015-03-27T08:24:02Z</time>
      </trkpt>
      <trkpt lat="44.58689" lon="6.85871">
        <ele>2088.6</ele>
        <time>2015-03-27T08:24:27Z</time>
      </trkpt>
      <trkpt lat="44.58687" lon="6.85868">
        <ele>2088.12</ele>
        <time>2015-03-27T08:24:50Z</time>
      </trkpt>
      <trkpt lat="44.58685" lon="6.85866">
        <ele>2089.56</ele>
        <time>2015-03-27T08:24:54Z</time>
      </trkpt>
      <trkpt lat="44.58676" lon="6.85856">
        <ele>2092.45</ele>
        <time>2015-03-27T08:25:09Z</time>
      </trkpt>
      <trkpt lat="44.58664" lon="6.85853">
        <ele>2095.81</ele>
        <time>2015-03-27T08:25:21Z</time>
      </trkpt>
      <trkpt lat="44.58652" lon="6.8585">
        <ele>2098.21</ele>
        <time>2015-03-27T08:25:36Z</time>
      </trkpt>
      <trkpt lat="44.58636" lon="6.85846">
        <ele>2101.1</ele>
        <time>2015-03-27T08:25:51Z</time>
      </trkpt>
      <trkpt lat="44.58625" lon="6.85849">
        <ele>2103.02</ele>
        <time>2015-03-27T08:26:06Z</time>
      </trkpt>
      <trkpt lat="44.58619" lon="6.85853">
        <ele>2105.91</ele>
        <time>2015-03-27T08:26:19Z</time>
      </trkpt>
      <trkpt lat="44.5861" lon="6.85864">
        <ele>2108.79</ele>
        <time>2015-03-27T08:26:33Z</time>
      </trkpt>
      <trkpt lat="44.58603" lon="6.85882">
        <ele>2111.19</ele>
        <time>2015-03-27T08:26:52Z</time>
      </trkpt>
      <trkpt lat="44.586" lon="6.8589">
        <ele>2113.12</ele>
        <time>2015-03-27T08:27:08Z</time>
      </trkpt>
      <trkpt lat="44.58597" lon="6.85897">
        <ele>2116</ele>
        <time>2015-03-27T08:27:20Z</time>
      </trkpt>
      <trkpt lat="44.58589" lon="6.85905">
        <ele>2118.88</ele>
        <time>2015-03-27T08:27:38Z</time>
      </trkpt>
      <trkpt lat="44.58579" lon="6.85907">
        <ele>2121.29</ele>
        <time>2015-03-27T08:27:56Z</time>
      </trkpt>
      <trkpt lat="44.58573" lon="6.85909">
        <ele>2123.21</ele>
        <time>2015-03-27T08:28:10Z</time>
      </trkpt>
      <trkpt lat="44.58567" lon="6.85919">
        <ele>2124.65</ele>
        <time>2015-03-27T08:28:25Z</time>
      </trkpt>
      <trkpt lat="44.58563" lon="6.85931">
        <ele>2128.02</ele>
        <time>2015-03-27T08:28:41Z</time>
      </trkpt>
      <trkpt lat="44.58562" lon="6.85931">
        <ele>2128.98</ele>
        <time>2015-03-27T08:29:01Z</time>
      </trkpt>
      <trkpt lat="44.58561" lon="6.85932">
        <ele>2128.02</ele>
        <time>2015-03-27T08:29:37Z</time>
      </trkpt>
      <trkpt lat="44.58562" lon="6.8593">
        <ele>2128.02</ele>
        <time>2015-03-27T08:30:05Z</time>
      </trkpt>
      <trkpt lat="44.58563" lon="6.85929">
        <ele>2128.02</ele>
        <time>2015-03-27T08:30:27Z</time>
      </trkpt>
      <trkpt lat="44.58561" lon="6.85929">
        <ele>2128.02</ele>
        <time>2015-03-27T08:30:57Z</time>
      </trkpt>
      <trkpt lat="44.58562" lon="6.85926">
        <ele>2127.53</ele>
        <time>2015-03-27T08:31:19Z</time>
      </trkpt>
      <trkpt lat="44.58562" lon="6.85926">
        <ele>2128.98</ele>
        <time>2015-03-27T08:31:30Z</time>
      </trkpt>
      <trkpt lat="44.58564" lon="6.8593">
        <ele>2128.98</ele>
        <time>2015-03-27T08:31:46Z</time>
      </trkpt>
      <trkpt lat="44.58562" lon="6.85933">
        <ele>2128.98</ele>
        <time>2015-03-27T08:32:16Z</time>
      </trkpt>
      <trkpt lat="44.58561" lon="6.85933">
        <ele>2129.46</ele>
        <time>2015-03-27T08:32:29Z</time>
      </trkpt>
      <trkpt lat="44.58561" lon="6.8593">
        <ele>2129.46</ele>
        <time>2015-03-27T08:32:46Z</time>
      </trkpt>
      <trkpt lat="44.58556" lon="6.85929">
        <ele>2130.42</ele>
        <time>2015-03-27T08:33:09Z</time>
      </trkpt>
      <trkpt lat="44.58551" lon="6.85938">
        <ele>2133.3</ele>
        <time>2015-03-27T08:33:27Z</time>
      </trkpt>
      <trkpt lat="44.58551" lon="6.85949">
        <ele>2135.23</ele>
        <time>2015-03-27T08:33:43Z</time>
      </trkpt>
      <trkpt lat="44.58544" lon="6.85948">
        <ele>2137.63</ele>
        <time>2015-03-27T08:34:01Z</time>
      </trkpt>
      <trkpt lat="44.58534" lon="6.85942">
        <ele>2140.99</ele>
        <time>2015-03-27T08:34:24Z</time>
      </trkpt>
      <trkpt lat="44.58528" lon="6.85942">
        <ele>2142.44</ele>
        <time>2015-03-27T08:34:42Z</time>
      </trkpt>
      <trkpt lat="44.58526" lon="6.85944">
        <ele>2144.36</ele>
        <time>2015-03-27T08:34:59Z</time>
      </trkpt>
      <trkpt lat="44.58521" lon="6.85943">
        <ele>2146.28</ele>
        <time>2015-03-27T08:35:15Z</time>
      </trkpt>
      <trkpt lat="44.58518" lon="6.85941">
        <ele>2146.76</ele>
        <time>2015-03-27T08:35:36Z</time>
      </trkpt>
      <trkpt lat="44.58518" lon="6.85938">
        <ele>2148.2</ele>
        <time>2015-03-27T08:35:57Z</time>
      </trkpt>
      <trkpt lat="44.58517" lon="6.8594">
        <ele>2148.68</ele>
        <time>2015-03-27T08:36:26Z</time>
      </trkpt>
      <trkpt lat="44.58513" lon="6.8594">
        <ele>2149.65</ele>
        <time>2015-03-27T08:36:50Z</time>
      </trkpt>
      <trkpt lat="44.5851" lon="6.85945">
        <ele>2151.57</ele>
        <time>2015-03-27T08:37:08Z</time>
      </trkpt>
      <trkpt lat="44.58509" lon="6.85945">
        <ele>2152.53</ele>
        <time>2015-03-27T08:37:30Z</time>
      </trkpt>
      <trkpt lat="44.58505" lon="6.85939">
        <ele>2153.97</ele>
        <time>2015-03-27T08:37:48Z</time>
      </trkpt>
      <trkpt lat="44.58496" lon="6.8594">
        <ele>2156.37</ele>
        <time>2015-03-27T08:38:06Z</time>
      </trkpt>
      <trkpt lat="44.58484" lon="6.85943">
        <ele>2158.78</ele>
        <time>2015-03-27T08:38:28Z</time>
      </trkpt>
      <trkpt lat="44.58474" lon="6.8594">
        <ele>2162.14</ele>
        <time>2015-03-27T08:38:52Z</time>
      </trkpt>
      <trkpt lat="44.58465" lon="6.85941">
        <ele>2164.55</ele>
        <time>2015-03-27T08:39:12Z</time>
      </trkpt>
      <trkpt lat="44.58459" lon="6.85942">
        <ele>2165.51</ele>
        <time>2015-03-27T08:39:28Z</time>
      </trkpt>
      <trkpt lat="44.58448" lon="6.85943">
        <ele>2166.95</ele>
        <time>2015-03-27T08:39:45Z</time>
      </trkpt>
      <trkpt lat="44.58447" lon="6.85943">
        <ele>2167.91</ele>
        <time>2015-03-27T08:40:15Z</time>
      </trkpt>
      <trkpt lat="44.58447" lon="6.85945">
        <ele>2167.91</ele>
        <time>2015-03-27T08:40:39Z</time>
      </trkpt>
      <trkpt lat="44.58447" lon="6.85944">
        <ele>2168.39</ele>
        <time>2015-03-27T08:41:08Z</time>
      </trkpt>
      <trkpt lat="44.58447" lon="6.85943">
        <ele>2168.39</ele>
        <time>2015-03-27T08:41:27Z</time>
      </trkpt>
      <trkpt lat="44.5845" lon="6.85944">
        <ele>2168.87</ele>
        <time>2015-03-27T08:41:50Z</time>
      </trkpt>
      <trkpt lat="44.58449" lon="6.85944">
        <ele>2167.43</ele>
        <time>2015-03-27T08:42:03Z</time>
      </trkpt>
      <trkpt lat="44.58447" lon="6.85943">
        <ele>2167.43</ele>
        <time>2015-03-27T08:42:18Z</time>
      </trkpt>
      <trkpt lat="44.58446" lon="6.85944">
        <ele>2168.87</ele>
        <time>2015-03-27T08:42:28Z</time>
      </trkpt>
      <trkpt lat="44.58445" lon="6.85943">
        <ele>2169.35</ele>
        <time>2015-03-27T08:42:49Z</time>
      </trkpt>
      <trkpt lat="44.58445" lon="6.85942">
        <ele>2169.35</ele>
        <time>2015-03-27T08:43:12Z</time>
      </trkpt>
      <trkpt lat="44.58444" lon="6.85941">
        <ele>2168.39</ele>
        <time>2015-03-27T08:43:30Z</time>
      </trkpt>
      <trkpt lat="44.58441" lon="6.85945">
        <ele>2168.39</ele>
        <time>2015-03-27T08:43:36Z</time>
      </trkpt>
      <trkpt lat="44.58426" lon="6.85952">
        <ele>2169.35</ele>
        <time>2015-03-27T08:43:52Z</time>
      </trkpt>
      <trkpt lat="44.58416" lon="6.85959">
        <ele>2169.83</ele>
        <time>2015-03-27T08:44:08Z</time>
      </trkpt>
      <trkpt lat="44.58406" lon="6.85965">
        <ele>2169.83</ele>
        <time>2015-03-27T08:44:22Z</time>
      </trkpt>
      <trkpt lat="44.58405" lon="6.85966">
        <ele>2168.87</ele>
        <time>2015-03-27T08:44:24Z</time>
      </trkpt>
      <trkpt lat="44.5839" lon="6.85982">
        <ele>2167.91</ele>
        <time>2015-03-27T08:44:45Z</time>
      </trkpt>
      <trkpt lat="44.58377" lon="6.85996">
        <ele>2166.95</ele>
        <time>2015-03-27T08:45:01Z</time>
      </trkpt>
      <trkpt lat="44.58362" lon="6.86005">
        <ele>2166.95</ele>
        <time>2015-03-27T08:45:15Z</time>
      </trkpt>
      <trkpt lat="44.58346" lon="6.86011">
        <ele>2166.47</ele>
        <time>2015-03-27T08:45:29Z</time>
      </trkpt>
      <trkpt lat="44.58335" lon="6.86014">
        <ele>2166.47</ele>
        <time>2015-03-27T08:45:44Z</time>
      </trkpt>
      <trkpt lat="44.58331" lon="6.86012">
        <ele>2167.91</ele>
        <time>2015-03-27T08:45:49Z</time>
      </trkpt>
      <trkpt lat="44.58315" lon="6.86009">
        <ele>2169.35</ele>
        <time>2015-03-27T08:46:06Z</time>
      </trkpt>
      <trkpt lat="44.58299" lon="6.86011">
        <ele>2169.35</ele>
        <time>2015-03-27T08:46:24Z</time>
      </trkpt>
      <trkpt lat="44.58284" lon="6.86018">
        <ele>2166.95</ele>
        <time>2015-03-27T08:46:40Z</time>
      </trkpt>
      <trkpt lat="44.58274" lon="6.86021">
        <ele>2164.55</ele>
        <time>2015-03-27T08:46:56Z</time>
      </trkpt>
      <trkpt lat="44.58272" lon="6.86016">
        <ele>2165.99</ele>
        <time>2015-03-27T08:47:09Z</time>
      </trkpt>
      <trkpt lat="44.5827" lon="6.86008">
        <ele>2167.43</ele>
        <time>2015-03-27T08:47:25Z</time>
      </trkpt>
      <trkpt lat="44.58262" lon="6.85999">
        <ele>2169.35</ele>
        <time>2015-03-27T08:47:39Z</time>
      </trkpt>
      <trkpt lat="44.58254" lon="6.85987">
        <ele>2170.31</ele>
        <time>2015-03-27T08:47:53Z</time>
      </trkpt>
      <trkpt lat="44.58241" lon="6.85979">
        <ele>2171.76</ele>
        <time>2015-03-27T08:48:12Z</time>
      </trkpt>
      <trkpt lat="44.58229" lon="6.85973">
        <ele>2174.16</ele>
        <time>2015-03-27T08:48:28Z</time>
      </trkpt>
      <trkpt lat="44.5822" lon="6.85966">
        <ele>2175.6</ele>
        <time>2015-03-27T08:48:44Z</time>
      </trkpt>
      <trkpt lat="44.5821" lon="6.8596">
        <ele>2176.08</ele>
        <time>2015-03-27T08:48:59Z</time>
      </trkpt>
      <trkpt lat="44.58198" lon="6.85959">
        <ele>2177.04</ele>
        <time>2015-03-27T08:49:14Z</time>
      </trkpt>
      <trkpt lat="44.58187" lon="6.85956">
        <ele>2177.52</ele>
        <time>2015-03-27T08:49:28Z</time>
      </trkpt>
      <trkpt lat="44.58181" lon="6.85953">
        <ele>2178.48</ele>
        <time>2015-03-27T08:49:37Z</time>
      </trkpt>
      <trkpt lat="44.5817" lon="6.85945">
        <ele>2178.97</ele>
        <time>2015-03-27T08:49:54Z</time>
      </trkpt>
      <trkpt lat="44.58166" lon="6.85942">
        <ele>2178.97</ele>
        <time>2015-03-27T08:50:11Z</time>
      </trkpt>
      <trkpt lat="44.58164" lon="6.85943">
        <ele>2180.89</ele>
        <time>2015-03-27T08:50:40Z</time>
      </trkpt>
      <trkpt lat="44.58161" lon="6.8594">
        <ele>2179.93</ele>
        <time>2015-03-27T08:51:03Z</time>
      </trkpt>
      <trkpt lat="44.58151" lon="6.85942">
        <ele>2181.37</ele>
        <time>2015-03-27T08:51:16Z</time>
      </trkpt>
      <trkpt lat="44.58138" lon="6.85944">
        <ele>2183.29</ele>
        <time>2015-03-27T08:51:31Z</time>
      </trkpt>
      <trkpt lat="44.58125" lon="6.85947">
        <ele>2185.21</ele>
        <time>2015-03-27T08:51:47Z</time>
      </trkpt>
      <trkpt lat="44.58109" lon="6.85951">
        <ele>2187.14</ele>
        <time>2015-03-27T08:52:05Z</time>
      </trkpt>
      <trkpt lat="44.58096" lon="6.85955">
        <ele>2187.62</ele>
        <time>2015-03-27T08:52:21Z</time>
      </trkpt>
      <trkpt lat="44.58084" lon="6.85959">
        <ele>2189.06</ele>
        <time>2015-03-27T08:52:38Z</time>
      </trkpt>
      <trkpt lat="44.58078" lon="6.85961">
        <ele>2190.02</ele>
        <time>2015-03-27T08:52:44Z</time>
      </trkpt>
      <trkpt lat="44.58064" lon="6.85962">
        <ele>2192.9</ele>
        <time>2015-03-27T08:53:01Z</time>
      </trkpt>
      <trkpt lat="44.58052" lon="6.85964">
        <ele>2194.35</ele>
        <time>2015-03-27T08:53:14Z</time>
      </trkpt>
      <trkpt lat="44.58038" lon="6.85965">
        <ele>2195.79</ele>
        <time>2015-03-27T08:53:30Z</time>
      </trkpt>
      <trkpt lat="44.58029" lon="6.85964">
        <ele>2199.15</ele>
        <time>2015-03-27T08:53:43Z</time>
      </trkpt>
      <trkpt lat="44.58019" lon="6.85965">
        <ele>2202.04</ele>
        <time>2015-03-27T08:53:56Z</time>
      </trkpt>
      <trkpt lat="44.58005" lon="6.85965">
        <ele>2203.96</ele>
        <time>2015-03-27T08:54:14Z</time>
      </trkpt>
      <trkpt lat="44.57995" lon="6.85966">
        <ele>2205.88</ele>
        <time>2015-03-27T08:54:30Z</time>
      </trkpt>
      <trkpt lat="44.57988" lon="6.85969">
        <ele>2207.32</ele>
        <time>2015-03-27T08:54:46Z</time>
      </trkpt>
      <trkpt lat="44.57979" lon="6.8597">
        <ele>2208.77</ele>
        <time>2015-03-27T08:55:01Z</time>
      </trkpt>
      <trkpt lat="44.57977" lon="6.85971">
        <ele>2209.73</ele>
        <time>2015-03-27T08:55:18Z</time>
      </trkpt>
      <trkpt lat="44.57977" lon="6.85972">
        <ele>2213.09</ele>
        <time>2015-03-27T08:55:34Z</time>
      </trkpt>
      <trkpt lat="44.57977" lon="6.85972">
        <ele>2209.73</ele>
        <time>2015-03-27T08:55:37Z</time>
      </trkpt>
      <trkpt lat="44.57977" lon="6.85972">
        <ele>2209.73</ele>
        <time>2015-03-27T08:55:38Z</time>
      </trkpt>
      <trkpt lat="44.57968" lon="6.85976">
        <ele>2211.17</ele>
        <time>2015-03-27T08:55:53Z</time>
      </trkpt>
      <trkpt lat="44.57968" lon="6.85976">
        <ele>2211.17</ele>
        <time>2015-03-27T08:55:54Z</time>
      </trkpt>
      <trkpt lat="44.57956" lon="6.85985">
        <ele>2213.09</ele>
        <time>2015-03-27T08:56:09Z</time>
      </trkpt>
      <trkpt lat="44.57948" lon="6.8599">
        <ele>2214.05</ele>
        <time>2015-03-27T08:56:20Z</time>
      </trkpt>
      <trkpt lat="44.57944" lon="6.85993">
        <ele>2214.05</ele>
        <time>2015-03-27T08:56:38Z</time>
      </trkpt>
      <trkpt lat="44.57942" lon="6.85995">
        <ele>2214.05</ele>
        <time>2015-03-27T08:56:45Z</time>
      </trkpt>
      <trkpt lat="44.5793" lon="6.86">
        <ele>2215.98</ele>
        <time>2015-03-27T08:57:00Z</time>
      </trkpt>
      <trkpt lat="44.57926" lon="6.85999">
        <ele>2216.94</ele>
        <time>2015-03-27T08:57:17Z</time>
      </trkpt>
      <trkpt lat="44.57927" lon="6.86001">
        <ele>2216.94</ele>
        <time>2015-03-27T08:57:45Z</time>
      </trkpt>
      <trkpt lat="44.57929" lon="6.86001">
        <ele>2216.94</ele>
        <time>2015-03-27T08:58:09Z</time>
      </trkpt>
      <trkpt lat="44.57929" lon="6.86001">
        <ele>2217.9</ele>
        <time>2015-03-27T08:58:37Z</time>
      </trkpt>
      <trkpt lat="44.5793" lon="6.86">
        <ele>2218.38</ele>
        <time>2015-03-27T08:59:00Z</time>
      </trkpt>
      <trkpt lat="44.57928" lon="6.86003">
        <ele>2219.34</ele>
        <time>2015-03-27T08:59:22Z</time>
      </trkpt>
      <trkpt lat="44.57928" lon="6.86003">
        <ele>2219.34</ele>
        <time>2015-03-27T08:59:49Z</time>
      </trkpt>
      <trkpt lat="44.57928" lon="6.86004">
        <ele>2219.82</ele>
        <time>2015-03-27T09:00:15Z</time>
      </trkpt>
      <trkpt lat="44.57927" lon="6.86005">
        <ele>2219.82</ele>
        <time>2015-03-27T09:00:40Z</time>
      </trkpt>
      <trkpt lat="44.57929" lon="6.86003">
        <ele>2219.82</ele>
        <time>2015-03-27T09:01:09Z</time>
      </trkpt>
      <trkpt lat="44.57928" lon="6.86004">
        <ele>2219.82</ele>
        <time>2015-03-27T09:01:45Z</time>
      </trkpt>
      <trkpt lat="44.57928" lon="6.86001">
        <ele>2218.86</ele>
        <time>2015-03-27T09:02:04Z</time>
      </trkpt>
      <trkpt lat="44.57928" lon="6.86001">
        <ele>2218.86</ele>
        <time>2015-03-27T09:02:05Z</time>
      </trkpt>
      <trkpt lat="44.57925" lon="6.86003">
        <ele>2218.86</ele>
        <time>2015-03-27T09:02:26Z</time>
      </trkpt>
      <trkpt lat="44.57925" lon="6.86003">
        <ele>2221.26</ele>
        <time>2015-03-27T09:02:56Z</time>
      </trkpt>
      <trkpt lat="44.57925" lon="6.86003">
        <ele>2219.34</ele>
        <time>2015-03-27T09:03:22Z</time>
      </trkpt>
      <trkpt lat="44.57924" lon="6.86007">
        <ele>2219.34</ele>
        <time>2015-03-27T09:03:37Z</time>
      </trkpt>
      <trkpt lat="44.57925" lon="6.86008">
        <ele>2219.34</ele>
        <time>2015-03-27T09:03:58Z</time>
      </trkpt>
      <trkpt lat="44.57923" lon="6.86009">
        <ele>2219.82</ele>
        <time>2015-03-27T09:04:26Z</time>
      </trkpt>
      <trkpt lat="44.57921" lon="6.86011">
        <ele>2221.26</ele>
        <time>2015-03-27T09:04:47Z</time>
      </trkpt>
      <trkpt lat="44.57913" lon="6.86017">
        <ele>2222.22</ele>
        <time>2015-03-27T09:05:02Z</time>
      </trkpt>
      <trkpt lat="44.57904" lon="6.86024">
        <ele>2224.63</ele>
        <time>2015-03-27T09:05:20Z</time>
      </trkpt>
      <trkpt lat="44.57894" lon="6.86034">
        <ele>2227.03</ele>
        <time>2015-03-27T09:05:37Z</time>
      </trkpt>
      <trkpt lat="44.57884" lon="6.86043">
        <ele>2228.95</ele>
        <time>2015-03-27T09:05:56Z</time>
      </trkpt>
      <trkpt lat="44.57873" lon="6.86053">
        <ele>2230.88</ele>
        <time>2015-03-27T09:06:14Z</time>
      </trkpt>
      <trkpt lat="44.57863" lon="6.86063">
        <ele>2233.28</ele>
        <time>2015-03-27T09:06:30Z</time>
      </trkpt>
      <trkpt lat="44.57856" lon="6.86074">
        <ele>2235.2</ele>
        <time>2015-03-27T09:06:47Z</time>
      </trkpt>
      <trkpt lat="44.57849" lon="6.86083">
        <ele>2237.61</ele>
        <time>2015-03-27T09:07:01Z</time>
      </trkpt>
      <trkpt lat="44.57839" lon="6.86093">
        <ele>2240.01</ele>
        <time>2015-03-27T09:07:21Z</time>
      </trkpt>
      <trkpt lat="44.57833" lon="6.861">
        <ele>2242.89</ele>
        <time>2015-03-27T09:07:39Z</time>
      </trkpt>
      <trkpt lat="44.57824" lon="6.86106">
        <ele>2245.3</ele>
        <time>2015-03-27T09:07:59Z</time>
      </trkpt>
      <trkpt lat="44.57815" lon="6.86111">
        <ele>2248.18</ele>
        <time>2015-03-27T09:08:21Z</time>
      </trkpt>
      <trkpt lat="44.57806" lon="6.86117">
        <ele>2251.06</ele>
        <time>2015-03-27T09:08:41Z</time>
      </trkpt>
      <trkpt lat="44.57804" lon="6.86118">
        <ele>2251.54</ele>
        <time>2015-03-27T09:08:57Z</time>
      </trkpt>
      <trkpt lat="44.578" lon="6.86119">
        <ele>2253.95</ele>
        <time>2015-03-27T09:09:14Z</time>
      </trkpt>
      <trkpt lat="44.57791" lon="6.86131">
        <ele>2256.35</ele>
        <time>2015-03-27T09:09:31Z</time>
      </trkpt>
      <trkpt lat="44.57786" lon="6.86135">
        <ele>2257.79</ele>
        <time>2015-03-27T09:09:50Z</time>
      </trkpt>
      <trkpt lat="44.57774" lon="6.86147">
        <ele>2259.24</ele>
        <time>2015-03-27T09:10:10Z</time>
      </trkpt>
      <trkpt lat="44.5776" lon="6.86145">
        <ele>2260.2</ele>
        <time>2015-03-27T09:10:29Z</time>
      </trkpt>
      <trkpt lat="44.57744" lon="6.86148">
        <ele>2261.64</ele>
        <time>2015-03-27T09:10:52Z</time>
      </trkpt>
      <trkpt lat="44.57732" lon="6.86156">
        <ele>2263.56</ele>
        <time>2015-03-27T09:11:14Z</time>
      </trkpt>
      <trkpt lat="44.5773" lon="6.86158">
        <ele>2262.12</ele>
        <time>2015-03-27T09:11:25Z</time>
      </trkpt>
      <trkpt lat="44.5773" lon="6.86159">
        <ele>2263.56</ele>
        <time>2015-03-27T09:11:41Z</time>
      </trkpt>
      <trkpt lat="44.57731" lon="6.86157">
        <ele>2261.64</ele>
        <time>2015-03-27T09:12:13Z</time>
      </trkpt>
      <trkpt lat="44.57723" lon="6.8617">
        <ele>2263.56</ele>
        <time>2015-03-27T09:12:30Z</time>
      </trkpt>
      <trkpt lat="44.57714" lon="6.8618">
        <ele>2266.45</ele>
        <time>2015-03-27T09:12:48Z</time>
      </trkpt>
      <trkpt lat="44.57704" lon="6.86192">
        <ele>2269.33</ele>
        <time>2015-03-27T09:13:04Z</time>
      </trkpt>
      <trkpt lat="44.57692" lon="6.86205">
        <ele>2271.73</ele>
        <time>2015-03-27T09:13:20Z</time>
      </trkpt>
      <trkpt lat="44.57681" lon="6.86218">
        <ele>2274.14</ele>
        <time>2015-03-27T09:13:39Z</time>
      </trkpt>
      <trkpt lat="44.57671" lon="6.86236">
        <ele>2276.54</ele>
        <time>2015-03-27T09:13:59Z</time>
      </trkpt>
      <trkpt lat="44.57663" lon="6.86257">
        <ele>2278.46</ele>
        <time>2015-03-27T09:14:19Z</time>
      </trkpt>
      <trkpt lat="44.5766" lon="6.86257">
        <ele>2278.46</ele>
        <time>2015-03-27T09:14:34Z</time>
      </trkpt>
      <trkpt lat="44.57657" lon="6.86268">
        <ele>2278.94</ele>
        <time>2015-03-27T09:14:47Z</time>
      </trkpt>
      <trkpt lat="44.57656" lon="6.86269">
        <ele>2278.94</ele>
        <time>2015-03-27T09:14:56Z</time>
      </trkpt>
      <trkpt lat="44.57651" lon="6.86284">
        <ele>2279.42</ele>
        <time>2015-03-27T09:15:10Z</time>
      </trkpt>
      <trkpt lat="44.57645" lon="6.86298">
        <ele>2280.38</ele>
        <time>2015-03-27T09:15:24Z</time>
      </trkpt>
      <trkpt lat="44.57639" lon="6.86312">
        <ele>2281.83</ele>
        <time>2015-03-27T09:15:38Z</time>
      </trkpt>
      <trkpt lat="44.57634" lon="6.86318">
        <ele>2282.31</ele>
        <time>2015-03-27T09:15:45Z</time>
      </trkpt>
      <trkpt lat="44.57628" lon="6.86332">
        <ele>2283.75</ele>
        <time>2015-03-27T09:16:00Z</time>
      </trkpt>
      <trkpt lat="44.5763" lon="6.86348">
        <ele>2285.19</ele>
        <time>2015-03-27T09:16:13Z</time>
      </trkpt>
      <trkpt lat="44.57632" lon="6.86363">
        <ele>2287.11</ele>
        <time>2015-03-27T09:16:27Z</time>
      </trkpt>
      <trkpt lat="44.57633" lon="6.86373">
        <ele>2288.56</ele>
        <time>2015-03-27T09:16:36Z</time>
      </trkpt>
      <trkpt lat="44.57633" lon="6.86376">
        <ele>2288.56</ele>
        <time>2015-03-27T09:16:38Z</time>
      </trkpt>
      <trkpt lat="44.57635" lon="6.86383">
        <ele>2289.52</ele>
        <time>2015-03-27T09:16:43Z</time>
      </trkpt>
      <trkpt lat="44.57635" lon="6.86385">
        <ele>2289.52</ele>
        <time>2015-03-27T09:16:58Z</time>
      </trkpt>
      <trkpt lat="44.57634" lon="6.86385">
        <ele>2289.52</ele>
        <time>2015-03-27T09:17:27Z</time>
      </trkpt>
      <trkpt lat="44.57632" lon="6.86394">
        <ele>2288.56</ele>
        <time>2015-03-27T09:17:49Z</time>
      </trkpt>
      <trkpt lat="44.5763" lon="6.86397">
        <ele>2288.56</ele>
        <time>2015-03-27T09:17:51Z</time>
      </trkpt>
      <trkpt lat="44.57623" lon="6.86404">
        <ele>2289.04</ele>
        <time>2015-03-27T09:18:04Z</time>
      </trkpt>
      <trkpt lat="44.57611" lon="6.86418">
        <ele>2288.08</ele>
        <time>2015-03-27T09:18:19Z</time>
      </trkpt>
      <trkpt lat="44.57604" lon="6.86426">
        <ele>2289.04</ele>
        <time>2015-03-27T09:18:33Z</time>
      </trkpt>
      <trkpt lat="44.57599" lon="6.86426">
        <ele>2289.52</ele>
        <time>2015-03-27T09:18:55Z</time>
      </trkpt>
      <trkpt lat="44.57595" lon="6.86428">
        <ele>2290</ele>
        <time>2015-03-27T09:19:01Z</time>
      </trkpt>
      <trkpt lat="44.57587" lon="6.86432">
        <ele>2290</ele>
        <time>2015-03-27T09:19:18Z</time>
      </trkpt>
      <trkpt lat="44.57584" lon="6.86433">
        <ele>2289.04</ele>
        <time>2015-03-27T09:19:53Z</time>
      </trkpt>
      <trkpt lat="44.57584" lon="6.86439">
        <ele>2287.11</ele>
        <time>2015-03-27T09:20:29Z</time>
      </trkpt>
      <trkpt lat="44.57563" lon="6.86441">
        <ele>2285.67</ele>
        <time>2015-03-27T09:20:48Z</time>
      </trkpt>
      <trkpt lat="44.57554" lon="6.86434">
        <ele>2286.63</ele>
        <time>2015-03-27T09:21:00Z</time>
      </trkpt>
      <trkpt lat="44.57543" lon="6.86423">
        <ele>2288.56</ele>
        <time>2015-03-27T09:21:18Z</time>
      </trkpt>
      <trkpt lat="44.57525" lon="6.8642">
        <ele>2290</ele>
        <time>2015-03-27T09:21:37Z</time>
      </trkpt>
      <trkpt lat="44.57511" lon="6.86423">
        <ele>2288.56</ele>
        <time>2015-03-27T09:21:48Z</time>
      </trkpt>
      <trkpt lat="44.57498" lon="6.86421">
        <ele>2288.56</ele>
        <time>2015-03-27T09:22:01Z</time>
      </trkpt>
      <trkpt lat="44.57494" lon="6.86414">
        <ele>2290</ele>
        <time>2015-03-27T09:22:08Z</time>
      </trkpt>
      <trkpt lat="44.57478" lon="6.86418">
        <ele>2291.44</ele>
        <time>2015-03-27T09:22:30Z</time>
      </trkpt>
      <trkpt lat="44.57466" lon="6.86429">
        <ele>2293.36</ele>
        <time>2015-03-27T09:22:50Z</time>
      </trkpt>
      <trkpt lat="44.57453" lon="6.86438">
        <ele>2295.28</ele>
        <time>2015-03-27T09:23:10Z</time>
      </trkpt>
      <trkpt lat="44.5744" lon="6.86448">
        <ele>2296.25</ele>
        <time>2015-03-27T09:23:30Z</time>
      </trkpt>
      <trkpt lat="44.57427" lon="6.86463">
        <ele>2296.25</ele>
        <time>2015-03-27T09:23:49Z</time>
      </trkpt>
      <trkpt lat="44.5742" lon="6.8647">
        <ele>2296.25</ele>
        <time>2015-03-27T09:23:58Z</time>
      </trkpt>
      <trkpt lat="44.57407" lon="6.86463">
        <ele>2296.73</ele>
        <time>2015-03-27T09:24:15Z</time>
      </trkpt>
      <trkpt lat="44.57393" lon="6.86448">
        <ele>2297.21</ele>
        <time>2015-03-27T09:24:33Z</time>
      </trkpt>
      <trkpt lat="44.57383" lon="6.86444">
        <ele>2298.17</ele>
        <time>2015-03-27T09:24:52Z</time>
      </trkpt>
      <trkpt lat="44.57382" lon="6.86437">
        <ele>2299.13</ele>
        <time>2015-03-27T09:25:11Z</time>
      </trkpt>
      <trkpt lat="44.57378" lon="6.86431">
        <ele>2299.61</ele>
        <time>2015-03-27T09:25:31Z</time>
      </trkpt>
      <trkpt lat="44.57376" lon="6.86431">
        <ele>2299.61</ele>
        <time>2015-03-27T09:25:33Z</time>
      </trkpt>
      <trkpt lat="44.5736" lon="6.86431">
        <ele>2297.21</ele>
        <time>2015-03-27T09:25:45Z</time>
      </trkpt>
      <trkpt lat="44.57356" lon="6.86432">
        <ele>2296.73</ele>
        <time>2015-03-27T09:25:48Z</time>
      </trkpt>
      <trkpt lat="44.5734" lon="6.86422">
        <ele>2295.77</ele>
        <time>2015-03-27T09:26:05Z</time>
      </trkpt>
      <trkpt lat="44.57326" lon="6.86421">
        <ele>2298.17</ele>
        <time>2015-03-27T09:26:20Z</time>
      </trkpt>
      <trkpt lat="44.57314" lon="6.86424">
        <ele>2300.57</ele>
        <time>2015-03-27T09:26:34Z</time>
      </trkpt>
      <trkpt lat="44.57302" lon="6.86431">
        <ele>2302.01</ele>
        <time>2015-03-27T09:26:50Z</time>
      </trkpt>
      <trkpt lat="44.5729" lon="6.86441">
        <ele>2302.98</ele>
        <time>2015-03-27T09:27:06Z</time>
      </trkpt>
      <trkpt lat="44.57279" lon="6.86446">
        <ele>2303.94</ele>
        <time>2015-03-27T09:27:21Z</time>
      </trkpt>
      <trkpt lat="44.57267" lon="6.86454">
        <ele>2305.38</ele>
        <time>2015-03-27T09:27:37Z</time>
      </trkpt>
      <trkpt lat="44.57254" lon="6.86461">
        <ele>2306.34</ele>
        <time>2015-03-27T09:27:53Z</time>
      </trkpt>
      <trkpt lat="44.57242" lon="6.86466">
        <ele>2308.26</ele>
        <time>2015-03-27T09:28:08Z</time>
      </trkpt>
      <trkpt lat="44.57241" lon="6.86467">
        <ele>2308.26</ele>
        <time>2015-03-27T09:28:43Z</time>
      </trkpt>
      <trkpt lat="44.57236" lon="6.86473">
        <ele>2308.26</ele>
        <time>2015-03-27T09:28:50Z</time>
      </trkpt>
      <trkpt lat="44.57233" lon="6.8648">
        <ele>2309.22</ele>
        <time>2015-03-27T09:29:10Z</time>
      </trkpt>
      <trkpt lat="44.57229" lon="6.86489">
        <ele>2309.7</ele>
        <time>2015-03-27T09:29:33Z</time>
      </trkpt>
      <trkpt lat="44.57228" lon="6.86502">
        <ele>2310.67</ele>
        <time>2015-03-27T09:29:43Z</time>
      </trkpt>
      <trkpt lat="44.57228" lon="6.86506">
        <ele>2311.15</ele>
        <time>2015-03-27T09:29:46Z</time>
      </trkpt>
      <trkpt lat="44.5722" lon="6.86528">
        <ele>2312.11</ele>
        <time>2015-03-27T09:30:00Z</time>
      </trkpt>
      <trkpt lat="44.57219" lon="6.86533">
        <ele>2312.59</ele>
        <time>2015-03-27T09:30:04Z</time>
      </trkpt>
      <trkpt lat="44.57218" lon="6.86539">
        <ele>2313.07</ele>
        <time>2015-03-27T09:30:08Z</time>
      </trkpt>
      <trkpt lat="44.57212" lon="6.86561">
        <ele>2314.03</ele>
        <time>2015-03-27T09:30:25Z</time>
      </trkpt>
      <trkpt lat="44.5721" lon="6.86574">
        <ele>2314.99</ele>
        <time>2015-03-27T09:30:39Z</time>
      </trkpt>
      <trkpt lat="44.57208" lon="6.86585">
        <ele>2315.47</ele>
        <time>2015-03-27T09:31:07Z</time>
      </trkpt>
      <trkpt lat="44.57206" lon="6.86608">
        <ele>2317.4</ele>
        <time>2015-03-27T09:31:26Z</time>
      </trkpt>
      <trkpt lat="44.57203" lon="6.86632">
        <ele>2319.8</ele>
        <time>2015-03-27T09:31:46Z</time>
      </trkpt>
      <trkpt lat="44.57202" lon="6.86655">
        <ele>2321.72</ele>
        <time>2015-03-27T09:32:05Z</time>
      </trkpt>
      <trkpt lat="44.57198" lon="6.86675">
        <ele>2323.16</ele>
        <time>2015-03-27T09:32:23Z</time>
      </trkpt>
      <trkpt lat="44.57193" lon="6.86699">
        <ele>2324.12</ele>
        <time>2015-03-27T09:32:41Z</time>
      </trkpt>
      <trkpt lat="44.57186" lon="6.86712">
        <ele>2325.57</ele>
        <time>2015-03-27T09:32:56Z</time>
      </trkpt>
      <trkpt lat="44.57183" lon="6.86734">
        <ele>2327.49</ele>
        <time>2015-03-27T09:33:13Z</time>
      </trkpt>
      <trkpt lat="44.57176" lon="6.86751">
        <ele>2328.45</ele>
        <time>2015-03-27T09:33:28Z</time>
      </trkpt>
      <trkpt lat="44.57169" lon="6.86764">
        <ele>2329.89</ele>
        <time>2015-03-27T09:33:40Z</time>
      </trkpt>
      <trkpt lat="44.57163" lon="6.86782">
        <ele>2330.85</ele>
        <time>2015-03-27T09:33:56Z</time>
      </trkpt>
      <trkpt lat="44.57154" lon="6.86802">
        <ele>2332.3</ele>
        <time>2015-03-27T09:34:14Z</time>
      </trkpt>
      <trkpt lat="44.57152" lon="6.86804">
        <ele>2332.3</ele>
        <time>2015-03-27T09:34:30Z</time>
      </trkpt>
      <trkpt lat="44.57151" lon="6.86807">
        <ele>2332.3</ele>
        <time>2015-03-27T09:34:36Z</time>
      </trkpt>
      <trkpt lat="44.5714" lon="6.86827">
        <ele>2334.22</ele>
        <time>2015-03-27T09:34:55Z</time>
      </trkpt>
      <trkpt lat="44.57127" lon="6.86842">
        <ele>2335.66</ele>
        <time>2015-03-27T09:35:11Z</time>
      </trkpt>
      <trkpt lat="44.57113" lon="6.86854">
        <ele>2337.1</ele>
        <time>2015-03-27T09:35:26Z</time>
      </trkpt>
      <trkpt lat="44.57101" lon="6.86867">
        <ele>2338.06</ele>
        <time>2015-03-27T09:35:43Z</time>
      </trkpt>
      <trkpt lat="44.57087" lon="6.86878">
        <ele>2339.51</ele>
        <time>2015-03-27T09:36:02Z</time>
      </trkpt>
      <trkpt lat="44.57079" lon="6.86884">
        <ele>2340.47</ele>
        <time>2015-03-27T09:36:18Z</time>
      </trkpt>
      <trkpt lat="44.5707" lon="6.86888">
        <ele>2341.91</ele>
        <time>2015-03-27T09:36:34Z</time>
      </trkpt>
      <trkpt lat="44.57065" lon="6.86892">
        <ele>2341.91</ele>
        <time>2015-03-27T09:36:51Z</time>
      </trkpt>
      <trkpt lat="44.57061" lon="6.86892">
        <ele>2339.99</ele>
        <time>2015-03-27T09:37:20Z</time>
      </trkpt>
      <trkpt lat="44.57051" lon="6.869">
        <ele>2341.43</ele>
        <time>2015-03-27T09:37:32Z</time>
      </trkpt>
      <trkpt lat="44.57039" lon="6.86913">
        <ele>2343.83</ele>
        <time>2015-03-27T09:37:49Z</time>
      </trkpt>
      <trkpt lat="44.57027" lon="6.86927">
        <ele>2346.23</ele>
        <time>2015-03-27T09:38:07Z</time>
      </trkpt>
      <trkpt lat="44.57015" lon="6.86938">
        <ele>2347.68</ele>
        <time>2015-03-27T09:38:25Z</time>
      </trkpt>
      <trkpt lat="44.57005" lon="6.86947">
        <ele>2350.08</ele>
        <time>2015-03-27T09:38:39Z</time>
      </trkpt>
      <trkpt lat="44.56998" lon="6.86953">
        <ele>2351.04</ele>
        <time>2015-03-27T09:38:56Z</time>
      </trkpt>
      <trkpt lat="44.56998" lon="6.86955">
        <ele>2352.48</ele>
        <time>2015-03-27T09:39:08Z</time>
      </trkpt>
      <trkpt lat="44.56998" lon="6.86956">
        <ele>2350.56</ele>
        <time>2015-03-27T09:39:12Z</time>
      </trkpt>
      <trkpt lat="44.56998" lon="6.86957">
        <ele>2352</ele>
        <time>2015-03-27T09:39:17Z</time>
      </trkpt>
      <trkpt lat="44.56991" lon="6.86966">
        <ele>2354.41</ele>
        <time>2015-03-27T09:39:34Z</time>
      </trkpt>
      <trkpt lat="44.56981" lon="6.86976">
        <ele>2356.81</ele>
        <time>2015-03-27T09:39:51Z</time>
      </trkpt>
      <trkpt lat="44.56972" lon="6.86984">
        <ele>2359.21</ele>
        <time>2015-03-27T09:40:05Z</time>
      </trkpt>
      <trkpt lat="44.5696" lon="6.86992">
        <ele>2361.62</ele>
        <time>2015-03-27T09:40:25Z</time>
      </trkpt>
      <trkpt lat="44.56951" lon="6.86999">
        <ele>2363.54</ele>
        <time>2015-03-27T09:40:43Z</time>
      </trkpt>
      <trkpt lat="44.56946" lon="6.87002">
        <ele>2364.5</ele>
        <time>2015-03-27T09:40:58Z</time>
      </trkpt>
      <trkpt lat="44.56936" lon="6.87007">
        <ele>2365.94</ele>
        <time>2015-03-27T09:41:14Z</time>
      </trkpt>
      <trkpt lat="44.56927" lon="6.87011">
        <ele>2367.38</ele>
        <time>2015-03-27T09:41:30Z</time>
      </trkpt>
      <trkpt lat="44.56916" lon="6.87014">
        <ele>2369.79</ele>
        <time>2015-03-27T09:41:47Z</time>
      </trkpt>
      <trkpt lat="44.5691" lon="6.87014">
        <ele>2372.67</ele>
        <time>2015-03-27T09:41:59Z</time>
      </trkpt>
      <trkpt lat="44.5691" lon="6.87013">
        <ele>2372.67</ele>
        <time>2015-03-27T09:42:00Z</time>
      </trkpt>
      <trkpt lat="44.5691" lon="6.87014">
        <ele>2372.19</ele>
        <time>2015-03-27T09:42:17Z</time>
      </trkpt>
      <trkpt lat="44.56901" lon="6.87013">
        <ele>2370.75</ele>
        <time>2015-03-27T09:42:29Z</time>
      </trkpt>
      <trkpt lat="44.56895" lon="6.87012">
        <ele>2369.31</ele>
        <time>2015-03-27T09:42:37Z</time>
      </trkpt>
      <trkpt lat="44.56894" lon="6.87013">
        <ele>2369.31</ele>
        <time>2015-03-27T09:42:38Z</time>
      </trkpt>
      <trkpt lat="44.56893" lon="6.87013">
        <ele>2369.31</ele>
        <time>2015-03-27T09:42:39Z</time>
      </trkpt>
      <trkpt lat="44.56887" lon="6.87012">
        <ele>2369.79</ele>
        <time>2015-03-27T09:42:45Z</time>
      </trkpt>
      <trkpt lat="44.56873" lon="6.87011">
        <ele>2367.86</ele>
        <time>2015-03-27T09:42:57Z</time>
      </trkpt>
      <trkpt lat="44.56867" lon="6.87015">
        <ele>2368.83</ele>
        <time>2015-03-27T09:43:09Z</time>
      </trkpt>
      <trkpt lat="44.56867" lon="6.87015">
        <ele>2370.27</ele>
        <time>2015-03-27T09:43:35Z</time>
      </trkpt>
      <trkpt lat="44.56868" lon="6.87015">
        <ele>2370.75</ele>
        <time>2015-03-27T09:44:05Z</time>
      </trkpt>
      <trkpt lat="44.56869" lon="6.87015">
        <ele>2369.31</ele>
        <time>2015-03-27T09:44:26Z</time>
      </trkpt>
      <trkpt lat="44.56865" lon="6.87015">
        <ele>2367.86</ele>
        <time>2015-03-27T09:44:52Z</time>
      </trkpt>
      <trkpt lat="44.56852" lon="6.87">
        <ele>2366.42</ele>
        <time>2015-03-27T09:45:06Z</time>
      </trkpt>
      <trkpt lat="44.5684" lon="6.86988">
        <ele>2365.94</ele>
        <time>2015-03-27T09:45:21Z</time>
      </trkpt>
      <trkpt lat="44.56827" lon="6.86972">
        <ele>2364.02</ele>
        <time>2015-03-27T09:45:37Z</time>
      </trkpt>
      <trkpt lat="44.56826" lon="6.86968">
        <ele>2364.02</ele>
        <time>2015-03-27T09:46:00Z</time>
      </trkpt>
      <trkpt lat="44.56828" lon="6.86969">
        <ele>2364.02</ele>
        <time>2015-03-27T09:46:38Z</time>
      </trkpt>
      <trkpt lat="44.56828" lon="6.86971">
        <ele>2364.98</ele>
        <time>2015-03-27T09:47:05Z</time>
      </trkpt>
      <trkpt lat="44.56827" lon="6.86971">
        <ele>2365.46</ele>
        <time>2015-03-27T09:47:37Z</time>
      </trkpt>
      <trkpt lat="44.56817" lon="6.86981">
        <ele>2366.42</ele>
        <time>2015-03-27T09:47:55Z</time>
      </trkpt>
      <trkpt lat="44.56809" lon="6.8699">
        <ele>2367.86</ele>
        <time>2015-03-27T09:48:04Z</time>
      </trkpt>
      <trkpt lat="44.56793" lon="6.87006">
        <ele>2371.71</ele>
        <time>2015-03-27T09:48:22Z</time>
      </trkpt>
      <trkpt lat="44.56786" lon="6.87018">
        <ele>2372.67</ele>
        <time>2015-03-27T09:48:37Z</time>
      </trkpt>
      <trkpt lat="44.56779" lon="6.87051">
        <ele>2372.67</ele>
        <time>2015-03-27T09:48:59Z</time>
      </trkpt>
      <trkpt lat="44.56777" lon="6.87078">
        <ele>2375.07</ele>
        <time>2015-03-27T09:49:20Z</time>
      </trkpt>
      <trkpt lat="44.56775" lon="6.87103">
        <ele>2375.55</ele>
        <time>2015-03-27T09:49:38Z</time>
      </trkpt>
      <trkpt lat="44.56777" lon="6.87111">
        <ele>2376.04</ele>
        <time>2015-03-27T09:50:00Z</time>
      </trkpt>
      <trkpt lat="44.56782" lon="6.87112">
        <ele>2376.04</ele>
        <time>2015-03-27T09:50:27Z</time>
      </trkpt>
      <trkpt lat="44.56781" lon="6.87112">
        <ele>2375.07</ele>
        <time>2015-03-27T09:50:41Z</time>
      </trkpt>
      <trkpt lat="44.56781" lon="6.87113">
        <ele>2375.07</ele>
        <time>2015-03-27T09:50:50Z</time>
      </trkpt>
      <trkpt lat="44.5678" lon="6.87111">
        <ele>2375.55</ele>
        <time>2015-03-27T09:51:07Z</time>
      </trkpt>
      <trkpt lat="44.5678" lon="6.8711">
        <ele>2375.55</ele>
        <time>2015-03-27T09:51:08Z</time>
      </trkpt>
      <trkpt lat="44.5678" lon="6.87103">
        <ele>2374.59</ele>
        <time>2015-03-27T09:51:11Z</time>
      </trkpt>
      <trkpt lat="44.5678" lon="6.87071">
        <ele>2373.15</ele>
        <time>2015-03-27T09:51:27Z</time>
      </trkpt>
      <trkpt lat="44.56782" lon="6.87047">
        <ele>2372.67</ele>
        <time>2015-03-27T09:51:40Z</time>
      </trkpt>
      <trkpt lat="44.56786" lon="6.87028">
        <ele>2374.59</ele>
        <time>2015-03-27T09:51:55Z</time>
      </trkpt>
      <trkpt lat="44.56786" lon="6.87027">
        <ele>2374.11</ele>
        <time>2015-03-27T09:51:59Z</time>
      </trkpt>
      <trkpt lat="44.56786" lon="6.87027">
        <ele>2372.67</ele>
        <time>2015-03-27T09:52:06Z</time>
      </trkpt>
      <trkpt lat="44.56788" lon="6.87029">
        <ele>2373.63</ele>
        <time>2015-03-27T09:52:22Z</time>
      </trkpt>
      <trkpt lat="44.56789" lon="6.87026">
        <ele>2373.15</ele>
        <time>2015-03-27T09:53:02Z</time>
      </trkpt>
      <trkpt lat="44.56789" lon="6.87026">
        <ele>2370.75</ele>
        <time>2015-03-27T09:53:10Z</time>
      </trkpt>
      <trkpt lat="44.56789" lon="6.87024">
        <ele>2372.67</ele>
        <time>2015-03-27T09:53:12Z</time>
      </trkpt>
      <trkpt lat="44.5679" lon="6.87018">
        <ele>2370.75</ele>
        <time>2015-03-27T09:53:16Z</time>
      </trkpt>
      <trkpt lat="44.56796" lon="6.86994">
        <ele>2368.35</ele>
        <time>2015-03-27T09:53:29Z</time>
      </trkpt>
      <trkpt lat="44.56799" lon="6.86981">
        <ele>2366.42</ele>
        <time>2015-03-27T09:53:34Z</time>
      </trkpt>
      <trkpt lat="44.56801" lon="6.86968">
        <ele>2364.5</ele>
        <time>2015-03-27T09:53:40Z</time>
      </trkpt>
      <trkpt lat="44.56802" lon="6.86947">
        <ele>2361.62</ele>
        <time>2015-03-27T09:53:49Z</time>
      </trkpt>
      <trkpt lat="44.56807" lon="6.8693">
        <ele>2358.73</ele>
        <time>2015-03-27T09:53:57Z</time>
      </trkpt>
      <trkpt lat="44.56807" lon="6.86929">
        <ele>2358.73</ele>
        <time>2015-03-27T09:53:58Z</time>
      </trkpt>
      <trkpt lat="44.56797" lon="6.86921">
        <ele>2362.1</ele>
        <time>2015-03-27T09:54:11Z</time>
      </trkpt>
      <trkpt lat="44.56793" lon="6.8692">
        <ele>2362.1</ele>
        <time>2015-03-27T09:54:26Z</time>
      </trkpt>
      <trkpt lat="44.56788" lon="6.86915">
        <ele>2364.02</ele>
        <time>2015-03-27T09:54:43Z</time>
      </trkpt>
      <trkpt lat="44.56786" lon="6.86912">
        <ele>2364.98</ele>
        <time>2015-03-27T09:55:10Z</time>
      </trkpt>
      <trkpt lat="44.56787" lon="6.86909">
        <ele>2363.54</ele>
        <time>2015-03-27T09:55:31Z</time>
      </trkpt>
      <trkpt lat="44.56781" lon="6.86901">
        <ele>2365.46</ele>
        <time>2015-03-27T09:55:44Z</time>
      </trkpt>
      <trkpt lat="44.5677" lon="6.86886">
        <ele>2367.86</ele>
        <time>2015-03-27T09:56:03Z</time>
      </trkpt>
      <trkpt lat="44.56763" lon="6.86874">
        <ele>2371.23</ele>
        <time>2015-03-27T09:56:21Z</time>
      </trkpt>
      <trkpt lat="44.56756" lon="6.86861">
        <ele>2372.67</ele>
        <time>2015-03-27T09:56:39Z</time>
      </trkpt>
      <trkpt lat="44.5675" lon="6.86844">
        <ele>2375.07</ele>
        <time>2015-03-27T09:56:56Z</time>
      </trkpt>
      <trkpt lat="44.5675" lon="6.86828">
        <ele>2378.44</ele>
        <time>2015-03-27T09:57:14Z</time>
      </trkpt>
      <trkpt lat="44.5675" lon="6.86821">
        <ele>2381.8</ele>
        <time>2015-03-27T09:57:22Z</time>
      </trkpt>
      <trkpt lat="44.56753" lon="6.86812">
        <ele>2384.69</ele>
        <time>2015-03-27T09:57:32Z</time>
      </trkpt>
      <trkpt lat="44.56754" lon="6.86801">
        <ele>2388.05</ele>
        <time>2015-03-27T09:57:45Z</time>
      </trkpt>
      <trkpt lat="44.56757" lon="6.8679">
        <ele>2391.42</ele>
        <time>2015-03-27T09:58:00Z</time>
      </trkpt>
      <trkpt lat="44.5676" lon="6.8678">
        <ele>2394.78</ele>
        <time>2015-03-27T09:58:13Z</time>
      </trkpt>
      <trkpt lat="44.56762" lon="6.86769">
        <ele>2397.67</ele>
        <time>2015-03-27T09:58:29Z</time>
      </trkpt>
      <trkpt lat="44.56763" lon="6.86758">
        <ele>2400.55</ele>
        <time>2015-03-27T09:58:42Z</time>
      </trkpt>
      <trkpt lat="44.56765" lon="6.86745">
        <ele>2403.91</ele>
        <time>2015-03-27T09:58:59Z</time>
      </trkpt>
      <trkpt lat="44.56766" lon="6.86742">
        <ele>2404.88</ele>
        <time>2015-03-27T09:59:22Z</time>
      </trkpt>
      <trkpt lat="44.5677" lon="6.86744">
        <ele>2405.36</ele>
        <time>2015-03-27T09:59:55Z</time>
      </trkpt>
      <trkpt lat="44.56771" lon="6.86748">
        <ele>2404.88</ele>
        <time>2015-03-27T10:00:29Z</time>
      </trkpt>
      <trkpt lat="44.56771" lon="6.86745">
        <ele>2403.91</ele>
        <time>2015-03-27T10:00:45Z</time>
      </trkpt>
      <trkpt lat="44.56771" lon="6.86734">
        <ele>2406.8</ele>
        <time>2015-03-27T10:00:58Z</time>
      </trkpt>
      <trkpt lat="44.56763" lon="6.86726">
        <ele>2410.16</ele>
        <time>2015-03-27T10:01:12Z</time>
      </trkpt>
      <trkpt lat="44.56765" lon="6.86716">
        <ele>2412.57</ele>
        <time>2015-03-27T10:01:27Z</time>
      </trkpt>
      <trkpt lat="44.5677" lon="6.86712">
        <ele>2414.49</ele>
        <time>2015-03-27T10:01:45Z</time>
      </trkpt>
      <trkpt lat="44.56777" lon="6.86701">
        <ele>2417.85</ele>
        <time>2015-03-27T10:02:03Z</time>
      </trkpt>
      <trkpt lat="44.56784" lon="6.86687">
        <ele>2419.78</ele>
        <time>2015-03-27T10:02:19Z</time>
      </trkpt>
      <trkpt lat="44.56792" lon="6.8667">
        <ele>2421.7</ele>
        <time>2015-03-27T10:02:39Z</time>
      </trkpt>
      <trkpt lat="44.56793" lon="6.86668">
        <ele>2422.18</ele>
        <time>2015-03-27T10:02:41Z</time>
      </trkpt>
      <trkpt lat="44.56799" lon="6.86648">
        <ele>2423.14</ele>
        <time>2015-03-27T10:02:58Z</time>
      </trkpt>
      <trkpt lat="44.56806" lon="6.86622">
        <ele>2422.66</ele>
        <time>2015-03-27T10:03:17Z</time>
      </trkpt>
      <trkpt lat="44.56814" lon="6.86597">
        <ele>2425.06</ele>
        <time>2015-03-27T10:03:36Z</time>
      </trkpt>
      <trkpt lat="44.56822" lon="6.8658">
        <ele>2426.99</ele>
        <time>2015-03-27T10:03:53Z</time>
      </trkpt>
      <trkpt lat="44.5683" lon="6.8656">
        <ele>2429.39</ele>
        <time>2015-03-27T10:04:12Z</time>
      </trkpt>
      <trkpt lat="44.56835" lon="6.86542">
        <ele>2430.83</ele>
        <time>2015-03-27T10:04:36Z</time>
      </trkpt>
      <trkpt lat="44.56837" lon="6.86536">
        <ele>2432.27</ele>
        <time>2015-03-27T10:04:56Z</time>
      </trkpt>
      <trkpt lat="44.56839" lon="6.8653">
        <ele>2432.27</ele>
        <time>2015-03-27T10:05:23Z</time>
      </trkpt>
      <trkpt lat="44.56838" lon="6.86524">
        <ele>2434.2</ele>
        <time>2015-03-27T10:05:45Z</time>
      </trkpt>
      <trkpt lat="44.56837" lon="6.86521">
        <ele>2433.71</ele>
        <time>2015-03-27T10:06:20Z</time>
      </trkpt>
      <trkpt lat="44.56836" lon="6.86524">
        <ele>2432.27</ele>
        <time>2015-03-27T10:06:41Z</time>
      </trkpt>
      <trkpt lat="44.56837" lon="6.86521">
        <ele>2431.31</ele>
        <time>2015-03-27T10:07:17Z</time>
      </trkpt>
      <trkpt lat="44.56837" lon="6.86522">
        <ele>2429.87</ele>
        <time>2015-03-27T10:07:24Z</time>
      </trkpt>
      <trkpt lat="44.56836" lon="6.86514">
        <ele>2433.71</ele>
        <time>2015-03-27T10:07:34Z</time>
      </trkpt>
      <trkpt lat="44.56836" lon="6.86512">
        <ele>2432.27</ele>
        <time>2015-03-27T10:07:35Z</time>
      </trkpt>
      <trkpt lat="44.56835" lon="6.86508">
        <ele>2430.83</ele>
        <time>2015-03-27T10:07:38Z</time>
      </trkpt>
      <trkpt lat="44.56835" lon="6.86503">
        <ele>2432.75</ele>
        <time>2015-03-27T10:07:41Z</time>
      </trkpt>
      <trkpt lat="44.56831" lon="6.86484">
        <ele>2435.16</ele>
        <time>2015-03-27T10:07:56Z</time>
      </trkpt>
      <trkpt lat="44.5683" lon="6.86474">
        <ele>2436.12</ele>
        <time>2015-03-27T10:08:03Z</time>
      </trkpt>
      <trkpt lat="44.56829" lon="6.86453">
        <ele>2439</ele>
        <time>2015-03-27T10:08:19Z</time>
      </trkpt>
      <trkpt lat="44.56832" lon="6.8643">
        <ele>2439.96</ele>
        <time>2015-03-27T10:08:37Z</time>
      </trkpt>
      <trkpt lat="44.56836" lon="6.86415">
        <ele>2443.33</ele>
        <time>2015-03-27T10:08:51Z</time>
      </trkpt>
      <trkpt lat="44.56838" lon="6.86403">
        <ele>2446.69</ele>
        <time>2015-03-27T10:09:07Z</time>
      </trkpt>
      <trkpt lat="44.5683" lon="6.86401">
        <ele>2447.65</ele>
        <time>2015-03-27T10:09:25Z</time>
      </trkpt>
      <trkpt lat="44.56821" lon="6.86404">
        <ele>2450.54</ele>
        <time>2015-03-27T10:09:42Z</time>
      </trkpt>
      <trkpt lat="44.56813" lon="6.86411">
        <ele>2453.9</ele>
        <time>2015-03-27T10:09:58Z</time>
      </trkpt>
      <trkpt lat="44.56809" lon="6.86411">
        <ele>2451.98</ele>
        <time>2015-03-27T10:10:09Z</time>
      </trkpt>
      <trkpt lat="44.5681" lon="6.86408">
        <ele>2453.9</ele>
        <time>2015-03-27T10:10:13Z</time>
      </trkpt>
      <trkpt lat="44.56813" lon="6.86397">
        <ele>2457.27</ele>
        <time>2015-03-27T10:10:32Z</time>
      </trkpt>
      <trkpt lat="44.56818" lon="6.86381">
        <ele>2459.19</ele>
        <time>2015-03-27T10:10:52Z</time>
      </trkpt>
      <trkpt lat="44.56824" lon="6.86367">
        <ele>2462.55</ele>
        <time>2015-03-27T10:11:12Z</time>
      </trkpt>
      <trkpt lat="44.56827" lon="6.86361">
        <ele>2463.52</ele>
        <time>2015-03-27T10:11:27Z</time>
      </trkpt>
      <trkpt lat="44.56828" lon="6.86354">
        <ele>2464</ele>
        <time>2015-03-27T10:11:49Z</time>
      </trkpt>
      <trkpt lat="44.56828" lon="6.8635">
        <ele>2465.92</ele>
        <time>2015-03-27T10:12:17Z</time>
      </trkpt>
      <trkpt lat="44.56828" lon="6.86351">
        <ele>2464.48</ele>
        <time>2015-03-27T10:12:20Z</time>
      </trkpt>
      <trkpt lat="44.5682" lon="6.86346">
        <ele>2464.48</ele>
        <time>2015-03-27T10:12:41Z</time>
      </trkpt>
      <trkpt lat="44.56812" lon="6.86336">
        <ele>2467.36</ele>
        <time>2015-03-27T10:12:55Z</time>
      </trkpt>
      <trkpt lat="44.56799" lon="6.86323">
        <ele>2470.24</ele>
        <time>2015-03-27T10:13:12Z</time>
      </trkpt>
      <trkpt lat="44.568" lon="6.86308">
        <ele>2472.17</ele>
        <time>2015-03-27T10:13:31Z</time>
      </trkpt>
      <trkpt lat="44.56804" lon="6.86301">
        <ele>2475.05</ele>
        <time>2015-03-27T10:13:48Z</time>
      </trkpt>
      <trkpt lat="44.56804" lon="6.863">
        <ele>2476.01</ele>
        <time>2015-03-27T10:13:50Z</time>
      </trkpt>
      <trkpt lat="44.56804" lon="6.863">
        <ele>2474.09</ele>
        <time>2015-03-27T10:13:53Z</time>
      </trkpt>
      <trkpt lat="44.56808" lon="6.86302">
        <ele>2473.61</ele>
        <time>2015-03-27T10:14:28Z</time>
      </trkpt>
      <trkpt lat="44.56808" lon="6.86289">
        <ele>2477.45</ele>
        <time>2015-03-27T10:14:49Z</time>
      </trkpt>
      <trkpt lat="44.56809" lon="6.86272">
        <ele>2479.38</ele>
        <time>2015-03-27T10:15:04Z</time>
      </trkpt>
      <trkpt lat="44.56808" lon="6.86261">
        <ele>2480.34</ele>
        <time>2015-03-27T10:15:24Z</time>
      </trkpt>
      <trkpt lat="44.56804" lon="6.86256">
        <ele>2481.3</ele>
        <time>2015-03-27T10:15:53Z</time>
      </trkpt>
      <trkpt lat="44.56795" lon="6.86252">
        <ele>2484.66</ele>
        <time>2015-03-27T10:16:05Z</time>
      </trkpt>
      <trkpt lat="44.56779" lon="6.86246">
        <ele>2487.07</ele>
        <time>2015-03-27T10:16:22Z</time>
      </trkpt>
      <trkpt lat="44.56767" lon="6.8624">
        <ele>2489.47</ele>
        <time>2015-03-27T10:16:37Z</time>
      </trkpt>
      <trkpt lat="44.56756" lon="6.86238">
        <ele>2492.36</ele>
        <time>2015-03-27T10:16:56Z</time>
      </trkpt>
      <trkpt lat="44.5675" lon="6.8623">
        <ele>2495.24</ele>
        <time>2015-03-27T10:17:09Z</time>
      </trkpt>
      <trkpt lat="44.5674" lon="6.86225">
        <ele>2498.12</ele>
        <time>2015-03-27T10:17:26Z</time>
      </trkpt>
      <trkpt lat="44.5673" lon="6.8622">
        <ele>2501.01</ele>
        <time>2015-03-27T10:17:43Z</time>
      </trkpt>
      <trkpt lat="44.5672" lon="6.86218">
        <ele>2503.41</ele>
        <time>2015-03-27T10:17:59Z</time>
      </trkpt>
      <trkpt lat="44.5672" lon="6.86218">
        <ele>2502.93</ele>
        <time>2015-03-27T10:18:11Z</time>
      </trkpt>
      <trkpt lat="44.56721" lon="6.86219">
        <ele>2501.01</ele>
        <time>2015-03-27T10:18:48Z</time>
      </trkpt>
      <trkpt lat="44.56717" lon="6.86219">
        <ele>2501.97</ele>
        <time>2015-03-27T10:19:08Z</time>
      </trkpt>
      <trkpt lat="44.56715" lon="6.86219">
        <ele>2501.97</ele>
        <time>2015-03-27T10:19:11Z</time>
      </trkpt>
      <trkpt lat="44.567" lon="6.86221">
        <ele>2502.93</ele>
        <time>2015-03-27T10:19:27Z</time>
      </trkpt>
      <trkpt lat="44.567" lon="6.8622">
        <ele>2502.93</ele>
        <time>2015-03-27T10:19:32Z</time>
      </trkpt>
      <trkpt lat="44.56684" lon="6.8622">
        <ele>2503.41</ele>
        <time>2015-03-27T10:19:47Z</time>
      </trkpt>
      <trkpt lat="44.56668" lon="6.86223">
        <ele>2506.29</ele>
        <time>2015-03-27T10:20:03Z</time>
      </trkpt>
      <trkpt lat="44.56653" lon="6.86225">
        <ele>2508.22</ele>
        <time>2015-03-27T10:20:17Z</time>
      </trkpt>
      <trkpt lat="44.56636" lon="6.86226">
        <ele>2509.66</ele>
        <time>2015-03-27T10:20:33Z</time>
      </trkpt>
      <trkpt lat="44.56621" lon="6.86228">
        <ele>2511.1</ele>
        <time>2015-03-27T10:20:48Z</time>
      </trkpt>
      <trkpt lat="44.56606" lon="6.86232">
        <ele>2512.54</ele>
        <time>2015-03-27T10:21:03Z</time>
      </trkpt>
      <trkpt lat="44.56592" lon="6.86236">
        <ele>2513.98</ele>
        <time>2015-03-27T10:21:17Z</time>
      </trkpt>
      <trkpt lat="44.5658" lon="6.86238">
        <ele>2514.95</ele>
        <time>2015-03-27T10:21:32Z</time>
      </trkpt>
      <trkpt lat="44.56566" lon="6.86237">
        <ele>2515.91</ele>
        <time>2015-03-27T10:21:47Z</time>
      </trkpt>
      <trkpt lat="44.56553" lon="6.86238">
        <ele>2516.87</ele>
        <time>2015-03-27T10:22:02Z</time>
      </trkpt>
      <trkpt lat="44.56541" lon="6.8624">
        <ele>2517.83</ele>
        <time>2015-03-27T10:22:17Z</time>
      </trkpt>
      <trkpt lat="44.56542" lon="6.86242">
        <ele>2519.27</ele>
        <time>2015-03-27T10:22:41Z</time>
      </trkpt>
      <trkpt lat="44.5653" lon="6.86243">
        <ele>2519.27</ele>
        <time>2015-03-27T10:23:00Z</time>
      </trkpt>
      <trkpt lat="44.56517" lon="6.8624">
        <ele>2519.75</ele>
        <time>2015-03-27T10:23:15Z</time>
      </trkpt>
      <trkpt lat="44.56507" lon="6.8624">
        <ele>2520.23</ele>
        <time>2015-03-27T10:23:28Z</time>
      </trkpt>
      <trkpt lat="44.56495" lon="6.8624">
        <ele>2521.19</ele>
        <time>2015-03-27T10:23:41Z</time>
      </trkpt>
      <trkpt lat="44.56484" lon="6.86242">
        <ele>2522.64</ele>
        <time>2015-03-27T10:23:53Z</time>
      </trkpt>
      <trkpt lat="44.56471" lon="6.86244">
        <ele>2524.08</ele>
        <time>2015-03-27T10:24:07Z</time>
      </trkpt>
      <trkpt lat="44.56459" lon="6.86245">
        <ele>2526</ele>
        <time>2015-03-27T10:24:23Z</time>
      </trkpt>
      <trkpt lat="44.56458" lon="6.86245">
        <ele>2526.48</ele>
        <time>2015-03-27T10:24:38Z</time>
      </trkpt>
      <trkpt lat="44.56458" lon="6.86245">
        <ele>2526.96</ele>
        <time>2015-03-27T10:25:05Z</time>
      </trkpt>
      <trkpt lat="44.56458" lon="6.86246">
        <ele>2525.52</ele>
        <time>2015-03-27T10:25:34Z</time>
      </trkpt>
      <trkpt lat="44.56454" lon="6.86248">
        <ele>2524.08</ele>
        <time>2015-03-27T10:26:08Z</time>
      </trkpt>
      <trkpt lat="44.56449" lon="6.86251">
        <ele>2524.08</ele>
        <time>2015-03-27T10:26:34Z</time>
      </trkpt>
      <trkpt lat="44.5645" lon="6.86249">
        <ele>2524.08</ele>
        <time>2015-03-27T10:27:08Z</time>
      </trkpt>
      <trkpt lat="44.56447" lon="6.8625">
        <ele>2525.52</ele>
        <time>2015-03-27T10:27:36Z</time>
      </trkpt>
      <trkpt lat="44.56447" lon="6.8625">
        <ele>2524.56</ele>
        <time>2015-03-27T10:27:39Z</time>
      </trkpt>
      <trkpt lat="44.56446" lon="6.86251">
        <ele>2526</ele>
        <time>2015-03-27T10:27:51Z</time>
      </trkpt>
      <trkpt lat="44.56444" lon="6.86252">
        <ele>2527.44</ele>
        <time>2015-03-27T10:28:24Z</time>
      </trkpt>
      <trkpt lat="44.56434" lon="6.86259">
        <ele>2528.4</ele>
        <time>2015-03-27T10:28:42Z</time>
      </trkpt>
      <trkpt lat="44.56418" lon="6.86268">
        <ele>2528.89</ele>
        <time>2015-03-27T10:29:03Z</time>
      </trkpt>
      <trkpt lat="44.56404" lon="6.86278">
        <ele>2528.89</ele>
        <time>2015-03-27T10:29:23Z</time>
      </trkpt>
      <trkpt lat="44.5639" lon="6.86286">
        <ele>2530.33</ele>
        <time>2015-03-27T10:29:45Z</time>
      </trkpt>
      <trkpt lat="44.56379" lon="6.86292">
        <ele>2531.77</ele>
        <time>2015-03-27T10:30:04Z</time>
      </trkpt>
      <trkpt lat="44.56373" lon="6.86298">
        <ele>2532.25</ele>
        <time>2015-03-27T10:30:20Z</time>
      </trkpt>
      <trkpt lat="44.56373" lon="6.86297">
        <ele>2531.77</ele>
        <time>2015-03-27T10:30:34Z</time>
      </trkpt>
      <trkpt lat="44.56365" lon="6.86301">
        <ele>2530.81</ele>
        <time>2015-03-27T10:30:48Z</time>
      </trkpt>
      <trkpt lat="44.56362" lon="6.86303">
        <ele>2530.81</ele>
        <time>2015-03-27T10:31:05Z</time>
      </trkpt>
      <trkpt lat="44.56355" lon="6.8631">
        <ele>2530.81</ele>
        <time>2015-03-27T10:31:21Z</time>
      </trkpt>
      <trkpt lat="44.5634" lon="6.86321">
        <ele>2529.37</ele>
        <time>2015-03-27T10:31:38Z</time>
      </trkpt>
      <trkpt lat="44.5634" lon="6.86323">
        <ele>2529.37</ele>
        <time>2015-03-27T10:31:47Z</time>
      </trkpt>
      <trkpt lat="44.56324" lon="6.86336">
        <ele>2527.92</ele>
        <time>2015-03-27T10:32:04Z</time>
      </trkpt>
      <trkpt lat="44.56308" lon="6.86349">
        <ele>2528.4</ele>
        <time>2015-03-27T10:32:21Z</time>
      </trkpt>
      <trkpt lat="44.56294" lon="6.8636">
        <ele>2528.4</ele>
        <time>2015-03-27T10:32:35Z</time>
      </trkpt>
      <trkpt lat="44.56277" lon="6.86372">
        <ele>2528.4</ele>
        <time>2015-03-27T10:32:50Z</time>
      </trkpt>
      <trkpt lat="44.56262" lon="6.86381">
        <ele>2529.85</ele>
        <time>2015-03-27T10:33:06Z</time>
      </trkpt>
      <trkpt lat="44.56261" lon="6.86381">
        <ele>2529.85</ele>
        <time>2015-03-27T10:33:07Z</time>
      </trkpt>
      <trkpt lat="44.56254" lon="6.86384">
        <ele>2532.73</ele>
        <time>2015-03-27T10:33:16Z</time>
      </trkpt>
      <trkpt lat="44.56237" lon="6.86389">
        <ele>2533.69</ele>
        <time>2015-03-27T10:33:33Z</time>
      </trkpt>
      <trkpt lat="44.56231" lon="6.86389">
        <ele>2533.21</ele>
        <time>2015-03-27T10:33:49Z</time>
      </trkpt>
      <trkpt lat="44.56232" lon="6.86396">
        <ele>2532.73</ele>
        <time>2015-03-27T10:34:32Z</time>
      </trkpt>
      <trkpt lat="44.56222" lon="6.86395">
        <ele>2533.69</ele>
        <time>2015-03-27T10:34:50Z</time>
      </trkpt>
      <trkpt lat="44.56213" lon="6.86391">
        <ele>2535.13</ele>
        <time>2015-03-27T10:35:05Z</time>
      </trkpt>
      <trkpt lat="44.56206" lon="6.86395">
        <ele>2538.5</ele>
        <time>2015-03-27T10:35:17Z</time>
      </trkpt>
      <trkpt lat="44.56202" lon="6.86388">
        <ele>2542.34</ele>
        <time>2015-03-27T10:35:28Z</time>
      </trkpt>
      <trkpt lat="44.56197" lon="6.86374">
        <ele>2544.27</ele>
        <time>2015-03-27T10:35:44Z</time>
      </trkpt>
      <trkpt lat="44.56187" lon="6.86373">
        <ele>2547.15</ele>
        <time>2015-03-27T10:36:03Z</time>
      </trkpt>
      <trkpt lat="44.56177" lon="6.86377">
        <ele>2550.03</ele>
        <time>2015-03-27T10:36:19Z</time>
      </trkpt>
      <trkpt lat="44.56165" lon="6.86382">
        <ele>2552.44</ele>
        <time>2015-03-27T10:36:40Z</time>
      </trkpt>
      <trkpt lat="44.56158" lon="6.86377">
        <ele>2555.32</ele>
        <time>2015-03-27T10:36:58Z</time>
      </trkpt>
      <trkpt lat="44.56152" lon="6.8637">
        <ele>2556.28</ele>
        <time>2015-03-27T10:37:15Z</time>
      </trkpt>
      <trkpt lat="44.56148" lon="6.86363">
        <ele>2557.24</ele>
        <time>2015-03-27T10:37:30Z</time>
      </trkpt>
      <trkpt lat="44.5614" lon="6.8635">
        <ele>2559.65</ele>
        <time>2015-03-27T10:37:48Z</time>
      </trkpt>
      <trkpt lat="44.56133" lon="6.86339">
        <ele>2560.61</ele>
        <time>2015-03-27T10:38:02Z</time>
      </trkpt>
      <trkpt lat="44.56125" lon="6.8633">
        <ele>2562.53</ele>
        <time>2015-03-27T10:38:18Z</time>
      </trkpt>
      <trkpt lat="44.56117" lon="6.86324">
        <ele>2564.45</ele>
        <time>2015-03-27T10:38:34Z</time>
      </trkpt>
      <trkpt lat="44.56114" lon="6.86322">
        <ele>2564.45</ele>
        <time>2015-03-27T10:38:55Z</time>
      </trkpt>
      <trkpt lat="44.56112" lon="6.86323">
        <ele>2562.53</ele>
        <time>2015-03-27T10:39:26Z</time>
      </trkpt>
      <trkpt lat="44.56109" lon="6.86325">
        <ele>2562.53</ele>
        <time>2015-03-27T10:39:30Z</time>
      </trkpt>
      <trkpt lat="44.56095" lon="6.86334">
        <ele>2563.01</ele>
        <time>2015-03-27T10:39:47Z</time>
      </trkpt>
      <trkpt lat="44.5608" lon="6.86339">
        <ele>2565.9</ele>
        <time>2015-03-27T10:40:05Z</time>
      </trkpt>
      <trkpt lat="44.56067" lon="6.86334">
        <ele>2569.26</ele>
        <time>2015-03-27T10:40:22Z</time>
      </trkpt>
      <trkpt lat="44.56062" lon="6.86326">
        <ele>2572.14</ele>
        <time>2015-03-27T10:40:34Z</time>
      </trkpt>
      <trkpt lat="44.56059" lon="6.86316">
        <ele>2575.51</ele>
        <time>2015-03-27T10:40:47Z</time>
      </trkpt>
      <trkpt lat="44.5605" lon="6.86308">
        <ele>2578.39</ele>
        <time>2015-03-27T10:41:07Z</time>
      </trkpt>
      <trkpt lat="44.56043" lon="6.86307">
        <ele>2579.84</ele>
        <time>2015-03-27T10:41:25Z</time>
      </trkpt>
      <trkpt lat="44.56037" lon="6.86308">
        <ele>2581.28</ele>
        <time>2015-03-27T10:41:43Z</time>
      </trkpt>
      <trkpt lat="44.5603" lon="6.86309">
        <ele>2583.2</ele>
        <time>2015-03-27T10:42:00Z</time>
      </trkpt>
      <trkpt lat="44.56021" lon="6.86311">
        <ele>2585.6</ele>
        <time>2015-03-27T10:42:22Z</time>
      </trkpt>
      <trkpt lat="44.56012" lon="6.86302">
        <ele>2587.04</ele>
        <time>2015-03-27T10:42:42Z</time>
      </trkpt>
      <trkpt lat="44.56008" lon="6.86291">
        <ele>2588.49</ele>
        <time>2015-03-27T10:42:58Z</time>
      </trkpt>
      <trkpt lat="44.56004" lon="6.86281">
        <ele>2590.89</ele>
        <time>2015-03-27T10:43:19Z</time>
      </trkpt>
      <trkpt lat="44.55997" lon="6.8627">
        <ele>2591.37</ele>
        <time>2015-03-27T10:43:36Z</time>
      </trkpt>
      <trkpt lat="44.55993" lon="6.86257">
        <ele>2593.77</ele>
        <time>2015-03-27T10:43:54Z</time>
      </trkpt>
      <trkpt lat="44.55988" lon="6.86247">
        <ele>2596.18</ele>
        <time>2015-03-27T10:44:12Z</time>
      </trkpt>
      <trkpt lat="44.55984" lon="6.86238">
        <ele>2597.62</ele>
        <time>2015-03-27T10:44:30Z</time>
      </trkpt>
      <trkpt lat="44.55978" lon="6.86228">
        <ele>2599.54</ele>
        <time>2015-03-27T10:44:48Z</time>
      </trkpt>
      <trkpt lat="44.55975" lon="6.86217">
        <ele>2602.91</ele>
        <time>2015-03-27T10:45:04Z</time>
      </trkpt>
      <trkpt lat="44.55977" lon="6.86202">
        <ele>2605.79</ele>
        <time>2015-03-27T10:45:23Z</time>
      </trkpt>
      <trkpt lat="44.55976" lon="6.86194">
        <ele>2606.75</ele>
        <time>2015-03-27T10:45:37Z</time>
      </trkpt>
      <trkpt lat="44.55974" lon="6.86185">
        <ele>2608.19</ele>
        <time>2015-03-27T10:45:55Z</time>
      </trkpt>
      <trkpt lat="44.5597" lon="6.86182">
        <ele>2610.12</ele>
        <time>2015-03-27T10:46:14Z</time>
      </trkpt>
      <trkpt lat="44.55962" lon="6.86189">
        <ele>2613</ele>
        <time>2015-03-27T10:46:38Z</time>
      </trkpt>
      <trkpt lat="44.55955" lon="6.86196">
        <ele>2614.44</ele>
        <time>2015-03-27T10:46:58Z</time>
      </trkpt>
      <trkpt lat="44.55951" lon="6.86201">
        <ele>2615.88</ele>
        <time>2015-03-27T10:47:13Z</time>
      </trkpt>
      <trkpt lat="44.55946" lon="6.86205">
        <ele>2617.81</ele>
        <time>2015-03-27T10:47:29Z</time>
      </trkpt>
      <trkpt lat="44.55942" lon="6.8621">
        <ele>2620.21</ele>
        <time>2015-03-27T10:47:45Z</time>
      </trkpt>
      <trkpt lat="44.55938" lon="6.86217">
        <ele>2622.61</ele>
        <time>2015-03-27T10:48:01Z</time>
      </trkpt>
      <trkpt lat="44.55934" lon="6.86222">
        <ele>2624.54</ele>
        <time>2015-03-27T10:48:17Z</time>
      </trkpt>
      <trkpt lat="44.55931" lon="6.8623">
        <ele>2626.46</ele>
        <time>2015-03-27T10:48:34Z</time>
      </trkpt>
      <trkpt lat="44.55929" lon="6.86236">
        <ele>2627.42</ele>
        <time>2015-03-27T10:48:50Z</time>
      </trkpt>
      <trkpt lat="44.55925" lon="6.86242">
        <ele>2628.38</ele>
        <time>2015-03-27T10:49:07Z</time>
      </trkpt>
      <trkpt lat="44.55922" lon="6.86246">
        <ele>2629.82</ele>
        <time>2015-03-27T10:49:23Z</time>
      </trkpt>
      <trkpt lat="44.55919" lon="6.86252">
        <ele>2631.27</ele>
        <time>2015-03-27T10:49:39Z</time>
      </trkpt>
      <trkpt lat="44.55914" lon="6.86258">
        <ele>2632.71</ele>
        <time>2015-03-27T10:49:57Z</time>
      </trkpt>
      <trkpt lat="44.55909" lon="6.86263">
        <ele>2634.15</ele>
        <time>2015-03-27T10:50:13Z</time>
      </trkpt>
      <trkpt lat="44.55905" lon="6.86269">
        <ele>2635.59</ele>
        <time>2015-03-27T10:50:29Z</time>
      </trkpt>
      <trkpt lat="44.55898" lon="6.8627">
        <ele>2637.51</ele>
        <time>2015-03-27T10:50:48Z</time>
      </trkpt>
      <trkpt lat="44.55892" lon="6.86267">
        <ele>2639.92</ele>
        <time>2015-03-27T10:51:05Z</time>
      </trkpt>
      <trkpt lat="44.55884" lon="6.86263">
        <ele>2642.32</ele>
        <time>2015-03-27T10:51:25Z</time>
      </trkpt>
      <trkpt lat="44.55879" lon="6.86261">
        <ele>2645.69</ele>
        <time>2015-03-27T10:51:36Z</time>
      </trkpt>
      <trkpt lat="44.55878" lon="6.86262">
        <ele>2647.61</ele>
        <time>2015-03-27T10:52:01Z</time>
      </trkpt>
      <trkpt lat="44.55871" lon="6.86256">
        <ele>2649.53</ele>
        <time>2015-03-27T10:52:18Z</time>
      </trkpt>
      <trkpt lat="44.55863" lon="6.8625">
        <ele>2652.9</ele>
        <time>2015-03-27T10:52:32Z</time>
      </trkpt>
      <trkpt lat="44.55856" lon="6.86242">
        <ele>2655.78</ele>
        <time>2015-03-27T10:52:49Z</time>
      </trkpt>
      <trkpt lat="44.55852" lon="6.86229">
        <ele>2658.66</ele>
        <time>2015-03-27T10:53:06Z</time>
      </trkpt>
      <trkpt lat="44.55849" lon="6.86224">
        <ele>2661.07</ele>
        <time>2015-03-27T10:53:21Z</time>
      </trkpt>
      <trkpt lat="44.55846" lon="6.8622">
        <ele>2662.03</ele>
        <time>2015-03-27T10:53:36Z</time>
      </trkpt>
      <trkpt lat="44.55846" lon="6.86206">
        <ele>2663.95</ele>
        <time>2015-03-27T10:53:54Z</time>
      </trkpt>
      <trkpt lat="44.55846" lon="6.86205">
        <ele>2664.91</ele>
        <time>2015-03-27T10:53:56Z</time>
      </trkpt>
      <trkpt lat="44.55846" lon="6.86197">
        <ele>2667.31</ele>
        <time>2015-03-27T10:54:12Z</time>
      </trkpt>
      <trkpt lat="44.55846" lon="6.8619">
        <ele>2671.16</ele>
        <time>2015-03-27T10:54:26Z</time>
      </trkpt>
      <trkpt lat="44.5584" lon="6.86195">
        <ele>2671.64</ele>
        <time>2015-03-27T10:54:41Z</time>
      </trkpt>
      <trkpt lat="44.55832" lon="6.862">
        <ele>2675.01</ele>
        <time>2015-03-27T10:54:57Z</time>
      </trkpt>
      <trkpt lat="44.55832" lon="6.86202">
        <ele>2675.01</ele>
        <time>2015-03-27T10:54:58Z</time>
      </trkpt>
      <trkpt lat="44.55828" lon="6.86205">
        <ele>2674.04</ele>
        <time>2015-03-27T10:55:05Z</time>
      </trkpt>
      <trkpt lat="44.55825" lon="6.86207">
        <ele>2675.49</ele>
        <time>2015-03-27T10:55:13Z</time>
      </trkpt>
      <trkpt lat="44.55816" lon="6.86214">
        <ele>2678.37</ele>
        <time>2015-03-27T10:55:32Z</time>
      </trkpt>
      <trkpt lat="44.55807" lon="6.86218">
        <ele>2680.77</ele>
        <time>2015-03-27T10:55:54Z</time>
      </trkpt>
      <trkpt lat="44.558" lon="6.86221">
        <ele>2680.29</ele>
        <time>2015-03-27T10:56:12Z</time>
      </trkpt>
      <trkpt lat="44.55795" lon="6.86223">
        <ele>2681.73</ele>
        <time>2015-03-27T10:56:20Z</time>
      </trkpt>
      <trkpt lat="44.55786" lon="6.86226">
        <ele>2684.62</ele>
        <time>2015-03-27T10:56:41Z</time>
      </trkpt>
      <trkpt lat="44.55777" lon="6.86227">
        <ele>2686.06</ele>
        <time>2015-03-27T10:56:59Z</time>
      </trkpt>
      <trkpt lat="44.55765" lon="6.86228">
        <ele>2689.91</ele>
        <time>2015-03-27T10:57:20Z</time>
      </trkpt>
      <trkpt lat="44.55755" lon="6.86228">
        <ele>2692.79</ele>
        <time>2015-03-27T10:57:38Z</time>
      </trkpt>
      <trkpt lat="44.55746" lon="6.86231">
        <ele>2694.71</ele>
        <time>2015-03-27T10:57:56Z</time>
      </trkpt>
      <trkpt lat="44.55735" lon="6.86229">
        <ele>2695.67</ele>
        <time>2015-03-27T10:58:18Z</time>
      </trkpt>
      <trkpt lat="44.55724" lon="6.86228">
        <ele>2698.08</ele>
        <time>2015-03-27T10:58:37Z</time>
      </trkpt>
      <trkpt lat="44.55714" lon="6.86227">
        <ele>2701.44</ele>
        <time>2015-03-27T10:58:55Z</time>
      </trkpt>
      <trkpt lat="44.55705" lon="6.86221">
        <ele>2704.33</ele>
        <time>2015-03-27T10:59:13Z</time>
      </trkpt>
      <trkpt lat="44.55698" lon="6.86219">
        <ele>2707.21</ele>
        <time>2015-03-27T10:59:31Z</time>
      </trkpt>
      <trkpt lat="44.55688" lon="6.86216">
        <ele>2710.57</ele>
        <time>2015-03-27T10:59:47Z</time>
      </trkpt>
      <trkpt lat="44.55679" lon="6.86217">
        <ele>2713.46</ele>
        <time>2015-03-27T11:00:07Z</time>
      </trkpt>
      <trkpt lat="44.55674" lon="6.86212">
        <ele>2716.34</ele>
        <time>2015-03-27T11:00:21Z</time>
      </trkpt>
      <trkpt lat="44.55667" lon="6.8621">
        <ele>2719.23</ele>
        <time>2015-03-27T11:00:38Z</time>
      </trkpt>
      <trkpt lat="44.55659" lon="6.8621">
        <ele>2719.23</ele>
        <time>2015-03-27T11:00:54Z</time>
      </trkpt>
      <trkpt lat="44.55649" lon="6.86211">
        <ele>2722.59</ele>
        <time>2015-03-27T11:01:13Z</time>
      </trkpt>
      <trkpt lat="44.55638" lon="6.86215">
        <ele>2725.48</ele>
        <time>2015-03-27T11:01:29Z</time>
      </trkpt>
      <trkpt lat="44.55627" lon="6.86217">
        <ele>2727.88</ele>
        <time>2015-03-27T11:01:48Z</time>
      </trkpt>
      <trkpt lat="44.55618" lon="6.86213">
        <ele>2730.28</ele>
        <time>2015-03-27T11:02:04Z</time>
      </trkpt>
      <trkpt lat="44.55607" lon="6.86211">
        <ele>2732.68</ele>
        <time>2015-03-27T11:02:26Z</time>
      </trkpt>
      <trkpt lat="44.55599" lon="6.86207">
        <ele>2733.65</ele>
        <time>2015-03-27T11:02:40Z</time>
      </trkpt>
      <trkpt lat="44.55589" lon="6.86203">
        <ele>2735.09</ele>
        <time>2015-03-27T11:02:58Z</time>
      </trkpt>
      <trkpt lat="44.55578" lon="6.86198">
        <ele>2735.57</ele>
        <time>2015-03-27T11:03:14Z</time>
      </trkpt>
      <trkpt lat="44.55561" lon="6.86197">
        <ele>2735.57</ele>
        <time>2015-03-27T11:03:34Z</time>
      </trkpt>
      <trkpt lat="44.55547" lon="6.86202">
        <ele>2737.97</ele>
        <time>2015-03-27T11:03:55Z</time>
      </trkpt>
      <trkpt lat="44.55535" lon="6.86202">
        <ele>2739.41</ele>
        <time>2015-03-27T11:04:16Z</time>
      </trkpt>
      <trkpt lat="44.55528" lon="6.86202">
        <ele>2739.89</ele>
        <time>2015-03-27T11:04:38Z</time>
      </trkpt>
      <trkpt lat="44.55528" lon="6.86204">
        <ele>2740.86</ele>
        <time>2015-03-27T11:05:08Z</time>
      </trkpt>
      <trkpt lat="44.55526" lon="6.86205">
        <ele>2740.86</ele>
        <time>2015-03-27T11:05:21Z</time>
      </trkpt>
      <trkpt lat="44.55518" lon="6.86203">
        <ele>2741.34</ele>
        <time>2015-03-27T11:05:37Z</time>
      </trkpt>
      <trkpt lat="44.55508" lon="6.86202">
        <ele>2744.22</ele>
        <time>2015-03-27T11:05:54Z</time>
      </trkpt>
      <trkpt lat="44.55495" lon="6.86195">
        <ele>2748.07</ele>
        <time>2015-03-27T11:06:09Z</time>
      </trkpt>
      <trkpt lat="44.55494" lon="6.86195">
        <ele>2748.07</ele>
        <time>2015-03-27T11:06:10Z</time>
      </trkpt>
      <trkpt lat="44.55494" lon="6.86193">
        <ele>2746.62</ele>
        <time>2015-03-27T11:06:15Z</time>
      </trkpt>
      <trkpt lat="44.55494" lon="6.86192">
        <ele>2743.26</ele>
        <time>2015-03-27T11:06:24Z</time>
      </trkpt>
      <trkpt lat="44.55491" lon="6.86187">
        <ele>2742.78</ele>
        <time>2015-03-27T11:06:41Z</time>
      </trkpt>
      <trkpt lat="44.55489" lon="6.86186">
        <ele>2741.82</ele>
        <time>2015-03-27T11:06:59Z</time>
      </trkpt>
      <trkpt lat="44.5549" lon="6.86188">
        <ele>2741.82</ele>
        <time>2015-03-27T11:07:19Z</time>
      </trkpt>
      <trkpt lat="44.55494" lon="6.86194">
        <ele>2741.34</ele>
        <time>2015-03-27T11:07:43Z</time>
      </trkpt>
      <trkpt lat="44.55492" lon="6.86193">
        <ele>2741.34</ele>
        <time>2015-03-27T11:08:05Z</time>
      </trkpt>
      <trkpt lat="44.55484" lon="6.86184">
        <ele>2743.26</ele>
        <time>2015-03-27T11:08:24Z</time>
      </trkpt>
      <trkpt lat="44.55477" lon="6.86178">
        <ele>2744.7</ele>
        <time>2015-03-27T11:08:41Z</time>
      </trkpt>
      <trkpt lat="44.55474" lon="6.86174">
        <ele>2747.1</ele>
        <time>2015-03-27T11:08:59Z</time>
      </trkpt>
      <trkpt lat="44.55466" lon="6.86169">
        <ele>2748.55</ele>
        <time>2015-03-27T11:09:15Z</time>
      </trkpt>
      <trkpt lat="44.55461" lon="6.86164">
        <ele>2748.55</ele>
        <time>2015-03-27T11:09:30Z</time>
      </trkpt>
      <trkpt lat="44.55453" lon="6.86157">
        <ele>2749.03</ele>
        <time>2015-03-27T11:09:46Z</time>
      </trkpt>
      <trkpt lat="44.55442" lon="6.86142">
        <ele>2749.99</ele>
        <time>2015-03-27T11:10:04Z</time>
      </trkpt>
      <trkpt lat="44.55435" lon="6.86135">
        <ele>2750.95</ele>
        <time>2015-03-27T11:10:21Z</time>
      </trkpt>
      <trkpt lat="44.55436" lon="6.86132">
        <ele>2749.99</ele>
        <time>2015-03-27T11:10:49Z</time>
      </trkpt>
      <trkpt lat="44.55437" lon="6.8613">
        <ele>2748.55</ele>
        <time>2015-03-27T11:11:15Z</time>
      </trkpt>
      <trkpt lat="44.55431" lon="6.86122">
        <ele>2750.47</ele>
        <time>2015-03-27T11:11:32Z</time>
      </trkpt>
      <trkpt lat="44.55423" lon="6.86112">
        <ele>2753.83</ele>
        <time>2015-03-27T11:11:48Z</time>
      </trkpt>
      <trkpt lat="44.55411" lon="6.86102">
        <ele>2757.2</ele>
        <time>2015-03-27T11:12:05Z</time>
      </trkpt>
      <trkpt lat="44.55399" lon="6.86095">
        <ele>2758.64</ele>
        <time>2015-03-27T11:12:21Z</time>
      </trkpt>
      <trkpt lat="44.55395" lon="6.86092">
        <ele>2757.2</ele>
        <time>2015-03-27T11:12:25Z</time>
      </trkpt>
      <trkpt lat="44.55383" lon="6.86083">
        <ele>2757.2</ele>
        <time>2015-03-27T11:12:42Z</time>
      </trkpt>
      <trkpt lat="44.55371" lon="6.86073">
        <ele>2759.12</ele>
        <time>2015-03-27T11:13:00Z</time>
      </trkpt>
      <trkpt lat="44.55362" lon="6.86068">
        <ele>2759.6</ele>
        <time>2015-03-27T11:13:15Z</time>
      </trkpt>
      <trkpt lat="44.55355" lon="6.86062">
        <ele>2760.56</ele>
        <time>2015-03-27T11:13:30Z</time>
      </trkpt>
      <trkpt lat="44.55349" lon="6.86053">
        <ele>2761.04</ele>
        <time>2015-03-27T11:13:46Z</time>
      </trkpt>
      <trkpt lat="44.55344" lon="6.8605">
        <ele>2761.52</ele>
        <time>2015-03-27T11:14:04Z</time>
      </trkpt>
      <trkpt lat="44.55337" lon="6.86042">
        <ele>2762</ele>
        <time>2015-03-27T11:14:24Z</time>
      </trkpt>
      <trkpt lat="44.55328" lon="6.86034">
        <ele>2761.52</ele>
        <time>2015-03-27T11:14:44Z</time>
      </trkpt>
      <trkpt lat="44.55326" lon="6.8603">
        <ele>2760.56</ele>
        <time>2015-03-27T11:14:50Z</time>
      </trkpt>
      <trkpt lat="44.55322" lon="6.86025">
        <ele>2760.56</ele>
        <time>2015-03-27T11:15:06Z</time>
      </trkpt>
      <trkpt lat="44.5532" lon="6.8602">
        <ele>2760.08</ele>
        <time>2015-03-27T11:15:39Z</time>
      </trkpt>
      <trkpt lat="44.55311" lon="6.86012">
        <ele>2760.08</ele>
        <time>2015-03-27T11:15:56Z</time>
      </trkpt>
      <trkpt lat="44.553" lon="6.86008">
        <ele>2762</ele>
        <time>2015-03-27T11:16:13Z</time>
      </trkpt>
      <trkpt lat="44.55289" lon="6.86003">
        <ele>2763.93</ele>
        <time>2015-03-27T11:16:30Z</time>
      </trkpt>
      <trkpt lat="44.55281" lon="6.86">
        <ele>2764.41</ele>
        <time>2015-03-27T11:16:48Z</time>
      </trkpt>
      <trkpt lat="44.55273" lon="6.85996">
        <ele>2766.33</ele>
        <time>2015-03-27T11:17:06Z</time>
      </trkpt>
      <trkpt lat="44.55262" lon="6.85995">
        <ele>2769.7</ele>
        <time>2015-03-27T11:17:28Z</time>
      </trkpt>
      <trkpt lat="44.55255" lon="6.86">
        <ele>2771.14</ele>
        <time>2015-03-27T11:17:43Z</time>
      </trkpt>
      <trkpt lat="44.5525" lon="6.86006">
        <ele>2772.58</ele>
        <time>2015-03-27T11:17:59Z</time>
      </trkpt>
      <trkpt lat="44.55243" lon="6.86016">
        <ele>2774.98</ele>
        <time>2015-03-27T11:18:16Z</time>
      </trkpt>
      <trkpt lat="44.55234" lon="6.86027">
        <ele>2776.91</ele>
        <time>2015-03-27T11:18:37Z</time>
      </trkpt>
      <trkpt lat="44.55227" lon="6.86034">
        <ele>2778.83</ele>
        <time>2015-03-27T11:18:54Z</time>
      </trkpt>
      <trkpt lat="44.55221" lon="6.86044">
        <ele>2782.19</ele>
        <time>2015-03-27T11:19:13Z</time>
      </trkpt>
      <trkpt lat="44.55213" lon="6.86054">
        <ele>2785.08</ele>
        <time>2015-03-27T11:19:35Z</time>
      </trkpt>
      <trkpt lat="44.55207" lon="6.86059">
        <ele>2787.96</ele>
        <time>2015-03-27T11:19:55Z</time>
      </trkpt>
      <trkpt lat="44.552" lon="6.8606">
        <ele>2790.36</ele>
        <time>2015-03-27T11:20:14Z</time>
      </trkpt>
      <trkpt lat="44.55195" lon="6.86062">
        <ele>2793.25</ele>
        <time>2015-03-27T11:20:30Z</time>
      </trkpt>
      <trkpt lat="44.5519" lon="6.86064">
        <ele>2796.13</ele>
        <time>2015-03-27T11:20:44Z</time>
      </trkpt>
      <trkpt lat="44.55189" lon="6.86063">
        <ele>2795.17</ele>
        <time>2015-03-27T11:20:51Z</time>
      </trkpt>
      <trkpt lat="44.55189" lon="6.86063">
        <ele>2796.61</ele>
        <time>2015-03-27T11:20:55Z</time>
      </trkpt>
      <trkpt lat="44.55189" lon="6.86061">
        <ele>2794.69</ele>
        <time>2015-03-27T11:21:00Z</time>
      </trkpt>
      <trkpt lat="44.55189" lon="6.86061">
        <ele>2796.13</ele>
        <time>2015-03-27T11:21:03Z</time>
      </trkpt>
      <trkpt lat="44.55191" lon="6.86062">
        <ele>2794.21</ele>
        <time>2015-03-27T11:21:44Z</time>
      </trkpt>
      <trkpt lat="44.55193" lon="6.86059">
        <ele>2795.17</ele>
        <time>2015-03-27T11:21:54Z</time>
      </trkpt>
      <trkpt lat="44.55194" lon="6.86059">
        <ele>2793.73</ele>
        <time>2015-03-27T11:21:57Z</time>
      </trkpt>
      <trkpt lat="44.55194" lon="6.8606">
        <ele>2795.17</ele>
        <time>2015-03-27T11:21:59Z</time>
      </trkpt>
      <trkpt lat="44.55198" lon="6.86062">
        <ele>2793.73</ele>
        <time>2015-03-27T11:22:15Z</time>
      </trkpt>
      <trkpt lat="44.55197" lon="6.86063">
        <ele>2797.09</ele>
        <time>2015-03-27T11:22:24Z</time>
      </trkpt>
      <trkpt lat="44.55197" lon="6.86063">
        <ele>2797.09</ele>
        <time>2015-03-27T11:22:25Z</time>
      </trkpt>
      <trkpt lat="44.55195" lon="6.86061">
        <ele>2795.65</ele>
        <time>2015-03-27T11:22:30Z</time>
      </trkpt>
      <trkpt lat="44.55193" lon="6.86061">
        <ele>2793.73</ele>
        <time>2015-03-27T11:22:33Z</time>
      </trkpt>
      <trkpt lat="44.55192" lon="6.86061">
        <ele>2792.29</ele>
        <time>2015-03-27T11:22:35Z</time>
      </trkpt>
      <trkpt lat="44.5519" lon="6.86061">
        <ele>2788.92</ele>
        <time>2015-03-27T11:22:44Z</time>
      </trkpt>
      <trkpt lat="44.5519" lon="6.86061">
        <ele>2788.92</ele>
        <time>2015-03-27T11:22:45Z</time>
      </trkpt>
      <trkpt lat="44.55191" lon="6.86064">
        <ele>2790.36</ele>
        <time>2015-03-27T11:22:57Z</time>
      </trkpt>
      <trkpt lat="44.55192" lon="6.86067">
        <ele>2793.25</ele>
        <time>2015-03-27T11:23:35Z</time>
      </trkpt>
      <trkpt lat="44.55186" lon="6.86057">
        <ele>2795.17</ele>
        <time>2015-03-27T11:23:51Z</time>
      </trkpt>
      <trkpt lat="44.55184" lon="6.86055">
        <ele>2795.65</ele>
        <time>2015-03-27T11:23:57Z</time>
      </trkpt>
      <trkpt lat="44.55179" lon="6.86049">
        <ele>2799.02</ele>
        <time>2015-03-27T11:24:06Z</time>
      </trkpt>
      <trkpt lat="44.5517" lon="6.86052">
        <ele>2802.86</ele>
        <time>2015-03-27T11:24:17Z</time>
      </trkpt>
      <trkpt lat="44.55165" lon="6.86054">
        <ele>2803.34</ele>
        <time>2015-03-27T11:24:26Z</time>
      </trkpt>
      <trkpt lat="44.55157" lon="6.86062">
        <ele>2807.19</ele>
        <time>2015-03-27T11:24:43Z</time>
      </trkpt>
      <trkpt lat="44.55151" lon="6.86064">
        <ele>2808.15</ele>
        <time>2015-03-27T11:24:55Z</time>
      </trkpt>
      <trkpt lat="44.55145" lon="6.86068">
        <ele>2811.51</ele>
        <time>2015-03-27T11:25:10Z</time>
      </trkpt>
      <trkpt lat="44.55139" lon="6.86067">
        <ele>2814.4</ele>
        <time>2015-03-27T11:25:24Z</time>
      </trkpt>
      <trkpt lat="44.55136" lon="6.8607">
        <ele>2817.28</ele>
        <time>2015-03-27T11:25:32Z</time>
      </trkpt>
      <trkpt lat="44.55132" lon="6.86073">
        <ele>2820.65</ele>
        <time>2015-03-27T11:25:44Z</time>
      </trkpt>
      <trkpt lat="44.55131" lon="6.86073">
        <ele>2822.09</ele>
        <time>2015-03-27T11:25:48Z</time>
      </trkpt>
      <trkpt lat="44.55128" lon="6.86069">
        <ele>2825.45</ele>
        <time>2015-03-27T11:26:00Z</time>
      </trkpt>
      <trkpt lat="44.55127" lon="6.86069">
        <ele>2825.93</ele>
        <time>2015-03-27T11:26:02Z</time>
      </trkpt>
      <trkpt lat="44.55124" lon="6.86066">
        <ele>2827.37</ele>
        <time>2015-03-27T11:26:18Z</time>
      </trkpt>
      <trkpt lat="44.55121" lon="6.86072">
        <ele>2829.78</ele>
        <time>2015-03-27T11:26:36Z</time>
      </trkpt>
      <trkpt lat="44.55117" lon="6.86078">
        <ele>2830.74</ele>
        <time>2015-03-27T11:26:53Z</time>
      </trkpt>
      <trkpt lat="44.55112" lon="6.86084">
        <ele>2830.74</ele>
        <time>2015-03-27T11:27:11Z</time>
      </trkpt>
      <trkpt lat="44.55108" lon="6.86089">
        <ele>2831.22</ele>
        <time>2015-03-27T11:27:28Z</time>
      </trkpt>
      <trkpt lat="44.55106" lon="6.86085">
        <ele>2832.18</ele>
        <time>2015-03-27T11:27:44Z</time>
      </trkpt>
      <trkpt lat="44.55107" lon="6.86074">
        <ele>2835.06</ele>
        <time>2015-03-27T11:28:04Z</time>
      </trkpt>
      <trkpt lat="44.55103" lon="6.86065">
        <ele>2838.43</ele>
        <time>2015-03-27T11:28:15Z</time>
      </trkpt>
      <trkpt lat="44.55098" lon="6.86058">
        <ele>2841.31</ele>
        <time>2015-03-27T11:28:23Z</time>
      </trkpt>
      <trkpt lat="44.5509" lon="6.8606">
        <ele>2845.16</ele>
        <time>2015-03-27T11:28:35Z</time>
      </trkpt>
      <trkpt lat="44.55089" lon="6.8606">
        <ele>2845.16</ele>
        <time>2015-03-27T11:28:36Z</time>
      </trkpt>
      <trkpt lat="44.55088" lon="6.86062">
        <ele>2847.08</ele>
        <time>2015-03-27T11:28:40Z</time>
      </trkpt>
      <trkpt lat="44.55082" lon="6.86067">
        <ele>2850.45</ele>
        <time>2015-03-27T11:28:55Z</time>
      </trkpt>
      <trkpt lat="44.55076" lon="6.86072">
        <ele>2852.85</ele>
        <time>2015-03-27T11:29:11Z</time>
      </trkpt>
      <trkpt lat="44.55071" lon="6.86065">
        <ele>2855.25</ele>
        <time>2015-03-27T11:29:27Z</time>
      </trkpt>
      <trkpt lat="44.55066" lon="6.86072">
        <ele>2859.1</ele>
        <time>2015-03-27T11:29:46Z</time>
      </trkpt>
      <trkpt lat="44.55063" lon="6.86078">
        <ele>2861.5</ele>
        <time>2015-03-27T11:30:03Z</time>
      </trkpt>
      <trkpt lat="44.5506" lon="6.86071">
        <ele>2862.94</ele>
        <time>2015-03-27T11:30:20Z</time>
      </trkpt>
      <trkpt lat="44.55052" lon="6.86059">
        <ele>2864.87</ele>
        <time>2015-03-27T11:30:38Z</time>
      </trkpt>
      <trkpt lat="44.55049" lon="6.86044">
        <ele>2867.75</ele>
        <time>2015-03-27T11:30:55Z</time>
      </trkpt>
      <trkpt lat="44.55045" lon="6.86025">
        <ele>2869.67</ele>
        <time>2015-03-27T11:31:12Z</time>
      </trkpt>
      <trkpt lat="44.55046" lon="6.8602">
        <ele>2871.11</ele>
        <time>2015-03-27T11:31:19Z</time>
      </trkpt>
      <trkpt lat="44.55049" lon="6.86006">
        <ele>2873.04</ele>
        <time>2015-03-27T11:31:39Z</time>
      </trkpt>
      <trkpt lat="44.5505" lon="6.85996">
        <ele>2875.92</ele>
        <time>2015-03-27T11:31:51Z</time>
      </trkpt>
      <trkpt lat="44.55045" lon="6.85995">
        <ele>2875.92</ele>
        <time>2015-03-27T11:32:02Z</time>
      </trkpt>
      <trkpt lat="44.55037" lon="6.86001">
        <ele>2877.36</ele>
        <time>2015-03-27T11:32:13Z</time>
      </trkpt>
      <trkpt lat="44.55025" lon="6.86008">
        <ele>2877.84</ele>
        <time>2015-03-27T11:32:28Z</time>
      </trkpt>
      <trkpt lat="44.55017" lon="6.86015">
        <ele>2880.25</ele>
        <time>2015-03-27T11:32:46Z</time>
      </trkpt>
      <trkpt lat="44.55011" lon="6.86019">
        <ele>2883.13</ele>
        <time>2015-03-27T11:33:01Z</time>
      </trkpt>
      <trkpt lat="44.55003" lon="6.86028">
        <ele>2885.53</ele>
        <time>2015-03-27T11:33:18Z</time>
      </trkpt>
      <trkpt lat="44.54996" lon="6.86038">
        <ele>2888.42</ele>
        <time>2015-03-27T11:33:36Z</time>
      </trkpt>
      <trkpt lat="44.54988" lon="6.86043">
        <ele>2891.78</ele>
        <time>2015-03-27T11:33:51Z</time>
      </trkpt>
      <trkpt lat="44.54982" lon="6.86049">
        <ele>2895.15</ele>
        <time>2015-03-27T11:34:03Z</time>
      </trkpt>
      <trkpt lat="44.54971" lon="6.86053">
        <ele>2898.03</ele>
        <time>2015-03-27T11:34:20Z</time>
      </trkpt>
      <trkpt lat="44.54966" lon="6.86062">
        <ele>2900.44</ele>
        <time>2015-03-27T11:34:36Z</time>
      </trkpt>
      <trkpt lat="44.54966" lon="6.86079">
        <ele>2903.32</ele>
        <time>2015-03-27T11:34:57Z</time>
      </trkpt>
      <trkpt lat="44.54967" lon="6.86086">
        <ele>2904.28</ele>
        <time>2015-03-27T11:35:17Z</time>
      </trkpt>
      <trkpt lat="44.5497" lon="6.86086">
        <ele>2900.92</ele>
        <time>2015-03-27T11:35:39Z</time>
      </trkpt>
      <trkpt lat="44.54966" lon="6.86087">
        <ele>2899.95</ele>
        <time>2015-03-27T11:36:14Z</time>
      </trkpt>
      <trkpt lat="44.54965" lon="6.86085">
        <ele>2899.47</ele>
        <time>2015-03-27T11:36:46Z</time>
      </trkpt>
      <trkpt lat="44.54962" lon="6.86093">
        <ele>2900.92</ele>
        <time>2015-03-27T11:36:57Z</time>
      </trkpt>
      <trkpt lat="44.5496" lon="6.86097">
        <ele>2903.32</ele>
        <time>2015-03-27T11:37:14Z</time>
      </trkpt>
      <trkpt lat="44.54952" lon="6.86084">
        <ele>2904.28</ele>
        <time>2015-03-27T11:37:30Z</time>
      </trkpt>
      <trkpt lat="44.54941" lon="6.86076">
        <ele>2906.68</ele>
        <time>2015-03-27T11:37:45Z</time>
      </trkpt>
      <trkpt lat="44.54937" lon="6.86095">
        <ele>2907.65</ele>
        <time>2015-03-27T11:38:03Z</time>
      </trkpt>
      <trkpt lat="44.54931" lon="6.86105">
        <ele>2910.05</ele>
        <time>2015-03-27T11:38:21Z</time>
      </trkpt>
      <trkpt lat="44.5493" lon="6.86098">
        <ele>2913.41</ele>
        <time>2015-03-27T11:38:36Z</time>
      </trkpt>
      <trkpt lat="44.54925" lon="6.86087">
        <ele>2917.26</ele>
        <time>2015-03-27T11:38:52Z</time>
      </trkpt>
      <trkpt lat="44.54921" lon="6.86078">
        <ele>2920.62</ele>
        <time>2015-03-27T11:39:03Z</time>
      </trkpt>
      <trkpt lat="44.54919" lon="6.86086">
        <ele>2923.99</ele>
        <time>2015-03-27T11:39:14Z</time>
      </trkpt>
      <trkpt lat="44.54915" lon="6.86094">
        <ele>2927.35</ele>
        <time>2015-03-27T11:39:28Z</time>
      </trkpt>
      <trkpt lat="44.54911" lon="6.86102">
        <ele>2928.79</ele>
        <time>2015-03-27T11:39:44Z</time>
      </trkpt>
      <trkpt lat="44.54908" lon="6.86102">
        <ele>2930.72</ele>
        <time>2015-03-27T11:40:01Z</time>
      </trkpt>
      <trkpt lat="44.54906" lon="6.8609">
        <ele>2932.16</ele>
        <time>2015-03-27T11:40:18Z</time>
      </trkpt>
      <trkpt lat="44.54905" lon="6.86087">
        <ele>2933.6</ele>
        <time>2015-03-27T11:40:23Z</time>
      </trkpt>
      <trkpt lat="44.54901" lon="6.86083">
        <ele>2936.97</ele>
        <time>2015-03-27T11:40:41Z</time>
      </trkpt>
      <trkpt lat="44.54898" lon="6.86095">
        <ele>2937.45</ele>
        <time>2015-03-27T11:40:57Z</time>
      </trkpt>
      <trkpt lat="44.54895" lon="6.86104">
        <ele>2938.41</ele>
        <time>2015-03-27T11:41:14Z</time>
      </trkpt>
      <trkpt lat="44.54894" lon="6.861">
        <ele>2938.41</ele>
        <time>2015-03-27T11:41:31Z</time>
      </trkpt>
      <trkpt lat="44.54894" lon="6.86094">
        <ele>2934.56</ele>
        <time>2015-03-27T11:41:40Z</time>
      </trkpt>
      <trkpt lat="44.54894" lon="6.86095">
        <ele>2934.08</ele>
        <time>2015-03-27T11:41:41Z</time>
      </trkpt>
      <trkpt lat="44.5489" lon="6.86101">
        <ele>2937.93</ele>
        <time>2015-03-27T11:41:52Z</time>
      </trkpt>
      <trkpt lat="44.54883" lon="6.86112">
        <ele>2938.89</ele>
        <time>2015-03-27T11:42:09Z</time>
      </trkpt>
      <trkpt lat="44.54881" lon="6.8611">
        <ele>2941.77</ele>
        <time>2015-03-27T11:42:22Z</time>
      </trkpt>
      <trkpt lat="44.54881" lon="6.86099">
        <ele>2945.14</ele>
        <time>2015-03-27T11:42:37Z</time>
      </trkpt>
      <trkpt lat="44.54885" lon="6.86091">
        <ele>2946.58</ele>
        <time>2015-03-27T11:42:55Z</time>
      </trkpt>
      <trkpt lat="44.54883" lon="6.86094">
        <ele>2949.46</ele>
        <time>2015-03-27T11:43:13Z</time>
      </trkpt>
      <trkpt lat="44.5488" lon="6.86101">
        <ele>2951.87</ele>
        <time>2015-03-27T11:43:23Z</time>
      </trkpt>
      <trkpt lat="44.54875" lon="6.86106">
        <ele>2955.23</ele>
        <time>2015-03-27T11:43:32Z</time>
      </trkpt>
      <trkpt lat="44.5487" lon="6.86114">
        <ele>2956.67</ele>
        <time>2015-03-27T11:43:49Z</time>
      </trkpt>
      <trkpt lat="44.54865" lon="6.8612">
        <ele>2957.15</ele>
        <time>2015-03-27T11:44:09Z</time>
      </trkpt>
      <trkpt lat="44.54868" lon="6.86105">
        <ele>2957.15</ele>
        <time>2015-03-27T11:44:32Z</time>
      </trkpt>
      <trkpt lat="44.54868" lon="6.86091">
        <ele>2959.08</ele>
        <time>2015-03-27T11:44:50Z</time>
      </trkpt>
      <trkpt lat="44.54873" lon="6.86087">
        <ele>2959.08</ele>
        <time>2015-03-27T11:45:09Z</time>
      </trkpt>
      <trkpt lat="44.54871" lon="6.86081">
        <ele>2958.59</ele>
        <time>2015-03-27T11:45:27Z</time>
      </trkpt>
      <trkpt lat="44.54868" lon="6.86084">
        <ele>2958.59</ele>
        <time>2015-03-27T11:45:37Z</time>
      </trkpt>
      <trkpt lat="44.54867" lon="6.86093">
        <ele>2958.11</ele>
        <time>2015-03-27T11:45:54Z</time>
      </trkpt>
      <trkpt lat="44.54866" lon="6.86095">
        <ele>2960.04</ele>
        <time>2015-03-27T11:45:57Z</time>
      </trkpt>
      <trkpt lat="44.54863" lon="6.86099">
        <ele>2963.4</ele>
        <time>2015-03-27T11:46:07Z</time>
      </trkpt>
      <trkpt lat="44.54863" lon="6.861">
        <ele>2963.4</ele>
        <time>2015-03-27T11:46:08Z</time>
      </trkpt>
      <trkpt lat="44.54862" lon="6.86101">
        <ele>2961</ele>
        <time>2015-03-27T11:46:10Z</time>
      </trkpt>
      <trkpt lat="44.5486" lon="6.86103">
        <ele>2961.48</ele>
        <time>2015-03-27T11:46:29Z</time>
      </trkpt>
      <trkpt lat="44.54863" lon="6.86093">
        <ele>2962.44</ele>
        <time>2015-03-27T11:46:48Z</time>
      </trkpt>
      <trkpt lat="44.54863" lon="6.86089">
        <ele>2964.36</ele>
        <time>2015-03-27T11:46:55Z</time>
      </trkpt>
      <trkpt lat="44.54863" lon="6.86083">
        <ele>2968.21</ele>
        <time>2015-03-27T11:47:05Z</time>
      </trkpt>
      <trkpt lat="44.54865" lon="6.86081">
        <ele>2968.21</ele>
        <time>2015-03-27T11:47:32Z</time>
      </trkpt>
      <trkpt lat="44.54864" lon="6.86077">
        <ele>2968.21</ele>
        <time>2015-03-27T11:47:49Z</time>
      </trkpt>
      <trkpt lat="44.54863" lon="6.86085">
        <ele>2967.25</ele>
        <time>2015-03-27T11:48:11Z</time>
      </trkpt>
      <trkpt lat="44.54862" lon="6.86093">
        <ele>2966.77</ele>
        <time>2015-03-27T11:48:28Z</time>
      </trkpt>
      <trkpt lat="44.54859" lon="6.86099">
        <ele>2968.21</ele>
        <time>2015-03-27T11:48:41Z</time>
      </trkpt>
      <trkpt lat="44.54856" lon="6.86099">
        <ele>2968.21</ele>
        <time>2015-03-27T11:49:00Z</time>
      </trkpt>
      <trkpt lat="44.54857" lon="6.86092">
        <ele>2967.73</ele>
        <time>2015-03-27T11:49:19Z</time>
      </trkpt>
      <trkpt lat="44.54858" lon="6.86087">
        <ele>2966.77</ele>
        <time>2015-03-27T11:49:38Z</time>
      </trkpt>
      <trkpt lat="44.54858" lon="6.86086">
        <ele>2970.13</ele>
        <time>2015-03-27T11:49:47Z</time>
      </trkpt>
      <trkpt lat="44.54859" lon="6.86083">
        <ele>2972.05</ele>
        <time>2015-03-27T11:50:10Z</time>
      </trkpt>
      <trkpt lat="44.54856" lon="6.86087">
        <ele>2973.98</ele>
        <time>2015-03-27T11:50:27Z</time>
      </trkpt>
      <trkpt lat="44.54852" lon="6.86092">
        <ele>2974.46</ele>
        <time>2015-03-27T11:50:45Z</time>
      </trkpt>
      <trkpt lat="44.5485" lon="6.86095">
        <ele>2975.9</ele>
        <time>2015-03-27T11:51:00Z</time>
      </trkpt>
      <trkpt lat="44.54854" lon="6.86091">
        <ele>2977.34</ele>
        <time>2015-03-27T11:51:19Z</time>
      </trkpt>
      <trkpt lat="44.54854" lon="6.86085">
        <ele>2979.74</ele>
        <time>2015-03-27T11:51:36Z</time>
      </trkpt>
      <trkpt lat="44.54855" lon="6.86086">
        <ele>2980.71</ele>
        <time>2015-03-27T11:51:46Z</time>
      </trkpt>
      <trkpt lat="44.54855" lon="6.86087">
        <ele>2980.22</ele>
        <time>2015-03-27T11:52:03Z</time>
      </trkpt>
      <trkpt lat="44.54855" lon="6.86083">
        <ele>2981.19</ele>
        <time>2015-03-27T11:52:16Z</time>
      </trkpt>
      <trkpt lat="44.54856" lon="6.86083">
        <ele>2981.19</ele>
        <time>2015-03-27T11:52:41Z</time>
      </trkpt>
      <trkpt lat="44.54857" lon="6.86085">
        <ele>2977.82</ele>
        <time>2015-03-27T11:52:54Z</time>
      </trkpt>
      <trkpt lat="44.54857" lon="6.86084">
        <ele>2976.86</ele>
        <time>2015-03-27T11:53:10Z</time>
      </trkpt>
      <trkpt lat="44.54857" lon="6.86084">
        <ele>2979.74</ele>
        <time>2015-03-27T11:53:18Z</time>
      </trkpt>
      <trkpt lat="44.54857" lon="6.86085">
        <ele>2979.26</ele>
        <time>2015-03-27T11:53:24Z</time>
      </trkpt>
      <trkpt lat="44.54858" lon="6.86085">
        <ele>2980.22</ele>
        <time>2015-03-27T11:53:43Z</time>
      </trkpt>
      <trkpt lat="44.54859" lon="6.86083">
        <ele>2982.63</ele>
        <time>2015-03-27T11:54:11Z</time>
      </trkpt>
      <trkpt lat="44.54858" lon="6.86081">
        <ele>2983.11</ele>
        <time>2015-03-27T11:54:32Z</time>
      </trkpt>
      <trkpt lat="44.54859" lon="6.8608">
        <ele>2983.59</ele>
        <time>2015-03-27T11:55:03Z</time>
      </trkpt>
      <trkpt lat="44.54859" lon="6.8608">
        <ele>2986.47</ele>
        <time>2015-03-27T11:55:31Z</time>
      </trkpt>
      <trkpt lat="44.5486" lon="6.86083">
        <ele>2988.4</ele>
        <time>2015-03-27T11:55:57Z</time>
      </trkpt>
      <trkpt lat="44.54862" lon="6.86083">
        <ele>2985.03</ele>
        <time>2015-03-27T11:56:09Z</time>
      </trkpt>
      <trkpt lat="44.5486" lon="6.86079">
        <ele>2982.15</ele>
        <time>2015-03-27T11:56:37Z</time>
      </trkpt>
      <trkpt lat="44.5486" lon="6.86079">
        <ele>2981.19</ele>
        <time>2015-03-27T11:56:39Z</time>
      </trkpt>
      <trkpt lat="44.5486" lon="6.86079">
        <ele>2981.67</ele>
        <time>2015-03-27T11:56:54Z</time>
      </trkpt>
      <trkpt lat="44.54861" lon="6.86081">
        <ele>2979.74</ele>
        <time>2015-03-27T11:56:59Z</time>
      </trkpt>
      <trkpt lat="44.54862" lon="6.86083">
        <ele>2980.71</ele>
        <time>2015-03-27T11:57:07Z</time>
      </trkpt>
      <trkpt lat="44.54861" lon="6.86085">
        <ele>2977.34</ele>
        <time>2015-03-27T11:57:11Z</time>
      </trkpt>
      <trkpt lat="44.54859" lon="6.86084">
        <ele>2976.38</ele>
        <time>2015-03-27T11:57:27Z</time>
      </trkpt>
      <trkpt lat="44.54859" lon="6.86084">
        <ele>2977.82</ele>
        <time>2015-03-27T11:57:39Z</time>
      </trkpt>
      <trkpt lat="44.54857" lon="6.86084">
        <ele>2980.71</ele>
        <time>2015-03-27T11:58:11Z</time>
      </trkpt>
      <trkpt lat="44.5486" lon="6.86086">
        <ele>2982.63</ele>
        <time>2015-03-27T11:58:40Z</time>
      </trkpt>
      <trkpt lat="44.54862" lon="6.86085">
        <ele>2982.15</ele>
        <time>2015-03-27T11:59:00Z</time>
      </trkpt>
      <trkpt lat="44.54862" lon="6.86084">
        <ele>2982.15</ele>
        <time>2015-03-27T11:59:12Z</time>
      </trkpt>
      <trkpt lat="44.54862" lon="6.86085">
        <ele>2981.67</ele>
        <time>2015-03-27T11:59:26Z</time>
      </trkpt>
      <trkpt lat="44.54863" lon="6.86084">
        <ele>2982.15</ele>
        <time>2015-03-27T11:59:39Z</time>
      </trkpt>
      <trkpt lat="44.54861" lon="6.86084">
        <ele>2976.86</ele>
        <time>2015-03-27T11:59:44Z</time>
      </trkpt>
      <trkpt lat="44.54861" lon="6.86084">
        <ele>2982.15</ele>
        <time>2015-03-27T11:59:45Z</time>
      </trkpt>
      <trkpt lat="44.54861" lon="6.86084">
        <ele>2978.78</ele>
        <time>2015-03-27T11:59:48Z</time>
      </trkpt>
      <trkpt lat="44.5486" lon="6.86084">
        <ele>2985.03</ele>
        <time>2015-03-27T11:59:50Z</time>
      </trkpt>
      <trkpt lat="44.5486" lon="6.86084">
        <ele>2981.19</ele>
        <time>2015-03-27T11:59:51Z</time>
      </trkpt>
      <trkpt lat="44.54859" lon="6.86086">
        <ele>2976.38</ele>
        <time>2015-03-27T12:00:04Z</time>
      </trkpt>
      <trkpt lat="44.54859" lon="6.86086">
        <ele>2976.38</ele>
        <time>2015-03-27T12:00:05Z</time>
      </trkpt>
      <trkpt lat="44.54859" lon="6.86086">
        <ele>2978.3</ele>
        <time>2015-03-27T12:00:07Z</time>
      </trkpt>
      <trkpt lat="44.5486" lon="6.86085">
        <ele>2979.26</ele>
        <time>2015-03-27T12:00:23Z</time>
      </trkpt>
      <trkpt lat="44.54861" lon="6.86085">
        <ele>2979.74</ele>
        <time>2015-03-27T12:00:30Z</time>
      </trkpt>
      <trkpt lat="44.5486" lon="6.86086">
        <ele>2982.15</ele>
        <time>2015-03-27T12:00:43Z</time>
      </trkpt>
      <trkpt lat="44.54861" lon="6.86086">
        <ele>2980.71</ele>
        <time>2015-03-27T12:00:48Z</time>
      </trkpt>
      <trkpt lat="44.54862" lon="6.86089">
        <ele>2981.19</ele>
        <time>2015-03-27T12:00:56Z</time>
      </trkpt>
      <trkpt lat="44.54863" lon="6.8609">
        <ele>2983.11</ele>
        <time>2015-03-27T12:01:09Z</time>
      </trkpt>
      <trkpt lat="44.54863" lon="6.86089">
        <ele>2981.67</ele>
        <time>2015-03-27T12:01:12Z</time>
      </trkpt>
      <trkpt lat="44.54863" lon="6.86086">
        <ele>2983.11</ele>
        <time>2015-03-27T12:01:32Z</time>
      </trkpt>
      <trkpt lat="44.54863" lon="6.86084">
        <ele>2983.11</ele>
        <time>2015-03-27T12:01:48Z</time>
      </trkpt>
      <trkpt lat="44.54864" lon="6.86085">
        <ele>2984.07</ele>
        <time>2015-03-27T12:02:08Z</time>
      </trkpt>
      <trkpt lat="44.54863" lon="6.86085">
        <ele>2984.55</ele>
        <time>2015-03-27T12:02:41Z</time>
      </trkpt>
      <trkpt lat="44.54863" lon="6.86086">
        <ele>2986.95</ele>
        <time>2015-03-27T12:02:49Z</time>
      </trkpt>
      <trkpt lat="44.54862" lon="6.86085">
        <ele>2983.59</ele>
        <time>2015-03-27T12:02:52Z</time>
      </trkpt>
      <trkpt lat="44.5486" lon="6.86081">
        <ele>2984.55</ele>
        <time>2015-03-27T12:03:23Z</time>
      </trkpt>
      <trkpt lat="44.54856" lon="6.86082">
        <ele>2984.07</ele>
        <time>2015-03-27T12:03:48Z</time>
      </trkpt>
      <trkpt lat="44.54855" lon="6.86084">
        <ele>2980.22</ele>
        <time>2015-03-27T12:04:16Z</time>
      </trkpt>
      <trkpt lat="44.54859" lon="6.86084">
        <ele>2979.74</ele>
        <time>2015-03-27T12:04:38Z</time>
      </trkpt>
      <trkpt lat="44.54859" lon="6.86085">
        <ele>2980.71</ele>
        <time>2015-03-27T12:04:53Z</time>
      </trkpt>
      <trkpt lat="44.54859" lon="6.86084">
        <ele>2983.11</ele>
        <time>2015-03-27T12:05:11Z</time>
      </trkpt>
      <trkpt lat="44.54855" lon="6.86085">
        <ele>2980.22</ele>
        <time>2015-03-27T12:05:25Z</time>
      </trkpt>
      <trkpt lat="44.54855" lon="6.86085">
        <ele>2980.22</ele>
        <time>2015-03-27T12:05:32Z</time>
      </trkpt>
      <trkpt lat="44.54856" lon="6.86084">
        <ele>2982.63</ele>
        <time>2015-03-27T12:05:51Z</time>
      </trkpt>
      <trkpt lat="44.54856" lon="6.86084">
        <ele>2986.95</ele>
        <time>2015-03-27T12:05:53Z</time>
      </trkpt>
      <trkpt lat="44.54856" lon="6.86083">
        <ele>2983.11</ele>
        <time>2015-03-27T12:05:59Z</time>
      </trkpt>
      <trkpt lat="44.54856" lon="6.86083">
        <ele>2981.19</ele>
        <time>2015-03-27T12:06:02Z</time>
      </trkpt>
      <trkpt lat="44.54857" lon="6.86083">
        <ele>2982.15</ele>
        <time>2015-03-27T12:06:13Z</time>
      </trkpt>
      <trkpt lat="44.54858" lon="6.86084">
        <ele>2985.51</ele>
        <time>2015-03-27T12:06:23Z</time>
      </trkpt>
      <trkpt lat="44.54859" lon="6.86084">
        <ele>2983.11</ele>
        <time>2015-03-27T12:06:27Z</time>
      </trkpt>
      <trkpt lat="44.5486" lon="6.86085">
        <ele>2981.19</ele>
        <time>2015-03-27T12:06:48Z</time>
      </trkpt>
      <trkpt lat="44.54859" lon="6.86086">
        <ele>2982.63</ele>
        <time>2015-03-27T12:06:52Z</time>
      </trkpt>
      <trkpt lat="44.5486" lon="6.86087">
        <ele>2980.22</ele>
        <time>2015-03-27T12:07:16Z</time>
      </trkpt>
      <trkpt lat="44.5486" lon="6.86084">
        <ele>2982.63</ele>
        <time>2015-03-27T12:07:36Z</time>
      </trkpt>
      <trkpt lat="44.54858" lon="6.86081">
        <ele>2980.22</ele>
        <time>2015-03-27T12:08:10Z</time>
      </trkpt>
      <trkpt lat="44.54859" lon="6.86081">
        <ele>2977.82</ele>
        <time>2015-03-27T12:08:35Z</time>
      </trkpt>
      <trkpt lat="44.54865" lon="6.86085">
        <ele>2979.74</ele>
        <time>2015-03-27T12:09:07Z</time>
      </trkpt>
      <trkpt lat="44.54865" lon="6.86086">
        <ele>2980.22</ele>
        <time>2015-03-27T12:09:28Z</time>
      </trkpt>
      <trkpt lat="44.54865" lon="6.86086">
        <ele>2983.11</ele>
        <time>2015-03-27T12:09:38Z</time>
      </trkpt>
      <trkpt lat="44.54864" lon="6.86084">
        <ele>2982.63</ele>
        <time>2015-03-27T12:09:55Z</time>
      </trkpt>
      <trkpt lat="44.54872" lon="6.86086">
        <ele>2980.71</ele>
        <time>2015-03-27T12:10:23Z</time>
      </trkpt>
      <trkpt lat="44.54872" lon="6.86086">
        <ele>2984.07</ele>
        <time>2015-03-27T12:10:24Z</time>
      </trkpt>
      <trkpt lat="44.54872" lon="6.86086">
        <ele>2980.22</ele>
        <time>2015-03-27T12:10:25Z</time>
      </trkpt>
      <trkpt lat="44.54872" lon="6.86085">
        <ele>2983.11</ele>
        <time>2015-03-27T12:10:31Z</time>
      </trkpt>
      <trkpt lat="44.54873" lon="6.86084">
        <ele>2981.19</ele>
        <time>2015-03-27T12:10:42Z</time>
      </trkpt>
      <trkpt lat="44.54873" lon="6.86084">
        <ele>2985.03</ele>
        <time>2015-03-27T12:10:43Z</time>
      </trkpt>
      <trkpt lat="44.54873" lon="6.86084">
        <ele>2983.11</ele>
        <time>2015-03-27T12:10:44Z</time>
      </trkpt>
      <trkpt lat="44.54873" lon="6.86085">
        <ele>2981.67</ele>
        <time>2015-03-27T12:11:13Z</time>
      </trkpt>
      <trkpt lat="44.5487" lon="6.86087">
        <ele>2983.11</ele>
        <time>2015-03-27T12:11:39Z</time>
      </trkpt>
      <trkpt lat="44.54869" lon="6.86086">
        <ele>2985.99</ele>
        <time>2015-03-27T12:12:04Z</time>
      </trkpt>
      <trkpt lat="44.54867" lon="6.86085">
        <ele>2983.11</ele>
        <time>2015-03-27T12:12:27Z</time>
      </trkpt>
      <trkpt lat="44.54865" lon="6.86085">
        <ele>2980.22</ele>
        <time>2015-03-27T12:12:46Z</time>
      </trkpt>
      <trkpt lat="44.54865" lon="6.86085">
        <ele>2978.78</ele>
        <time>2015-03-27T12:12:48Z</time>
      </trkpt>
      <trkpt lat="44.54865" lon="6.86085">
        <ele>2981.67</ele>
        <time>2015-03-27T12:12:54Z</time>
      </trkpt>
      <trkpt lat="44.54865" lon="6.86085">
        <ele>2984.07</ele>
        <time>2015-03-27T12:12:57Z</time>
      </trkpt>
      <trkpt lat="44.54866" lon="6.86084">
        <ele>2981.19</ele>
        <time>2015-03-27T12:13:01Z</time>
      </trkpt>
      <trkpt lat="44.54866" lon="6.86086">
        <ele>2978.78</ele>
        <time>2015-03-27T12:13:13Z</time>
      </trkpt>
      <trkpt lat="44.54866" lon="6.86086">
        <ele>2982.63</ele>
        <time>2015-03-27T12:13:14Z</time>
      </trkpt>
      <trkpt lat="44.54866" lon="6.86086">
        <ele>2979.26</ele>
        <time>2015-03-27T12:13:15Z</time>
      </trkpt>
      <trkpt lat="44.54867" lon="6.86085">
        <ele>2979.74</ele>
        <time>2015-03-27T12:13:25Z</time>
      </trkpt>
      <trkpt lat="44.54867" lon="6.86085">
        <ele>2978.78</ele>
        <time>2015-03-27T12:13:28Z</time>
      </trkpt>
      <trkpt lat="44.54867" lon="6.86085">
        <ele>2979.74</ele>
        <time>2015-03-27T12:13:32Z</time>
      </trkpt>
      <trkpt lat="44.54867" lon="6.86085">
        <ele>2978.3</ele>
        <time>2015-03-27T12:13:34Z</time>
      </trkpt>
      <trkpt lat="44.54866" lon="6.86085">
        <ele>2979.74</ele>
        <time>2015-03-27T12:13:38Z</time>
      </trkpt>
      <trkpt lat="44.54866" lon="6.86085">
        <ele>2978.78</ele>
        <time>2015-03-27T12:13:40Z</time>
      </trkpt>
      <trkpt lat="44.54866" lon="6.86085">
        <ele>2980.22</ele>
        <time>2015-03-27T12:13:43Z</time>
      </trkpt>
      <trkpt lat="44.54866" lon="6.86086">
        <ele>2982.15</ele>
        <time>2015-03-27T12:13:45Z</time>
      </trkpt>
      <trkpt lat="44.54866" lon="6.86085">
        <ele>2980.71</ele>
        <time>2015-03-27T12:13:58Z</time>
      </trkpt>
      <trkpt lat="44.54866" lon="6.86086">
        <ele>2979.26</ele>
        <time>2015-03-27T12:14:26Z</time>
      </trkpt>
      <trkpt lat="44.54867" lon="6.86086">
        <ele>2980.71</ele>
        <time>2015-03-27T12:14:33Z</time>
      </trkpt>
      <trkpt lat="44.54867" lon="6.86086">
        <ele>2982.15</ele>
        <time>2015-03-27T12:14:37Z</time>
      </trkpt>
      <trkpt lat="44.54868" lon="6.86087">
        <ele>2983.11</ele>
        <time>2015-03-27T12:14:53Z</time>
      </trkpt>
      <trkpt lat="44.54868" lon="6.86088">
        <ele>2984.55</ele>
        <time>2015-03-27T12:15:26Z</time>
      </trkpt>
      <trkpt lat="44.54868" lon="6.86085">
        <ele>2987.43</ele>
        <time>2015-03-27T12:15:49Z</time>
      </trkpt>
      <trkpt lat="44.5487" lon="6.86085">
        <ele>2989.84</ele>
        <time>2015-03-27T12:16:17Z</time>
      </trkpt>
      <trkpt lat="44.54869" lon="6.86085">
        <ele>2989.84</ele>
        <time>2015-03-27T12:16:43Z</time>
      </trkpt>
      <trkpt lat="44.54874" lon="6.86083">
        <ele>2989.84</ele>
        <time>2015-03-27T12:17:13Z</time>
      </trkpt>
      <trkpt lat="44.54873" lon="6.86084">
        <ele>2989.36</ele>
        <time>2015-03-27T12:17:19Z</time>
      </trkpt>
      <trkpt lat="44.54872" lon="6.86085">
        <ele>2987.43</ele>
        <time>2015-03-27T12:17:50Z</time>
      </trkpt>
      <trkpt lat="44.54873" lon="6.86084">
        <ele>2989.36</ele>
        <time>2015-03-27T12:17:57Z</time>
      </trkpt>
      <trkpt lat="44.54871" lon="6.86087">
        <ele>2990.32</ele>
        <time>2015-03-27T12:18:30Z</time>
      </trkpt>
      <trkpt lat="44.54871" lon="6.86087">
        <ele>2988.4</ele>
        <time>2015-03-27T12:18:35Z</time>
      </trkpt>
      <trkpt lat="44.54871" lon="6.86087">
        <ele>2989.36</ele>
        <time>2015-03-27T12:18:49Z</time>
      </trkpt>
      <trkpt lat="44.5487" lon="6.86086">
        <ele>2986.95</ele>
        <time>2015-03-27T12:19:02Z</time>
      </trkpt>
      <trkpt lat="44.5487" lon="6.86086">
        <ele>2988.4</ele>
        <time>2015-03-27T12:19:05Z</time>
      </trkpt>
      <trkpt lat="44.5487" lon="6.86086">
        <ele>2986.47</ele>
        <time>2015-03-27T12:19:08Z</time>
      </trkpt>
      <trkpt lat="44.54869" lon="6.86087">
        <ele>2986.47</ele>
        <time>2015-03-27T12:19:16Z</time>
      </trkpt>
      <trkpt lat="44.54866" lon="6.86084">
        <ele>2983.11</ele>
        <time>2015-03-27T12:19:35Z</time>
      </trkpt>
      <trkpt lat="44.54867" lon="6.86085">
        <ele>2980.71</ele>
        <time>2015-03-27T12:19:42Z</time>
      </trkpt>
      <trkpt lat="44.54867" lon="6.86085">
        <ele>2984.07</ele>
        <time>2015-03-27T12:19:49Z</time>
      </trkpt>
      <trkpt lat="44.54868" lon="6.86087">
        <ele>2982.63</ele>
        <time>2015-03-27T12:19:58Z</time>
      </trkpt>
      <trkpt lat="44.54869" lon="6.86086">
        <ele>2982.63</ele>
        <time>2015-03-27T12:20:15Z</time>
      </trkpt>
      <trkpt lat="44.54869" lon="6.86086">
        <ele>2980.71</ele>
        <time>2015-03-27T12:20:42Z</time>
      </trkpt>
      <trkpt lat="44.5487" lon="6.86086">
        <ele>2982.15</ele>
        <time>2015-03-27T12:20:49Z</time>
      </trkpt>
      <trkpt lat="44.54873" lon="6.86088">
        <ele>2984.55</ele>
        <time>2015-03-27T12:21:17Z</time>
      </trkpt>
      <trkpt lat="44.54879" lon="6.8609">
        <ele>2980.71</ele>
        <time>2015-03-27T12:21:47Z</time>
      </trkpt>
      <trkpt lat="44.5488" lon="6.86091">
        <ele>2980.71</ele>
        <time>2015-03-27T12:21:48Z</time>
      </trkpt>
      <trkpt lat="44.54883" lon="6.86091">
        <ele>2981.67</ele>
        <time>2015-03-27T12:21:54Z</time>
      </trkpt>
      <trkpt lat="44.54884" lon="6.86093">
        <ele>2993.68</ele>
        <time>2015-03-27T12:22:08Z</time>
      </trkpt>
      <trkpt lat="44.54885" lon="6.86092">
        <ele>2985.99</ele>
        <time>2015-03-27T12:22:09Z</time>
      </trkpt>
      <trkpt lat="44.54885" lon="6.86092">
        <ele>2985.51</ele>
        <time>2015-03-27T12:22:11Z</time>
      </trkpt>
      <trkpt lat="44.54885" lon="6.86092">
        <ele>2986.95</ele>
        <time>2015-03-27T12:22:13Z</time>
      </trkpt>
      <trkpt lat="44.54874" lon="6.86087">
        <ele>2988.88</ele>
        <time>2015-03-27T12:22:49Z</time>
      </trkpt>
      <trkpt lat="44.54867" lon="6.86093">
        <ele>2987.43</ele>
        <time>2015-03-27T12:23:02Z</time>
      </trkpt>
      <trkpt lat="44.54862" lon="6.8609">
        <ele>2988.88</ele>
        <time>2015-03-27T12:23:12Z</time>
      </trkpt>
      <trkpt lat="44.54868" lon="6.8609">
        <ele>2989.36</ele>
        <time>2015-03-27T12:23:39Z</time>
      </trkpt>
      <trkpt lat="44.54871" lon="6.86088">
        <ele>2988.88</ele>
        <time>2015-03-27T12:23:42Z</time>
      </trkpt>
      <trkpt lat="44.54863" lon="6.86085">
        <ele>2987.43</ele>
        <time>2015-03-27T12:24:05Z</time>
      </trkpt>
      <trkpt lat="44.5486" lon="6.86085">
        <ele>2988.88</ele>
        <time>2015-03-27T12:24:10Z</time>
      </trkpt>
      <trkpt lat="44.5486" lon="6.86087">
        <ele>2985.03</ele>
        <time>2015-03-27T12:24:16Z</time>
      </trkpt>
      <trkpt lat="44.54861" lon="6.86089">
        <ele>2983.59</ele>
        <time>2015-03-27T12:24:20Z</time>
      </trkpt>
      <trkpt lat="44.54863" lon="6.8609">
        <ele>2977.82</ele>
        <time>2015-03-27T12:24:22Z</time>
      </trkpt>
      <trkpt lat="44.54868" lon="6.86094">
        <ele>2973.01</ele>
        <time>2015-03-27T12:24:24Z</time>
      </trkpt>
      <trkpt lat="44.54872" lon="6.86095">
        <ele>2973.01</ele>
        <time>2015-03-27T12:24:25Z</time>
      </trkpt>
      <trkpt lat="44.54879" lon="6.86099">
        <ele>2966.77</ele>
        <time>2015-03-27T12:24:27Z</time>
      </trkpt>
      <trkpt lat="44.5489" lon="6.86098">
        <ele>2966.29</ele>
        <time>2015-03-27T12:24:31Z</time>
      </trkpt>
      <trkpt lat="44.54892" lon="6.86098">
        <ele>2961.96</ele>
        <time>2015-03-27T12:24:33Z</time>
      </trkpt>
      <trkpt lat="44.54894" lon="6.86099">
        <ele>2963.88</ele>
        <time>2015-03-27T12:24:34Z</time>
      </trkpt>
      <trkpt lat="44.54896" lon="6.86101">
        <ele>2960.52</ele>
        <time>2015-03-27T12:24:35Z</time>
      </trkpt>
      <trkpt lat="44.54899" lon="6.86103">
        <ele>2955.71</ele>
        <time>2015-03-27T12:24:36Z</time>
      </trkpt>
      <trkpt lat="44.54902" lon="6.86104">
        <ele>2952.35</ele>
        <time>2015-03-27T12:24:37Z</time>
      </trkpt>
      <trkpt lat="44.54912" lon="6.8611">
        <ele>2947.06</ele>
        <time>2015-03-27T12:24:40Z</time>
      </trkpt>
      <trkpt lat="44.54919" lon="6.86114">
        <ele>2941.77</ele>
        <time>2015-03-27T12:24:42Z</time>
      </trkpt>
      <trkpt lat="44.54925" lon="6.86116">
        <ele>2938.41</ele>
        <time>2015-03-27T12:24:44Z</time>
      </trkpt>
      <trkpt lat="44.54927" lon="6.86116">
        <ele>2933.6</ele>
        <time>2015-03-27T12:24:45Z</time>
      </trkpt>
      <trkpt lat="44.54929" lon="6.86117">
        <ele>2933.6</ele>
        <time>2015-03-27T12:24:46Z</time>
      </trkpt>
      <trkpt lat="44.54935" lon="6.86117">
        <ele>2930.72</ele>
        <time>2015-03-27T12:24:48Z</time>
      </trkpt>
      <trkpt lat="44.5494" lon="6.86116">
        <ele>2927.83</ele>
        <time>2015-03-27T12:24:50Z</time>
      </trkpt>
      <trkpt lat="44.54944" lon="6.86115">
        <ele>2924.47</ele>
        <time>2015-03-27T12:24:52Z</time>
      </trkpt>
      <trkpt lat="44.54939" lon="6.86122">
        <ele>2922.54</ele>
        <time>2015-03-27T12:25:02Z</time>
      </trkpt>
      <trkpt lat="44.54928" lon="6.86118">
        <ele>2925.43</ele>
        <time>2015-03-27T12:25:30Z</time>
      </trkpt>
      <trkpt lat="44.54925" lon="6.86117">
        <ele>2925.43</ele>
        <time>2015-03-27T12:25:55Z</time>
      </trkpt>
      <trkpt lat="44.54924" lon="6.86127">
        <ele>2925.43</ele>
        <time>2015-03-27T12:26:25Z</time>
      </trkpt>
      <trkpt lat="44.54925" lon="6.86125">
        <ele>2926.87</ele>
        <time>2015-03-27T12:26:27Z</time>
      </trkpt>
      <trkpt lat="44.54922" lon="6.86119">
        <ele>2926.39</ele>
        <time>2015-03-27T12:26:42Z</time>
      </trkpt>
      <trkpt lat="44.54925" lon="6.86121">
        <ele>2925.91</ele>
        <time>2015-03-27T12:26:57Z</time>
      </trkpt>
      <trkpt lat="44.54924" lon="6.86123">
        <ele>2924.47</ele>
        <time>2015-03-27T12:27:01Z</time>
      </trkpt>
      <trkpt lat="44.54919" lon="6.86124">
        <ele>2922.54</ele>
        <time>2015-03-27T12:27:34Z</time>
      </trkpt>
      <trkpt lat="44.54922" lon="6.8612">
        <ele>2923.99</ele>
        <time>2015-03-27T12:27:39Z</time>
      </trkpt>
      <trkpt lat="44.54927" lon="6.86115">
        <ele>2925.91</ele>
        <time>2015-03-27T12:27:58Z</time>
      </trkpt>
      <trkpt lat="44.54926" lon="6.86116">
        <ele>2927.83</ele>
        <time>2015-03-27T12:28:01Z</time>
      </trkpt>
      <trkpt lat="44.54928" lon="6.86118">
        <ele>2924.47</ele>
        <time>2015-03-27T12:28:19Z</time>
      </trkpt>
      <trkpt lat="44.54928" lon="6.86115">
        <ele>2922.54</ele>
        <time>2015-03-27T12:28:48Z</time>
      </trkpt>
      <trkpt lat="44.54932" lon="6.86117">
        <ele>2921.1</ele>
        <time>2015-03-27T12:29:04Z</time>
      </trkpt>
      <trkpt lat="44.54932" lon="6.86116">
        <ele>2920.62</ele>
        <time>2015-03-27T12:29:34Z</time>
      </trkpt>
      <trkpt lat="44.54929" lon="6.86117">
        <ele>2920.62</ele>
        <time>2015-03-27T12:29:43Z</time>
      </trkpt>
      <trkpt lat="44.54905" lon="6.86109">
        <ele>2919.66</ele>
        <time>2015-03-27T12:30:19Z</time>
      </trkpt>
      <trkpt lat="44.54903" lon="6.8611">
        <ele>2919.66</ele>
        <time>2015-03-27T12:30:27Z</time>
      </trkpt>
      <trkpt lat="44.54914" lon="6.86099">
        <ele>2919.18</ele>
        <time>2015-03-27T12:30:56Z</time>
      </trkpt>
      <trkpt lat="44.54922" lon="6.86109">
        <ele>2921.1</ele>
        <time>2015-03-27T12:31:15Z</time>
      </trkpt>
      <trkpt lat="44.54923" lon="6.86109">
        <ele>2917.26</ele>
        <time>2015-03-27T12:31:17Z</time>
      </trkpt>
      <trkpt lat="44.54923" lon="6.86109">
        <ele>2921.58</ele>
        <time>2015-03-27T12:31:19Z</time>
      </trkpt>
      <trkpt lat="44.54927" lon="6.86104">
        <ele>2920.14</ele>
        <time>2015-03-27T12:31:41Z</time>
      </trkpt>
      <trkpt lat="44.54933" lon="6.86105">
        <ele>2914.85</ele>
        <time>2015-03-27T12:31:44Z</time>
      </trkpt>
      <trkpt lat="44.54937" lon="6.86106">
        <ele>2914.85</ele>
        <time>2015-03-27T12:31:45Z</time>
      </trkpt>
      <trkpt lat="44.54949" lon="6.86109">
        <ele>2905.24</ele>
        <time>2015-03-27T12:31:48Z</time>
      </trkpt>
      <trkpt lat="44.54954" lon="6.8611">
        <ele>2905.24</ele>
        <time>2015-03-27T12:31:49Z</time>
      </trkpt>
      <trkpt lat="44.54959" lon="6.8611">
        <ele>2901.88</ele>
        <time>2015-03-27T12:31:50Z</time>
      </trkpt>
      <trkpt lat="44.54969" lon="6.8611">
        <ele>2898.51</ele>
        <time>2015-03-27T12:31:52Z</time>
      </trkpt>
      <trkpt lat="44.5498" lon="6.8611">
        <ele>2893.71</ele>
        <time>2015-03-27T12:31:54Z</time>
      </trkpt>
      <trkpt lat="44.54992" lon="6.86109">
        <ele>2892.26</ele>
        <time>2015-03-27T12:31:56Z</time>
      </trkpt>
      <trkpt lat="44.55003" lon="6.86106">
        <ele>2887.46</ele>
        <time>2015-03-27T12:31:58Z</time>
      </trkpt>
      <trkpt lat="44.5502" lon="6.86099">
        <ele>2880.25</ele>
        <time>2015-03-27T12:32:01Z</time>
      </trkpt>
      <trkpt lat="44.55025" lon="6.86097">
        <ele>2879.77</ele>
        <time>2015-03-27T12:32:02Z</time>
      </trkpt>
      <trkpt lat="44.55034" lon="6.86092">
        <ele>2878.81</ele>
        <time>2015-03-27T12:32:04Z</time>
      </trkpt>
      <trkpt lat="44.5504" lon="6.86082">
        <ele>2878.32</ele>
        <time>2015-03-27T12:32:12Z</time>
      </trkpt>
      <trkpt lat="44.55038" lon="6.86085">
        <ele>2881.21</ele>
        <time>2015-03-27T12:32:16Z</time>
      </trkpt>
      <trkpt lat="44.55034" lon="6.86083">
        <ele>2880.73</ele>
        <time>2015-03-27T12:32:33Z</time>
      </trkpt>
      <trkpt lat="44.55033" lon="6.86085">
        <ele>2880.73</ele>
        <time>2015-03-27T12:32:55Z</time>
      </trkpt>
      <trkpt lat="44.55031" lon="6.86083">
        <ele>2879.29</ele>
        <time>2015-03-27T12:33:06Z</time>
      </trkpt>
      <trkpt lat="44.55033" lon="6.86081">
        <ele>2874</ele>
        <time>2015-03-27T12:33:08Z</time>
      </trkpt>
      <trkpt lat="44.55038" lon="6.86076">
        <ele>2870.15</ele>
        <time>2015-03-27T12:33:10Z</time>
      </trkpt>
      <trkpt lat="44.55041" lon="6.86073">
        <ele>2867.75</ele>
        <time>2015-03-27T12:33:11Z</time>
      </trkpt>
      <trkpt lat="44.55055" lon="6.86063">
        <ele>2856.21</ele>
        <time>2015-03-27T12:33:14Z</time>
      </trkpt>
      <trkpt lat="44.55068" lon="6.86056">
        <ele>2853.33</ele>
        <time>2015-03-27T12:33:16Z</time>
      </trkpt>
      <trkpt lat="44.55075" lon="6.86053">
        <ele>2849.97</ele>
        <time>2015-03-27T12:33:17Z</time>
      </trkpt>
      <trkpt lat="44.5508" lon="6.86048">
        <ele>2849.97</ele>
        <time>2015-03-27T12:33:18Z</time>
      </trkpt>
      <trkpt lat="44.55085" lon="6.86045">
        <ele>2849.97</ele>
        <time>2015-03-27T12:33:19Z</time>
      </trkpt>
      <trkpt lat="44.55089" lon="6.86036">
        <ele>2851.89</ele>
        <time>2015-03-27T12:33:30Z</time>
      </trkpt>
      <trkpt lat="44.55088" lon="6.86028">
        <ele>2851.89</ele>
        <time>2015-03-27T12:33:45Z</time>
      </trkpt>
      <trkpt lat="44.55092" lon="6.86017">
        <ele>2854.77</ele>
        <time>2015-03-27T12:34:08Z</time>
      </trkpt>
      <trkpt lat="44.55095" lon="6.86007">
        <ele>2856.69</ele>
        <time>2015-03-27T12:34:27Z</time>
      </trkpt>
      <trkpt lat="44.55102" lon="6.85985">
        <ele>2857.18</ele>
        <time>2015-03-27T12:34:47Z</time>
      </trkpt>
      <trkpt lat="44.55112" lon="6.8597">
        <ele>2852.85</ele>
        <time>2015-03-27T12:34:55Z</time>
      </trkpt>
      <trkpt lat="44.55115" lon="6.85967">
        <ele>2852.85</ele>
        <time>2015-03-27T12:34:56Z</time>
      </trkpt>
      <trkpt lat="44.55132" lon="6.85947">
        <ele>2849.97</ele>
        <time>2015-03-27T12:35:02Z</time>
      </trkpt>
      <trkpt lat="44.55144" lon="6.85941">
        <ele>2844.68</ele>
        <time>2015-03-27T12:35:05Z</time>
      </trkpt>
      <trkpt lat="44.55148" lon="6.8594">
        <ele>2844.68</ele>
        <time>2015-03-27T12:35:06Z</time>
      </trkpt>
      <trkpt lat="44.55151" lon="6.85939">
        <ele>2841.79</ele>
        <time>2015-03-27T12:35:07Z</time>
      </trkpt>
      <trkpt lat="44.5516" lon="6.85937">
        <ele>2839.87</ele>
        <time>2015-03-27T12:35:09Z</time>
      </trkpt>
      <trkpt lat="44.55168" lon="6.85936">
        <ele>2835.55</ele>
        <time>2015-03-27T12:35:11Z</time>
      </trkpt>
      <trkpt lat="44.55177" lon="6.85935">
        <ele>2831.7</ele>
        <time>2015-03-27T12:35:13Z</time>
      </trkpt>
      <trkpt lat="44.55181" lon="6.85934">
        <ele>2828.34</ele>
        <time>2015-03-27T12:35:14Z</time>
      </trkpt>
      <trkpt lat="44.55205" lon="6.85925">
        <ele>2818.72</ele>
        <time>2015-03-27T12:35:19Z</time>
      </trkpt>
      <trkpt lat="44.5521" lon="6.85925">
        <ele>2818.72</ele>
        <time>2015-03-27T12:35:20Z</time>
      </trkpt>
      <trkpt lat="44.5522" lon="6.85927">
        <ele>2812.47</ele>
        <time>2015-03-27T12:35:22Z</time>
      </trkpt>
      <trkpt lat="44.55229" lon="6.85932">
        <ele>2808.63</ele>
        <time>2015-03-27T12:35:24Z</time>
      </trkpt>
      <trkpt lat="44.55234" lon="6.85934">
        <ele>2805.26</ele>
        <time>2015-03-27T12:35:25Z</time>
      </trkpt>
      <trkpt lat="44.55238" lon="6.85937">
        <ele>2807.19</ele>
        <time>2015-03-27T12:35:26Z</time>
      </trkpt>
      <trkpt lat="44.55242" lon="6.85939">
        <ele>2803.34</ele>
        <time>2015-03-27T12:35:27Z</time>
      </trkpt>
      <trkpt lat="44.5525" lon="6.85943">
        <ele>2801.9</ele>
        <time>2015-03-27T12:35:29Z</time>
      </trkpt>
      <trkpt lat="44.55263" lon="6.85949">
        <ele>2793.73</ele>
        <time>2015-03-27T12:35:32Z</time>
      </trkpt>
      <trkpt lat="44.55267" lon="6.85951">
        <ele>2793.73</ele>
        <time>2015-03-27T12:35:33Z</time>
      </trkpt>
      <trkpt lat="44.55272" lon="6.85953">
        <ele>2791.81</ele>
        <time>2015-03-27T12:35:34Z</time>
      </trkpt>
      <trkpt lat="44.55282" lon="6.85961">
        <ele>2788.92</ele>
        <time>2015-03-27T12:35:36Z</time>
      </trkpt>
      <trkpt lat="44.55291" lon="6.85968">
        <ele>2784.6</ele>
        <time>2015-03-27T12:35:38Z</time>
      </trkpt>
      <trkpt lat="44.55323" lon="6.85993">
        <ele>2777.87</ele>
        <time>2015-03-27T12:35:43Z</time>
      </trkpt>
      <trkpt lat="44.55337" lon="6.86012">
        <ele>2776.42</ele>
        <time>2015-03-27T12:35:46Z</time>
      </trkpt>
      <trkpt lat="44.5535" lon="6.86027">
        <ele>2773.06</ele>
        <time>2015-03-27T12:35:49Z</time>
      </trkpt>
      <trkpt lat="44.55358" lon="6.86038">
        <ele>2772.1</ele>
        <time>2015-03-27T12:35:51Z</time>
      </trkpt>
      <trkpt lat="44.55362" lon="6.86048">
        <ele>2770.18</ele>
        <time>2015-03-27T12:35:53Z</time>
      </trkpt>
      <trkpt lat="44.55362" lon="6.86057">
        <ele>2768.73</ele>
        <time>2015-03-27T12:35:55Z</time>
      </trkpt>
      <trkpt lat="44.55366" lon="6.86069">
        <ele>2766.33</ele>
        <time>2015-03-27T12:35:58Z</time>
      </trkpt>
      <trkpt lat="44.55373" lon="6.86078">
        <ele>2763.93</ele>
        <time>2015-03-27T12:36:01Z</time>
      </trkpt>
      <trkpt lat="44.55382" lon="6.86086">
        <ele>2762</ele>
        <time>2015-03-27T12:36:04Z</time>
      </trkpt>
      <trkpt lat="44.55401" lon="6.86099">
        <ele>2758.16</ele>
        <time>2015-03-27T12:36:10Z</time>
      </trkpt>
      <trkpt lat="44.55405" lon="6.86101">
        <ele>2758.16</ele>
        <time>2015-03-27T12:36:11Z</time>
      </trkpt>
      <trkpt lat="44.55412" lon="6.86106">
        <ele>2756.72</ele>
        <time>2015-03-27T12:36:13Z</time>
      </trkpt>
      <trkpt lat="44.55436" lon="6.86115">
        <ele>2756.24</ele>
        <time>2015-03-27T12:36:24Z</time>
      </trkpt>
      <trkpt lat="44.55444" lon="6.86121">
        <ele>2753.83</ele>
        <time>2015-03-27T12:36:28Z</time>
      </trkpt>
      <trkpt lat="44.55455" lon="6.86127">
        <ele>2750.47</ele>
        <time>2015-03-27T12:36:32Z</time>
      </trkpt>
      <trkpt lat="44.55464" lon="6.86138">
        <ele>2749.03</ele>
        <time>2015-03-27T12:36:36Z</time>
      </trkpt>
      <trkpt lat="44.55479" lon="6.86159">
        <ele>2747.1</ele>
        <time>2015-03-27T12:36:44Z</time>
      </trkpt>
      <trkpt lat="44.5549" lon="6.86174">
        <ele>2743.74</ele>
        <time>2015-03-27T12:36:48Z</time>
      </trkpt>
      <trkpt lat="44.55497" lon="6.8618">
        <ele>2739.89</ele>
        <time>2015-03-27T12:36:50Z</time>
      </trkpt>
      <trkpt lat="44.55519" lon="6.86202">
        <ele>2735.57</ele>
        <time>2015-03-27T12:36:56Z</time>
      </trkpt>
      <trkpt lat="44.55532" lon="6.8621">
        <ele>2734.61</ele>
        <time>2015-03-27T12:37:00Z</time>
      </trkpt>
      <trkpt lat="44.55538" lon="6.86213">
        <ele>2737.97</ele>
        <time>2015-03-27T12:37:03Z</time>
      </trkpt>
      <trkpt lat="44.55535" lon="6.86207">
        <ele>2738.45</ele>
        <time>2015-03-27T12:37:15Z</time>
      </trkpt>
      <trkpt lat="44.55533" lon="6.86203">
        <ele>2735.09</ele>
        <time>2015-03-27T12:37:34Z</time>
      </trkpt>
      <trkpt lat="44.55534" lon="6.86202">
        <ele>2735.09</ele>
        <time>2015-03-27T12:37:35Z</time>
      </trkpt>
      <trkpt lat="44.5554" lon="6.86201">
        <ele>2733.17</ele>
        <time>2015-03-27T12:37:40Z</time>
      </trkpt>
      <trkpt lat="44.5555" lon="6.86202">
        <ele>2729.32</ele>
        <time>2015-03-27T12:37:43Z</time>
      </trkpt>
      <trkpt lat="44.5556" lon="6.86203">
        <ele>2725.48</ele>
        <time>2015-03-27T12:37:45Z</time>
      </trkpt>
      <trkpt lat="44.55587" lon="6.86207">
        <ele>2726.44</ele>
        <time>2015-03-27T12:37:54Z</time>
      </trkpt>
      <trkpt lat="44.55597" lon="6.86205">
        <ele>2722.59</ele>
        <time>2015-03-27T12:37:58Z</time>
      </trkpt>
      <trkpt lat="44.55605" lon="6.86203">
        <ele>2720.67</ele>
        <time>2015-03-27T12:38:00Z</time>
      </trkpt>
      <trkpt lat="44.55624" lon="6.86199">
        <ele>2716.34</ele>
        <time>2015-03-27T12:38:04Z</time>
      </trkpt>
      <trkpt lat="44.55635" lon="6.86204">
        <ele>2715.38</ele>
        <time>2015-03-27T12:38:06Z</time>
      </trkpt>
      <trkpt lat="44.55648" lon="6.86218">
        <ele>2712.02</ele>
        <time>2015-03-27T12:38:09Z</time>
      </trkpt>
      <trkpt lat="44.55652" lon="6.86223">
        <ele>2715.38</ele>
        <time>2015-03-27T12:38:11Z</time>
      </trkpt>
      <trkpt lat="44.55653" lon="6.86225">
        <ele>2714.9</ele>
        <time>2015-03-27T12:38:12Z</time>
      </trkpt>
      <trkpt lat="44.55656" lon="6.8623">
        <ele>2712.02</ele>
        <time>2015-03-27T12:38:28Z</time>
      </trkpt>
      <trkpt lat="44.55669" lon="6.86235">
        <ele>2705.77</ele>
        <time>2015-03-27T12:38:33Z</time>
      </trkpt>
      <trkpt lat="44.55684" lon="6.8624">
        <ele>2700.96</ele>
        <time>2015-03-27T12:38:36Z</time>
      </trkpt>
      <trkpt lat="44.55695" lon="6.86243">
        <ele>2697.6</ele>
        <time>2015-03-27T12:38:38Z</time>
      </trkpt>
      <trkpt lat="44.55706" lon="6.86247">
        <ele>2693.27</ele>
        <time>2015-03-27T12:38:40Z</time>
      </trkpt>
      <trkpt lat="44.55712" lon="6.86249">
        <ele>2692.79</ele>
        <time>2015-03-27T12:38:41Z</time>
      </trkpt>
      <trkpt lat="44.5574" lon="6.86254">
        <ele>2685.1</ele>
        <time>2015-03-27T12:38:45Z</time>
      </trkpt>
      <trkpt lat="44.55747" lon="6.86255">
        <ele>2681.73</ele>
        <time>2015-03-27T12:38:46Z</time>
      </trkpt>
      <trkpt lat="44.55754" lon="6.86256">
        <ele>2681.73</ele>
        <time>2015-03-27T12:38:47Z</time>
      </trkpt>
      <trkpt lat="44.55768" lon="6.86255">
        <ele>2677.89</ele>
        <time>2015-03-27T12:38:49Z</time>
      </trkpt>
      <trkpt lat="44.55774" lon="6.86256">
        <ele>2677.89</ele>
        <time>2015-03-27T12:38:50Z</time>
      </trkpt>
      <trkpt lat="44.55782" lon="6.86255">
        <ele>2679.33</ele>
        <time>2015-03-27T12:38:52Z</time>
      </trkpt>
      <trkpt lat="44.55784" lon="6.86252">
        <ele>2679.33</ele>
        <time>2015-03-27T12:39:05Z</time>
      </trkpt>
      <trkpt lat="44.55783" lon="6.86245">
        <ele>2679.81</ele>
        <time>2015-03-27T12:39:36Z</time>
      </trkpt>
      <trkpt lat="44.55784" lon="6.86246">
        <ele>2679.81</ele>
        <time>2015-03-27T12:40:06Z</time>
      </trkpt>
      <trkpt lat="44.55786" lon="6.86241">
        <ele>2679.81</ele>
        <time>2015-03-27T12:40:33Z</time>
      </trkpt>
      <trkpt lat="44.55784" lon="6.86245">
        <ele>2679.81</ele>
        <time>2015-03-27T12:41:00Z</time>
      </trkpt>
      <trkpt lat="44.55784" lon="6.86245">
        <ele>2679.81</ele>
        <time>2015-03-27T12:41:03Z</time>
      </trkpt>
      <trkpt lat="44.5579" lon="6.86241">
        <ele>2675.97</ele>
        <time>2015-03-27T12:41:06Z</time>
      </trkpt>
      <trkpt lat="44.55793" lon="6.8624">
        <ele>2674.52</ele>
        <time>2015-03-27T12:41:07Z</time>
      </trkpt>
      <trkpt lat="44.55801" lon="6.86238">
        <ele>2673.56</ele>
        <time>2015-03-27T12:41:09Z</time>
      </trkpt>
      <trkpt lat="44.55805" lon="6.86237">
        <ele>2669.24</ele>
        <time>2015-03-27T12:41:10Z</time>
      </trkpt>
      <trkpt lat="44.55821" lon="6.86242">
        <ele>2662.99</ele>
        <time>2015-03-27T12:41:14Z</time>
      </trkpt>
      <trkpt lat="44.55823" lon="6.86244">
        <ele>2662.99</ele>
        <time>2015-03-27T12:41:15Z</time>
      </trkpt>
      <trkpt lat="44.55827" lon="6.86249">
        <ele>2660.59</ele>
        <time>2015-03-27T12:41:17Z</time>
      </trkpt>
      <trkpt lat="44.55835" lon="6.86248">
        <ele>2655.78</ele>
        <time>2015-03-27T12:41:20Z</time>
      </trkpt>
      <trkpt lat="44.55842" lon="6.86249">
        <ele>2650.01</ele>
        <time>2015-03-27T12:41:22Z</time>
      </trkpt>
      <trkpt lat="44.55845" lon="6.86252">
        <ele>2648.09</ele>
        <time>2015-03-27T12:41:23Z</time>
      </trkpt>
      <trkpt lat="44.55855" lon="6.86262">
        <ele>2644.72</ele>
        <time>2015-03-27T12:41:25Z</time>
      </trkpt>
      <trkpt lat="44.5586" lon="6.86267">
        <ele>2642.32</ele>
        <time>2015-03-27T12:41:26Z</time>
      </trkpt>
      <trkpt lat="44.55877" lon="6.86291">
        <ele>2638.48</ele>
        <time>2015-03-27T12:41:31Z</time>
      </trkpt>
      <trkpt lat="44.55886" lon="6.86291">
        <ele>2633.19</ele>
        <time>2015-03-27T12:41:33Z</time>
      </trkpt>
      <trkpt lat="44.55891" lon="6.86293">
        <ele>2632.71</ele>
        <time>2015-03-27T12:41:34Z</time>
      </trkpt>
      <trkpt lat="44.55898" lon="6.86298">
        <ele>2629.34</ele>
        <time>2015-03-27T12:41:36Z</time>
      </trkpt>
      <trkpt lat="44.55904" lon="6.86306">
        <ele>2625.98</ele>
        <time>2015-03-27T12:41:38Z</time>
      </trkpt>
      <trkpt lat="44.55908" lon="6.86311">
        <ele>2625.98</ele>
        <time>2015-03-27T12:41:39Z</time>
      </trkpt>
      <trkpt lat="44.55915" lon="6.86319">
        <ele>2621.65</ele>
        <time>2015-03-27T12:41:41Z</time>
      </trkpt>
      <trkpt lat="44.55923" lon="6.86323">
        <ele>2616.85</ele>
        <time>2015-03-27T12:41:43Z</time>
      </trkpt>
      <trkpt lat="44.55928" lon="6.86324">
        <ele>2614.44</ele>
        <time>2015-03-27T12:41:44Z</time>
      </trkpt>
      <trkpt lat="44.55944" lon="6.86324">
        <ele>2610.6</ele>
        <time>2015-03-27T12:41:47Z</time>
      </trkpt>
      <trkpt lat="44.55946" lon="6.86322">
        <ele>2612.04</ele>
        <time>2015-03-27T12:41:54Z</time>
      </trkpt>
      <trkpt lat="44.55941" lon="6.86322">
        <ele>2613.48</ele>
        <time>2015-03-27T12:42:17Z</time>
      </trkpt>
      <trkpt lat="44.55942" lon="6.8632">
        <ele>2611.56</ele>
        <time>2015-03-27T12:42:45Z</time>
      </trkpt>
      <trkpt lat="44.55942" lon="6.86316">
        <ele>2613</ele>
        <time>2015-03-27T12:43:09Z</time>
      </trkpt>
      <trkpt lat="44.55948" lon="6.86315">
        <ele>2608.19</ele>
        <time>2015-03-27T12:43:12Z</time>
      </trkpt>
      <trkpt lat="44.55951" lon="6.86315">
        <ele>2608.19</ele>
        <time>2015-03-27T12:43:13Z</time>
      </trkpt>
      <trkpt lat="44.5596" lon="6.86314">
        <ele>2604.83</ele>
        <time>2015-03-27T12:43:16Z</time>
      </trkpt>
      <trkpt lat="44.55968" lon="6.86315">
        <ele>2600.02</ele>
        <time>2015-03-27T12:43:18Z</time>
      </trkpt>
      <trkpt lat="44.55972" lon="6.86316">
        <ele>2600.02</ele>
        <time>2015-03-27T12:43:19Z</time>
      </trkpt>
      <trkpt lat="44.55977" lon="6.86316">
        <ele>2597.14</ele>
        <time>2015-03-27T12:43:20Z</time>
      </trkpt>
      <trkpt lat="44.55981" lon="6.86317">
        <ele>2597.14</ele>
        <time>2015-03-27T12:43:21Z</time>
      </trkpt>
      <trkpt lat="44.5599" lon="6.86318">
        <ele>2591.85</ele>
        <time>2015-03-27T12:43:23Z</time>
      </trkpt>
      <trkpt lat="44.55995" lon="6.86318">
        <ele>2589.45</ele>
        <time>2015-03-27T12:43:24Z</time>
      </trkpt>
      <trkpt lat="44.56012" lon="6.86316">
        <ele>2583.2</ele>
        <time>2015-03-27T12:43:27Z</time>
      </trkpt>
      <trkpt lat="44.56029" lon="6.86312">
        <ele>2579.84</ele>
        <time>2015-03-27T12:43:30Z</time>
      </trkpt>
      <trkpt lat="44.56047" lon="6.86307">
        <ele>2575.99</ele>
        <time>2015-03-27T12:43:33Z</time>
      </trkpt>
      <trkpt lat="44.56052" lon="6.86306">
        <ele>2575.03</ele>
        <time>2015-03-27T12:43:34Z</time>
      </trkpt>
      <trkpt lat="44.56065" lon="6.86305">
        <ele>2571.66</ele>
        <time>2015-03-27T12:43:37Z</time>
      </trkpt>
      <trkpt lat="44.56068" lon="6.86306">
        <ele>2571.66</ele>
        <time>2015-03-27T12:43:38Z</time>
      </trkpt>
      <trkpt lat="44.56069" lon="6.86303">
        <ele>2572.14</ele>
        <time>2015-03-27T12:43:48Z</time>
      </trkpt>
      <trkpt lat="44.56069" lon="6.863">
        <ele>2573.59</ele>
        <time>2015-03-27T12:43:53Z</time>
      </trkpt>
      <trkpt lat="44.56065" lon="6.863">
        <ele>2573.59</ele>
        <time>2015-03-27T12:44:22Z</time>
      </trkpt>
      <trkpt lat="44.56064" lon="6.86295">
        <ele>2572.63</ele>
        <time>2015-03-27T12:44:49Z</time>
      </trkpt>
      <trkpt lat="44.56063" lon="6.86297">
        <ele>2571.66</ele>
        <time>2015-03-27T12:45:04Z</time>
      </trkpt>
      <trkpt lat="44.56066" lon="6.86296">
        <ele>2571.18</ele>
        <time>2015-03-27T12:45:33Z</time>
      </trkpt>
      <trkpt lat="44.5607" lon="6.86304">
        <ele>2569.26</ele>
        <time>2015-03-27T12:45:37Z</time>
      </trkpt>
      <trkpt lat="44.56076" lon="6.86312">
        <ele>2564.93</ele>
        <time>2015-03-27T12:45:40Z</time>
      </trkpt>
      <trkpt lat="44.5608" lon="6.86314">
        <ele>2563.49</ele>
        <time>2015-03-27T12:45:41Z</time>
      </trkpt>
      <trkpt lat="44.5609" lon="6.86324">
        <ele>2562.05</ele>
        <time>2015-03-27T12:45:43Z</time>
      </trkpt>
      <trkpt lat="44.56095" lon="6.86329">
        <ele>2559.17</ele>
        <time>2015-03-27T12:45:44Z</time>
      </trkpt>
      <trkpt lat="44.56108" lon="6.86335">
        <ele>2560.61</ele>
        <time>2015-03-27T12:45:47Z</time>
      </trkpt>
      <trkpt lat="44.56112" lon="6.86334">
        <ele>2560.61</ele>
        <time>2015-03-27T12:45:49Z</time>
      </trkpt>
      <trkpt lat="44.56111" lon="6.86329">
        <ele>2559.65</ele>
        <time>2015-03-27T12:46:06Z</time>
      </trkpt>
      <trkpt lat="44.5611" lon="6.8633">
        <ele>2559.65</ele>
        <time>2015-03-27T12:46:34Z</time>
      </trkpt>
      <trkpt lat="44.56112" lon="6.86335">
        <ele>2556.76</ele>
        <time>2015-03-27T12:46:55Z</time>
      </trkpt>
      <trkpt lat="44.56115" lon="6.86337">
        <ele>2556.76</ele>
        <time>2015-03-27T12:46:56Z</time>
      </trkpt>
      <trkpt lat="44.56121" lon="6.86339">
        <ele>2555.32</ele>
        <time>2015-03-27T12:46:58Z</time>
      </trkpt>
      <trkpt lat="44.5613" lon="6.86339">
        <ele>2553.4</ele>
        <time>2015-03-27T12:47:00Z</time>
      </trkpt>
      <trkpt lat="44.56142" lon="6.86338">
        <ele>2550.03</ele>
        <time>2015-03-27T12:47:02Z</time>
      </trkpt>
      <trkpt lat="44.56148" lon="6.86337">
        <ele>2550.03</ele>
        <time>2015-03-27T12:47:03Z</time>
      </trkpt>
      <trkpt lat="44.56154" lon="6.86336">
        <ele>2549.55</ele>
        <time>2015-03-27T12:47:04Z</time>
      </trkpt>
      <trkpt lat="44.56169" lon="6.86353">
        <ele>2549.07</ele>
        <time>2015-03-27T12:47:11Z</time>
      </trkpt>
      <trkpt lat="44.5617" lon="6.86364">
        <ele>2547.15</ele>
        <time>2015-03-27T12:47:13Z</time>
      </trkpt>
      <trkpt lat="44.56174" lon="6.86377">
        <ele>2543.31</ele>
        <time>2015-03-27T12:47:16Z</time>
      </trkpt>
      <trkpt lat="44.56181" lon="6.86382">
        <ele>2540.42</ele>
        <time>2015-03-27T12:47:18Z</time>
      </trkpt>
      <trkpt lat="44.56189" lon="6.86384">
        <ele>2537.54</ele>
        <time>2015-03-27T12:47:20Z</time>
      </trkpt>
      <trkpt lat="44.56194" lon="6.86392">
        <ele>2536.1</ele>
        <time>2015-03-27T12:47:22Z</time>
      </trkpt>
      <trkpt lat="44.56204" lon="6.86409">
        <ele>2529.85</ele>
        <time>2015-03-27T12:47:25Z</time>
      </trkpt>
      <trkpt lat="44.56209" lon="6.86413">
        <ele>2529.85</ele>
        <time>2015-03-27T12:47:26Z</time>
      </trkpt>
      <trkpt lat="44.56225" lon="6.86408">
        <ele>2530.33</ele>
        <time>2015-03-27T12:47:29Z</time>
      </trkpt>
      <trkpt lat="44.56229" lon="6.86405">
        <ele>2530.33</ele>
        <time>2015-03-27T12:47:30Z</time>
      </trkpt>
      <trkpt lat="44.56233" lon="6.86402">
        <ele>2530.33</ele>
        <time>2015-03-27T12:47:31Z</time>
      </trkpt>
      <trkpt lat="44.56254" lon="6.8639">
        <ele>2526.96</ele>
        <time>2015-03-27T12:47:36Z</time>
      </trkpt>
      <trkpt lat="44.56259" lon="6.86387">
        <ele>2526.96</ele>
        <time>2015-03-27T12:47:37Z</time>
      </trkpt>
      <trkpt lat="44.56263" lon="6.86384">
        <ele>2527.44</ele>
        <time>2015-03-27T12:47:38Z</time>
      </trkpt>
      <trkpt lat="44.56267" lon="6.86382">
        <ele>2527.44</ele>
        <time>2015-03-27T12:47:39Z</time>
      </trkpt>
      <trkpt lat="44.56277" lon="6.86375">
        <ele>2528.89</ele>
        <time>2015-03-27T12:47:42Z</time>
      </trkpt>
      <trkpt lat="44.5629" lon="6.86364">
        <ele>2527.44</ele>
        <time>2015-03-27T12:47:47Z</time>
      </trkpt>
      <trkpt lat="44.56295" lon="6.86359">
        <ele>2528.89</ele>
        <time>2015-03-27T12:47:49Z</time>
      </trkpt>
      <trkpt lat="44.56303" lon="6.86352">
        <ele>2527.92</ele>
        <time>2015-03-27T12:47:52Z</time>
      </trkpt>
      <trkpt lat="44.56337" lon="6.86323">
        <ele>2528.89</ele>
        <time>2015-03-27T12:48:08Z</time>
      </trkpt>
      <trkpt lat="44.56346" lon="6.86313">
        <ele>2529.37</ele>
        <time>2015-03-27T12:48:24Z</time>
      </trkpt>
      <trkpt lat="44.56359" lon="6.86306">
        <ele>2530.81</ele>
        <time>2015-03-27T12:48:42Z</time>
      </trkpt>
      <trkpt lat="44.56365" lon="6.863">
        <ele>2531.29</ele>
        <time>2015-03-27T12:49:01Z</time>
      </trkpt>
      <trkpt lat="44.56366" lon="6.86295">
        <ele>2530.81</ele>
        <time>2015-03-27T12:49:25Z</time>
      </trkpt>
      <trkpt lat="44.56366" lon="6.86295">
        <ele>2528.89</ele>
        <time>2015-03-27T12:49:32Z</time>
      </trkpt>
      <trkpt lat="44.56366" lon="6.86295">
        <ele>2530.33</ele>
        <time>2015-03-27T12:49:34Z</time>
      </trkpt>
      <trkpt lat="44.56364" lon="6.86295">
        <ele>2529.37</ele>
        <time>2015-03-27T12:49:43Z</time>
      </trkpt>
      <trkpt lat="44.56364" lon="6.86295">
        <ele>2530.81</ele>
        <time>2015-03-27T12:49:45Z</time>
      </trkpt>
      <trkpt lat="44.56365" lon="6.86294">
        <ele>2530.81</ele>
        <time>2015-03-27T12:50:03Z</time>
      </trkpt>
      <trkpt lat="44.56367" lon="6.86295">
        <ele>2530.81</ele>
        <time>2015-03-27T12:50:20Z</time>
      </trkpt>
      <trkpt lat="44.56366" lon="6.86294">
        <ele>2529.85</ele>
        <time>2015-03-27T12:50:26Z</time>
      </trkpt>
      <trkpt lat="44.56362" lon="6.86297">
        <ele>2529.85</ele>
        <time>2015-03-27T12:50:55Z</time>
      </trkpt>
      <trkpt lat="44.56366" lon="6.86294">
        <ele>2530.33</ele>
        <time>2015-03-27T12:51:22Z</time>
      </trkpt>
      <trkpt lat="44.56366" lon="6.86293">
        <ele>2528.89</ele>
        <time>2015-03-27T12:51:30Z</time>
      </trkpt>
      <trkpt lat="44.56366" lon="6.86293">
        <ele>2530.33</ele>
        <time>2015-03-27T12:51:33Z</time>
      </trkpt>
      <trkpt lat="44.56366" lon="6.86292">
        <ele>2528.89</ele>
        <time>2015-03-27T12:51:35Z</time>
      </trkpt>
      <trkpt lat="44.56366" lon="6.86293">
        <ele>2530.33</ele>
        <time>2015-03-27T12:51:43Z</time>
      </trkpt>
      <trkpt lat="44.56365" lon="6.86291">
        <ele>2530.33</ele>
        <time>2015-03-27T12:52:16Z</time>
      </trkpt>
      <trkpt lat="44.56364" lon="6.86291">
        <ele>2530.33</ele>
        <time>2015-03-27T12:52:52Z</time>
      </trkpt>
      <trkpt lat="44.56364" lon="6.86294">
        <ele>2530.81</ele>
        <time>2015-03-27T12:53:26Z</time>
      </trkpt>
      <trkpt lat="44.56364" lon="6.86294">
        <ele>2529.37</ele>
        <time>2015-03-27T12:53:34Z</time>
      </trkpt>
      <trkpt lat="44.56364" lon="6.86294">
        <ele>2530.81</ele>
        <time>2015-03-27T12:53:36Z</time>
      </trkpt>
      <trkpt lat="44.56366" lon="6.86296">
        <ele>2530.81</ele>
        <time>2015-03-27T12:54:14Z</time>
      </trkpt>
      <trkpt lat="44.56366" lon="6.86292">
        <ele>2529.37</ele>
        <time>2015-03-27T12:54:47Z</time>
      </trkpt>
      <trkpt lat="44.56364" lon="6.86291">
        <ele>2528.89</ele>
        <time>2015-03-27T12:55:24Z</time>
      </trkpt>
      <trkpt lat="44.56366" lon="6.86292">
        <ele>2528.4</ele>
        <time>2015-03-27T12:56:01Z</time>
      </trkpt>
      <trkpt lat="44.56365" lon="6.86292">
        <ele>2528.4</ele>
        <time>2015-03-27T12:56:36Z</time>
      </trkpt>
      <trkpt lat="44.56366" lon="6.86292">
        <ele>2528.4</ele>
        <time>2015-03-27T12:57:07Z</time>
      </trkpt>
      <trkpt lat="44.56365" lon="6.86292">
        <ele>2529.85</ele>
        <time>2015-03-27T12:57:13Z</time>
      </trkpt>
      <trkpt lat="44.56365" lon="6.86293">
        <ele>2529.85</ele>
        <time>2015-03-27T12:57:43Z</time>
      </trkpt>
      <trkpt lat="44.56366" lon="6.86292">
        <ele>2530.81</ele>
        <time>2015-03-27T12:58:18Z</time>
      </trkpt>
      <trkpt lat="44.56364" lon="6.86291">
        <ele>2531.29</ele>
        <time>2015-03-27T12:58:48Z</time>
      </trkpt>
      <trkpt lat="44.56364" lon="6.8629">
        <ele>2531.29</ele>
        <time>2015-03-27T12:59:13Z</time>
      </trkpt>
      <trkpt lat="44.56363" lon="6.86291">
        <ele>2531.29</ele>
        <time>2015-03-27T12:59:41Z</time>
      </trkpt>
      <trkpt lat="44.56364" lon="6.8629">
        <ele>2529.85</ele>
        <time>2015-03-27T12:59:52Z</time>
      </trkpt>
      <trkpt lat="44.56365" lon="6.86292">
        <ele>2529.37</ele>
        <time>2015-03-27T13:00:20Z</time>
      </trkpt>
      <trkpt lat="44.56363" lon="6.86293">
        <ele>2528.89</ele>
        <time>2015-03-27T13:00:59Z</time>
      </trkpt>
      <trkpt lat="44.56363" lon="6.86294">
        <ele>2527.92</ele>
        <time>2015-03-27T13:01:45Z</time>
      </trkpt>
      <trkpt lat="44.56365" lon="6.86292">
        <ele>2527.92</ele>
        <time>2015-03-27T13:02:15Z</time>
      </trkpt>
      <trkpt lat="44.56366" lon="6.86292">
        <ele>2527.92</ele>
        <time>2015-03-27T13:02:46Z</time>
      </trkpt>
      <trkpt lat="44.56367" lon="6.86293">
        <ele>2528.4</ele>
        <time>2015-03-27T13:03:25Z</time>
      </trkpt>
      <trkpt lat="44.56366" lon="6.86294">
        <ele>2529.37</ele>
        <time>2015-03-27T13:03:58Z</time>
      </trkpt>
      <trkpt lat="44.56365" lon="6.86294">
        <ele>2529.85</ele>
        <time>2015-03-27T13:04:32Z</time>
      </trkpt>
      <trkpt lat="44.56362" lon="6.86294">
        <ele>2529.85</ele>
        <time>2015-03-27T13:05:02Z</time>
      </trkpt>
      <trkpt lat="44.56362" lon="6.86295">
        <ele>2530.33</ele>
        <time>2015-03-27T13:05:31Z</time>
      </trkpt>
      <trkpt lat="44.5636" lon="6.86298">
        <ele>2530.33</ele>
        <time>2015-03-27T13:05:48Z</time>
      </trkpt>
      <trkpt lat="44.56362" lon="6.86296">
        <ele>2530.81</ele>
        <time>2015-03-27T13:06:14Z</time>
      </trkpt>
      <trkpt lat="44.56363" lon="6.86295">
        <ele>2530.81</ele>
        <time>2015-03-27T13:06:45Z</time>
      </trkpt>
      <trkpt lat="44.56361" lon="6.86296">
        <ele>2530.81</ele>
        <time>2015-03-27T13:07:13Z</time>
      </trkpt>
      <trkpt lat="44.56362" lon="6.86294">
        <ele>2529.85</ele>
        <time>2015-03-27T13:07:43Z</time>
      </trkpt>
      <trkpt lat="44.56363" lon="6.86293">
        <ele>2530.33</ele>
        <time>2015-03-27T13:08:12Z</time>
      </trkpt>
      <trkpt lat="44.56361" lon="6.86295">
        <ele>2529.85</ele>
        <time>2015-03-27T13:08:40Z</time>
      </trkpt>
      <trkpt lat="44.56363" lon="6.86296">
        <ele>2529.85</ele>
        <time>2015-03-27T13:08:59Z</time>
      </trkpt>
      <trkpt lat="44.56363" lon="6.86295">
        <ele>2529.85</ele>
        <time>2015-03-27T13:09:17Z</time>
      </trkpt>
      <trkpt lat="44.56366" lon="6.86294">
        <ele>2530.33</ele>
        <time>2015-03-27T13:09:39Z</time>
      </trkpt>
      <trkpt lat="44.56365" lon="6.86292">
        <ele>2530.33</ele>
        <time>2015-03-27T13:10:07Z</time>
      </trkpt>
      <trkpt lat="44.56366" lon="6.86294">
        <ele>2530.33</ele>
        <time>2015-03-27T13:10:39Z</time>
      </trkpt>
      <trkpt lat="44.56365" lon="6.86294">
        <ele>2530.33</ele>
        <time>2015-03-27T13:11:01Z</time>
      </trkpt>
      <trkpt lat="44.56366" lon="6.86293">
        <ele>2530.33</ele>
        <time>2015-03-27T13:11:25Z</time>
      </trkpt>
      <trkpt lat="44.56366" lon="6.86294">
        <ele>2532.25</ele>
        <time>2015-03-27T13:11:45Z</time>
      </trkpt>
      <trkpt lat="44.56363" lon="6.86295">
        <ele>2532.73</ele>
        <time>2015-03-27T13:12:07Z</time>
      </trkpt>
      <trkpt lat="44.56363" lon="6.86298">
        <ele>2531.29</ele>
        <time>2015-03-27T13:12:17Z</time>
      </trkpt>
      <trkpt lat="44.56363" lon="6.86296">
        <ele>2531.77</ele>
        <time>2015-03-27T13:12:35Z</time>
      </trkpt>
      <trkpt lat="44.56364" lon="6.86297">
        <ele>2531.77</ele>
        <time>2015-03-27T13:13:00Z</time>
      </trkpt>
      <trkpt lat="44.56363" lon="6.86296">
        <ele>2531.29</ele>
        <time>2015-03-27T13:13:17Z</time>
      </trkpt>
      <trkpt lat="44.56364" lon="6.86297">
        <ele>2532.73</ele>
        <time>2015-03-27T13:13:37Z</time>
      </trkpt>
      <trkpt lat="44.56364" lon="6.86296">
        <ele>2531.29</ele>
        <time>2015-03-27T13:13:42Z</time>
      </trkpt>
      <trkpt lat="44.56365" lon="6.86295">
        <ele>2530.81</ele>
        <time>2015-03-27T13:14:19Z</time>
      </trkpt>
      <trkpt lat="44.56364" lon="6.86296">
        <ele>2530.81</ele>
        <time>2015-03-27T13:14:39Z</time>
      </trkpt>
      <trkpt lat="44.56362" lon="6.86295">
        <ele>2531.29</ele>
        <time>2015-03-27T13:15:03Z</time>
      </trkpt>
      <trkpt lat="44.56363" lon="6.86295">
        <ele>2530.33</ele>
        <time>2015-03-27T13:15:15Z</time>
      </trkpt>
      <trkpt lat="44.56364" lon="6.86295">
        <ele>2531.29</ele>
        <time>2015-03-27T13:15:30Z</time>
      </trkpt>
      <trkpt lat="44.56363" lon="6.86296">
        <ele>2531.29</ele>
        <time>2015-03-27T13:15:58Z</time>
      </trkpt>
      <trkpt lat="44.56366" lon="6.86298">
        <ele>2532.25</ele>
        <time>2015-03-27T13:16:18Z</time>
      </trkpt>
      <trkpt lat="44.56366" lon="6.86299">
        <ele>2530.81</ele>
        <time>2015-03-27T13:16:21Z</time>
      </trkpt>
      <trkpt lat="44.56368" lon="6.86298">
        <ele>2530.81</ele>
        <time>2015-03-27T13:16:53Z</time>
      </trkpt>
      <trkpt lat="44.56366" lon="6.86295">
        <ele>2530.81</ele>
        <time>2015-03-27T13:17:31Z</time>
      </trkpt>
      <trkpt lat="44.56367" lon="6.86295">
        <ele>2531.29</ele>
        <time>2015-03-27T13:17:57Z</time>
      </trkpt>
      <trkpt lat="44.56366" lon="6.86293">
        <ele>2530.81</ele>
        <time>2015-03-27T13:18:30Z</time>
      </trkpt>
      <trkpt lat="44.56365" lon="6.86293">
        <ele>2530.81</ele>
        <time>2015-03-27T13:19:02Z</time>
      </trkpt>
      <trkpt lat="44.56367" lon="6.86296">
        <ele>2530.81</ele>
        <time>2015-03-27T13:19:29Z</time>
      </trkpt>
      <trkpt lat="44.5637" lon="6.86296">
        <ele>2532.25</ele>
        <time>2015-03-27T13:19:45Z</time>
      </trkpt>
      <trkpt lat="44.56371" lon="6.86295">
        <ele>2532.25</ele>
        <time>2015-03-27T13:19:46Z</time>
      </trkpt>
      <trkpt lat="44.56372" lon="6.86294">
        <ele>2532.25</ele>
        <time>2015-03-27T13:19:47Z</time>
      </trkpt>
      <trkpt lat="44.56373" lon="6.86293">
        <ele>2532.25</ele>
        <time>2015-03-27T13:19:48Z</time>
      </trkpt>
      <trkpt lat="44.56374" lon="6.86292">
        <ele>2531.77</ele>
        <time>2015-03-27T13:19:49Z</time>
      </trkpt>
      <trkpt lat="44.56375" lon="6.8629">
        <ele>2531.77</ele>
        <time>2015-03-27T13:19:50Z</time>
      </trkpt>
      <trkpt lat="44.56392" lon="6.8628">
        <ele>2527.44</ele>
        <time>2015-03-27T13:19:56Z</time>
      </trkpt>
      <trkpt lat="44.56397" lon="6.86278">
        <ele>2527.44</ele>
        <time>2015-03-27T13:19:57Z</time>
      </trkpt>
      <trkpt lat="44.56424" lon="6.86264">
        <ele>2528.89</ele>
        <time>2015-03-27T13:20:08Z</time>
      </trkpt>
      <trkpt lat="44.56441" lon="6.86251">
        <ele>2526.48</ele>
        <time>2015-03-27T13:20:17Z</time>
      </trkpt>
      <trkpt lat="44.56458" lon="6.86243">
        <ele>2523.12</ele>
        <time>2015-03-27T13:20:22Z</time>
      </trkpt>
      <trkpt lat="44.56462" lon="6.86242">
        <ele>2523.12</ele>
        <time>2015-03-27T13:20:23Z</time>
      </trkpt>
      <trkpt lat="44.56481" lon="6.86237">
        <ele>2519.75</ele>
        <time>2015-03-27T13:20:27Z</time>
      </trkpt>
      <trkpt lat="44.56491" lon="6.86234">
        <ele>2518.79</ele>
        <time>2015-03-27T13:20:29Z</time>
      </trkpt>
      <trkpt lat="44.56562" lon="6.86225">
        <ele>2516.39</ele>
        <time>2015-03-27T13:20:46Z</time>
      </trkpt>
      <trkpt lat="44.56586" lon="6.86228">
        <ele>2513.02</ele>
        <time>2015-03-27T13:20:53Z</time>
      </trkpt>
      <trkpt lat="44.56605" lon="6.86226">
        <ele>2510.62</ele>
        <time>2015-03-27T13:20:57Z</time>
      </trkpt>
      <trkpt lat="44.5663" lon="6.86224">
        <ele>2508.22</ele>
        <time>2015-03-27T13:21:02Z</time>
      </trkpt>
      <trkpt lat="44.56671" lon="6.86221">
        <ele>2504.85</ele>
        <time>2015-03-27T13:21:11Z</time>
      </trkpt>
      <trkpt lat="44.56708" lon="6.8622">
        <ele>2502.45</ele>
        <time>2015-03-27T13:21:18Z</time>
      </trkpt>
      <trkpt lat="44.56723" lon="6.86222">
        <ele>2501.49</ele>
        <time>2015-03-27T13:21:21Z</time>
      </trkpt>
      <trkpt lat="44.56733" lon="6.86226">
        <ele>2498.6</ele>
        <time>2015-03-27T13:21:23Z</time>
      </trkpt>
      <trkpt lat="44.56737" lon="6.86228">
        <ele>2498.6</ele>
        <time>2015-03-27T13:21:24Z</time>
      </trkpt>
      <trkpt lat="44.56745" lon="6.86232">
        <ele>2495.24</ele>
        <time>2015-03-27T13:21:26Z</time>
      </trkpt>
      <trkpt lat="44.56749" lon="6.86236">
        <ele>2492.84</ele>
        <time>2015-03-27T13:21:27Z</time>
      </trkpt>
      <trkpt lat="44.56753" lon="6.86239">
        <ele>2493.32</ele>
        <time>2015-03-27T13:21:28Z</time>
      </trkpt>
      <trkpt lat="44.56763" lon="6.86247">
        <ele>2490.91</ele>
        <time>2015-03-27T13:21:30Z</time>
      </trkpt>
      <trkpt lat="44.56768" lon="6.86252">
        <ele>2485.63</ele>
        <time>2015-03-27T13:21:31Z</time>
      </trkpt>
      <trkpt lat="44.5679" lon="6.86271">
        <ele>2482.74</ele>
        <time>2015-03-27T13:21:35Z</time>
      </trkpt>
      <trkpt lat="44.56796" lon="6.86274">
        <ele>2482.26</ele>
        <time>2015-03-27T13:21:36Z</time>
      </trkpt>
      <trkpt lat="44.56801" lon="6.86274">
        <ele>2482.26</ele>
        <time>2015-03-27T13:21:37Z</time>
      </trkpt>
      <trkpt lat="44.56817" lon="6.86276">
        <ele>2482.26</ele>
        <time>2015-03-27T13:21:46Z</time>
      </trkpt>
      <trkpt lat="44.56807" lon="6.86272">
        <ele>2482.26</ele>
        <time>2015-03-27T13:22:14Z</time>
      </trkpt>
      <trkpt lat="44.56805" lon="6.8627">
        <ele>2481.78</ele>
        <time>2015-03-27T13:22:53Z</time>
      </trkpt>
      <trkpt lat="44.56805" lon="6.86269">
        <ele>2480.82</ele>
        <time>2015-03-27T13:23:25Z</time>
      </trkpt>
      <trkpt lat="44.56805" lon="6.86272">
        <ele>2480.34</ele>
        <time>2015-03-27T13:23:49Z</time>
      </trkpt>
      <trkpt lat="44.56805" lon="6.86274">
        <ele>2480.34</ele>
        <time>2015-03-27T13:23:50Z</time>
      </trkpt>
      <trkpt lat="44.56806" lon="6.86276">
        <ele>2479.86</ele>
        <time>2015-03-27T13:23:51Z</time>
      </trkpt>
      <trkpt lat="44.56806" lon="6.86279">
        <ele>2479.86</ele>
        <time>2015-03-27T13:23:52Z</time>
      </trkpt>
      <trkpt lat="44.56805" lon="6.86281">
        <ele>2479.86</ele>
        <time>2015-03-27T13:23:53Z</time>
      </trkpt>
      <trkpt lat="44.56805" lon="6.86282">
        <ele>2479.86</ele>
        <time>2015-03-27T13:23:54Z</time>
      </trkpt>
      <trkpt lat="44.56804" lon="6.86285">
        <ele>2478.9</ele>
        <time>2015-03-27T13:23:55Z</time>
      </trkpt>
      <trkpt lat="44.56804" lon="6.86287">
        <ele>2478.9</ele>
        <time>2015-03-27T13:23:56Z</time>
      </trkpt>
      <trkpt lat="44.56804" lon="6.8629">
        <ele>2478.42</ele>
        <time>2015-03-27T13:23:57Z</time>
      </trkpt>
      <trkpt lat="44.56805" lon="6.86292">
        <ele>2478.42</ele>
        <time>2015-03-27T13:23:58Z</time>
      </trkpt>
      <trkpt lat="44.56807" lon="6.86294">
        <ele>2477.45</ele>
        <time>2015-03-27T13:23:59Z</time>
      </trkpt>
      <trkpt lat="44.56808" lon="6.86296">
        <ele>2477.45</ele>
        <time>2015-03-27T13:24:00Z</time>
      </trkpt>
      <trkpt lat="44.5681" lon="6.86296">
        <ele>2476.97</ele>
        <time>2015-03-27T13:24:14Z</time>
      </trkpt>
      <trkpt lat="44.56807" lon="6.86299">
        <ele>2476.01</ele>
        <time>2015-03-27T13:24:20Z</time>
      </trkpt>
      <trkpt lat="44.56803" lon="6.86304">
        <ele>2473.13</ele>
        <time>2015-03-27T13:24:22Z</time>
      </trkpt>
      <trkpt lat="44.56802" lon="6.86308">
        <ele>2470.24</ele>
        <time>2015-03-27T13:24:23Z</time>
      </trkpt>
      <trkpt lat="44.56802" lon="6.86314">
        <ele>2470.24</ele>
        <time>2015-03-27T13:24:24Z</time>
      </trkpt>
      <trkpt lat="44.56803" lon="6.8632">
        <ele>2467.84</ele>
        <time>2015-03-27T13:24:25Z</time>
      </trkpt>
      <trkpt lat="44.56805" lon="6.86328">
        <ele>2466.88</ele>
        <time>2015-03-27T13:24:26Z</time>
      </trkpt>
      <trkpt lat="44.56807" lon="6.86333">
        <ele>2466.88</ele>
        <time>2015-03-27T13:24:27Z</time>
      </trkpt>
      <trkpt lat="44.56813" lon="6.86354">
        <ele>2467.36</ele>
        <time>2015-03-27T13:24:36Z</time>
      </trkpt>
      <trkpt lat="44.56813" lon="6.86355">
        <ele>2467.36</ele>
        <time>2015-03-27T13:24:37Z</time>
      </trkpt>
      <trkpt lat="44.56813" lon="6.8636">
        <ele>2465.44</ele>
        <time>2015-03-27T13:24:43Z</time>
      </trkpt>
      <trkpt lat="44.56813" lon="6.86362">
        <ele>2464.96</ele>
        <time>2015-03-27T13:24:44Z</time>
      </trkpt>
      <trkpt lat="44.56813" lon="6.86364">
        <ele>2463.52</ele>
        <time>2015-03-27T13:24:45Z</time>
      </trkpt>
      <trkpt lat="44.56812" lon="6.86366">
        <ele>2463.52</ele>
        <time>2015-03-27T13:24:46Z</time>
      </trkpt>
      <trkpt lat="44.56811" lon="6.86369">
        <ele>2463.04</ele>
        <time>2015-03-27T13:24:47Z</time>
      </trkpt>
      <trkpt lat="44.5681" lon="6.86386">
        <ele>2458.23</ele>
        <time>2015-03-27T13:24:52Z</time>
      </trkpt>
      <trkpt lat="44.56811" lon="6.86392">
        <ele>2454.86</ele>
        <time>2015-03-27T13:24:54Z</time>
      </trkpt>
      <trkpt lat="44.56812" lon="6.86398">
        <ele>2452.94</ele>
        <time>2015-03-27T13:24:56Z</time>
      </trkpt>
      <trkpt lat="44.56811" lon="6.86401">
        <ele>2452.94</ele>
        <time>2015-03-27T13:24:57Z</time>
      </trkpt>
      <trkpt lat="44.56811" lon="6.86403">
        <ele>2452.94</ele>
        <time>2015-03-27T13:24:58Z</time>
      </trkpt>
      <trkpt lat="44.56808" lon="6.86414">
        <ele>2449.58</ele>
        <time>2015-03-27T13:25:04Z</time>
      </trkpt>
      <trkpt lat="44.56808" lon="6.86419">
        <ele>2448.62</ele>
        <time>2015-03-27T13:25:05Z</time>
      </trkpt>
      <trkpt lat="44.56808" lon="6.86423">
        <ele>2448.13</ele>
        <time>2015-03-27T13:25:06Z</time>
      </trkpt>
      <trkpt lat="44.5681" lon="6.86433">
        <ele>2446.69</ele>
        <time>2015-03-27T13:25:08Z</time>
      </trkpt>
      <trkpt lat="44.56812" lon="6.8645">
        <ele>2443.33</ele>
        <time>2015-03-27T13:25:11Z</time>
      </trkpt>
      <trkpt lat="44.56815" lon="6.8647">
        <ele>2441.89</ele>
        <time>2015-03-27T13:25:14Z</time>
      </trkpt>
      <trkpt lat="44.56814" lon="6.86515">
        <ele>2438.04</ele>
        <time>2015-03-27T13:25:22Z</time>
      </trkpt>
      <trkpt lat="44.5681" lon="6.86531">
        <ele>2434.68</ele>
        <time>2015-03-27T13:25:25Z</time>
      </trkpt>
      <trkpt lat="44.56798" lon="6.86571">
        <ele>2431.79</ele>
        <time>2015-03-27T13:25:31Z</time>
      </trkpt>
      <trkpt lat="44.56793" lon="6.8659">
        <ele>2428.43</ele>
        <time>2015-03-27T13:25:34Z</time>
      </trkpt>
      <trkpt lat="44.56787" lon="6.86629">
        <ele>2425.06</ele>
        <time>2015-03-27T13:25:41Z</time>
      </trkpt>
      <trkpt lat="44.56772" lon="6.86666">
        <ele>2422.18</ele>
        <time>2015-03-27T13:25:52Z</time>
      </trkpt>
      <trkpt lat="44.56772" lon="6.86665">
        <ele>2422.18</ele>
        <time>2015-03-27T13:26:07Z</time>
      </trkpt>
      <trkpt lat="44.56767" lon="6.86675">
        <ele>2420.74</ele>
        <time>2015-03-27T13:26:22Z</time>
      </trkpt>
      <trkpt lat="44.56762" lon="6.86686">
        <ele>2418.33</ele>
        <time>2015-03-27T13:26:25Z</time>
      </trkpt>
      <trkpt lat="44.56761" lon="6.86691">
        <ele>2416.41</ele>
        <time>2015-03-27T13:26:26Z</time>
      </trkpt>
      <trkpt lat="44.56761" lon="6.86696">
        <ele>2414.49</ele>
        <time>2015-03-27T13:26:27Z</time>
      </trkpt>
      <trkpt lat="44.5676" lon="6.86701">
        <ele>2413.05</ele>
        <time>2015-03-27T13:26:28Z</time>
      </trkpt>
      <trkpt lat="44.56758" lon="6.86707">
        <ele>2411.12</ele>
        <time>2015-03-27T13:26:29Z</time>
      </trkpt>
      <trkpt lat="44.56753" lon="6.86726">
        <ele>2406.8</ele>
        <time>2015-03-27T13:26:32Z</time>
      </trkpt>
      <trkpt lat="44.56751" lon="6.86733">
        <ele>2402.95</ele>
        <time>2015-03-27T13:26:33Z</time>
      </trkpt>
      <trkpt lat="44.56749" lon="6.86741">
        <ele>2401.51</ele>
        <time>2015-03-27T13:26:34Z</time>
      </trkpt>
      <trkpt lat="44.56748" lon="6.86749">
        <ele>2399.11</ele>
        <time>2015-03-27T13:26:35Z</time>
      </trkpt>
      <trkpt lat="44.56747" lon="6.86765">
        <ele>2394.3</ele>
        <time>2015-03-27T13:26:37Z</time>
      </trkpt>
      <trkpt lat="44.56746" lon="6.86773">
        <ele>2392.86</ele>
        <time>2015-03-27T13:26:38Z</time>
      </trkpt>
      <trkpt lat="44.56744" lon="6.86781">
        <ele>2390.94</ele>
        <time>2015-03-27T13:26:39Z</time>
      </trkpt>
      <trkpt lat="44.56742" lon="6.8679">
        <ele>2387.57</ele>
        <time>2015-03-27T13:26:40Z</time>
      </trkpt>
      <trkpt lat="44.56739" lon="6.86807">
        <ele>2384.21</ele>
        <time>2015-03-27T13:26:42Z</time>
      </trkpt>
      <trkpt lat="44.56738" lon="6.86823">
        <ele>2379.88</ele>
        <time>2015-03-27T13:26:44Z</time>
      </trkpt>
      <trkpt lat="44.56738" lon="6.86834">
        <ele>2377</ele>
        <time>2015-03-27T13:26:45Z</time>
      </trkpt>
      <trkpt lat="44.56739" lon="6.86842">
        <ele>2375.07</ele>
        <time>2015-03-27T13:26:46Z</time>
      </trkpt>
      <trkpt lat="44.5674" lon="6.86851">
        <ele>2373.15</ele>
        <time>2015-03-27T13:26:47Z</time>
      </trkpt>
      <trkpt lat="44.56742" lon="6.86861">
        <ele>2370.27</ele>
        <time>2015-03-27T13:26:48Z</time>
      </trkpt>
      <trkpt lat="44.56745" lon="6.86879">
        <ele>2366.42</ele>
        <time>2015-03-27T13:26:50Z</time>
      </trkpt>
      <trkpt lat="44.56747" lon="6.86886">
        <ele>2366.42</ele>
        <time>2015-03-27T13:26:51Z</time>
      </trkpt>
      <trkpt lat="44.5675" lon="6.86893">
        <ele>2365.46</ele>
        <time>2015-03-27T13:26:52Z</time>
      </trkpt>
      <trkpt lat="44.56752" lon="6.86901">
        <ele>2363.06</ele>
        <time>2015-03-27T13:26:53Z</time>
      </trkpt>
      <trkpt lat="44.56756" lon="6.86906">
        <ele>2362.58</ele>
        <time>2015-03-27T13:26:54Z</time>
      </trkpt>
      <trkpt lat="44.56759" lon="6.86912">
        <ele>2361.62</ele>
        <time>2015-03-27T13:26:55Z</time>
      </trkpt>
      <trkpt lat="44.56762" lon="6.86916">
        <ele>2360.17</ele>
        <time>2015-03-27T13:26:56Z</time>
      </trkpt>
      <trkpt lat="44.56765" lon="6.8692">
        <ele>2360.65</ele>
        <time>2015-03-27T13:26:57Z</time>
      </trkpt>
      <trkpt lat="44.56769" lon="6.86921">
        <ele>2360.65</ele>
        <time>2015-03-27T13:26:58Z</time>
      </trkpt>
      <trkpt lat="44.56771" lon="6.86923">
        <ele>2360.65</ele>
        <time>2015-03-27T13:26:59Z</time>
      </trkpt>
      <trkpt lat="44.56772" lon="6.86924">
        <ele>2360.65</ele>
        <time>2015-03-27T13:27:00Z</time>
      </trkpt>
      <trkpt lat="44.56779" lon="6.86917">
        <ele>2360.17</ele>
        <time>2015-03-27T13:27:18Z</time>
      </trkpt>
      <trkpt lat="44.56779" lon="6.86905">
        <ele>2360.17</ele>
        <time>2015-03-27T13:27:43Z</time>
      </trkpt>
      <trkpt lat="44.56774" lon="6.86905">
        <ele>2360.65</ele>
        <time>2015-03-27T13:28:17Z</time>
      </trkpt>
      <trkpt lat="44.56778" lon="6.869">
        <ele>2359.21</ele>
        <time>2015-03-27T13:28:38Z</time>
      </trkpt>
      <trkpt lat="44.5678" lon="6.869">
        <ele>2357.77</ele>
        <time>2015-03-27T13:28:39Z</time>
      </trkpt>
      <trkpt lat="44.56791" lon="6.86899">
        <ele>2354.41</ele>
        <time>2015-03-27T13:28:42Z</time>
      </trkpt>
      <trkpt lat="44.568" lon="6.869">
        <ele>2353.93</ele>
        <time>2015-03-27T13:28:44Z</time>
      </trkpt>
      <trkpt lat="44.56805" lon="6.86902">
        <ele>2353.93</ele>
        <time>2015-03-27T13:28:45Z</time>
      </trkpt>
      <trkpt lat="44.56842" lon="6.86915">
        <ele>2352</ele>
        <time>2015-03-27T13:28:54Z</time>
      </trkpt>
      <trkpt lat="44.56859" lon="6.86914">
        <ele>2349.12</ele>
        <time>2015-03-27T13:28:58Z</time>
      </trkpt>
      <trkpt lat="44.56869" lon="6.86913">
        <ele>2348.16</ele>
        <time>2015-03-27T13:29:00Z</time>
      </trkpt>
      <trkpt lat="44.56928" lon="6.86888">
        <ele>2346.23</ele>
        <time>2015-03-27T13:29:14Z</time>
      </trkpt>
      <trkpt lat="44.56931" lon="6.86884">
        <ele>2348.64</ele>
        <time>2015-03-27T13:29:16Z</time>
      </trkpt>
      <trkpt lat="44.56946" lon="6.86859">
        <ele>2348.64</ele>
        <time>2015-03-27T13:29:32Z</time>
      </trkpt>
      <trkpt lat="44.5695" lon="6.86855">
        <ele>2350.56</ele>
        <time>2015-03-27T13:29:52Z</time>
      </trkpt>
      <trkpt lat="44.56961" lon="6.86851">
        <ele>2352.48</ele>
        <time>2015-03-27T13:30:12Z</time>
      </trkpt>
      <trkpt lat="44.56976" lon="6.86837">
        <ele>2353.93</ele>
        <time>2015-03-27T13:30:36Z</time>
      </trkpt>
      <trkpt lat="44.56988" lon="6.86828">
        <ele>2354.41</ele>
        <time>2015-03-27T13:30:54Z</time>
      </trkpt>
      <trkpt lat="44.5699" lon="6.86828">
        <ele>2354.41</ele>
        <time>2015-03-27T13:30:55Z</time>
      </trkpt>
      <trkpt lat="44.5701" lon="6.86823">
        <ele>2354.41</ele>
        <time>2015-03-27T13:31:17Z</time>
      </trkpt>
      <trkpt lat="44.57012" lon="6.86821">
        <ele>2354.41</ele>
        <time>2015-03-27T13:31:36Z</time>
      </trkpt>
      <trkpt lat="44.57007" lon="6.86814">
        <ele>2354.41</ele>
        <time>2015-03-27T13:32:02Z</time>
      </trkpt>
      <trkpt lat="44.57004" lon="6.86817">
        <ele>2354.89</ele>
        <time>2015-03-27T13:32:32Z</time>
      </trkpt>
      <trkpt lat="44.57013" lon="6.86812">
        <ele>2352.96</ele>
        <time>2015-03-27T13:32:45Z</time>
      </trkpt>
      <trkpt lat="44.57015" lon="6.86815">
        <ele>2352</ele>
        <time>2015-03-27T13:32:46Z</time>
      </trkpt>
      <trkpt lat="44.57016" lon="6.86818">
        <ele>2351.52</ele>
        <time>2015-03-27T13:32:47Z</time>
      </trkpt>
      <trkpt lat="44.57017" lon="6.86821">
        <ele>2350.56</ele>
        <time>2015-03-27T13:32:48Z</time>
      </trkpt>
      <trkpt lat="44.57019" lon="6.86823">
        <ele>2349.12</ele>
        <time>2015-03-27T13:32:49Z</time>
      </trkpt>
      <trkpt lat="44.57021" lon="6.86825">
        <ele>2348.16</ele>
        <time>2015-03-27T13:32:50Z</time>
      </trkpt>
      <trkpt lat="44.57024" lon="6.86827">
        <ele>2344.31</ele>
        <time>2015-03-27T13:32:51Z</time>
      </trkpt>
      <trkpt lat="44.57027" lon="6.86829">
        <ele>2343.35</ele>
        <time>2015-03-27T13:32:52Z</time>
      </trkpt>
      <trkpt lat="44.57031" lon="6.8683">
        <ele>2340.47</ele>
        <time>2015-03-27T13:32:53Z</time>
      </trkpt>
      <trkpt lat="44.57036" lon="6.8683">
        <ele>2337.1</ele>
        <time>2015-03-27T13:32:54Z</time>
      </trkpt>
      <trkpt lat="44.57041" lon="6.8683">
        <ele>2335.18</ele>
        <time>2015-03-27T13:32:55Z</time>
      </trkpt>
      <trkpt lat="44.57047" lon="6.8683">
        <ele>2333.74</ele>
        <time>2015-03-27T13:32:56Z</time>
      </trkpt>
      <trkpt lat="44.57053" lon="6.86829">
        <ele>2329.41</ele>
        <time>2015-03-27T13:32:57Z</time>
      </trkpt>
      <trkpt lat="44.5706" lon="6.86828">
        <ele>2327.49</ele>
        <time>2015-03-27T13:32:58Z</time>
      </trkpt>
      <trkpt lat="44.57067" lon="6.86829">
        <ele>2325.57</ele>
        <time>2015-03-27T13:32:59Z</time>
      </trkpt>
      <trkpt lat="44.57074" lon="6.86831">
        <ele>2325.57</ele>
        <time>2015-03-27T13:33:00Z</time>
      </trkpt>
      <trkpt lat="44.57105" lon="6.8684">
        <ele>2327.01</ele>
        <time>2015-03-27T13:33:08Z</time>
      </trkpt>
      <trkpt lat="44.57147" lon="6.86806">
        <ele>2324.12</ele>
        <time>2015-03-27T13:33:23Z</time>
      </trkpt>
      <trkpt lat="44.57174" lon="6.86762">
        <ele>2321.72</ele>
        <time>2015-03-27T13:33:37Z</time>
      </trkpt>
      <trkpt lat="44.57189" lon="6.86725">
        <ele>2318.36</ele>
        <time>2015-03-27T13:33:46Z</time>
      </trkpt>
      <trkpt lat="44.57192" lon="6.86718">
        <ele>2318.36</ele>
        <time>2015-03-27T13:33:47Z</time>
      </trkpt>
      <trkpt lat="44.57197" lon="6.86704">
        <ele>2314.99</ele>
        <time>2015-03-27T13:33:49Z</time>
      </trkpt>
      <trkpt lat="44.57199" lon="6.86695">
        <ele>2314.51</ele>
        <time>2015-03-27T13:33:50Z</time>
      </trkpt>
      <trkpt lat="44.57201" lon="6.86686">
        <ele>2313.55</ele>
        <time>2015-03-27T13:33:51Z</time>
      </trkpt>
      <trkpt lat="44.57203" lon="6.86678">
        <ele>2313.55</ele>
        <time>2015-03-27T13:33:52Z</time>
      </trkpt>
      <trkpt lat="44.57215" lon="6.86624">
        <ele>2311.15</ele>
        <time>2015-03-27T13:33:58Z</time>
      </trkpt>
      <trkpt lat="44.5722" lon="6.86599">
        <ele>2307.3</ele>
        <time>2015-03-27T13:34:01Z</time>
      </trkpt>
      <trkpt lat="44.57231" lon="6.86554">
        <ele>2304.42</ele>
        <time>2015-03-27T13:34:07Z</time>
      </trkpt>
      <trkpt lat="44.57233" lon="6.86547">
        <ele>2304.42</ele>
        <time>2015-03-27T13:34:08Z</time>
      </trkpt>
      <trkpt lat="44.57247" lon="6.86511">
        <ele>2303.94</ele>
        <time>2015-03-27T13:34:17Z</time>
      </trkpt>
      <trkpt lat="44.57268" lon="6.86482">
        <ele>2300.57</ele>
        <time>2015-03-27T13:34:25Z</time>
      </trkpt>
      <trkpt lat="44.57303" lon="6.8646">
        <ele>2300.09</ele>
        <time>2015-03-27T13:34:39Z</time>
      </trkpt>
      <trkpt lat="44.57313" lon="6.86462">
        <ele>2300.09</ele>
        <time>2015-03-27T13:34:56Z</time>
      </trkpt>
      <trkpt lat="44.57311" lon="6.86465">
        <ele>2300.09</ele>
        <time>2015-03-27T13:35:27Z</time>
      </trkpt>
      <trkpt lat="44.5731" lon="6.86458">
        <ele>2298.65</ele>
        <time>2015-03-27T13:36:01Z</time>
      </trkpt>
      <trkpt lat="44.57325" lon="6.86462">
        <ele>2300.57</ele>
        <time>2015-03-27T13:36:22Z</time>
      </trkpt>
      <trkpt lat="44.57336" lon="6.8647">
        <ele>2302.49</ele>
        <time>2015-03-27T13:36:43Z</time>
      </trkpt>
      <trkpt lat="44.57336" lon="6.86473">
        <ele>2305.38</ele>
        <time>2015-03-27T13:37:02Z</time>
      </trkpt>
      <trkpt lat="44.57339" lon="6.86472">
        <ele>2304.42</ele>
        <time>2015-03-27T13:37:31Z</time>
      </trkpt>
      <trkpt lat="44.57338" lon="6.86476">
        <ele>2304.42</ele>
        <time>2015-03-27T13:37:33Z</time>
      </trkpt>
      <trkpt lat="44.57342" lon="6.86502">
        <ele>2302.49</ele>
        <time>2015-03-27T13:37:46Z</time>
      </trkpt>
      <trkpt lat="44.57348" lon="6.86506">
        <ele>2302.49</ele>
        <time>2015-03-27T13:37:49Z</time>
      </trkpt>
      <trkpt lat="44.57375" lon="6.86504">
        <ele>2300.09</ele>
        <time>2015-03-27T13:38:00Z</time>
      </trkpt>
      <trkpt lat="44.574" lon="6.86498">
        <ele>2297.69</ele>
        <time>2015-03-27T13:38:09Z</time>
      </trkpt>
      <trkpt lat="44.57408" lon="6.86493">
        <ele>2291.44</ele>
        <time>2015-03-27T13:38:11Z</time>
      </trkpt>
      <trkpt lat="44.57418" lon="6.86485">
        <ele>2286.15</ele>
        <time>2015-03-27T13:38:13Z</time>
      </trkpt>
      <trkpt lat="44.57429" lon="6.86472">
        <ele>2283.75</ele>
        <time>2015-03-27T13:38:15Z</time>
      </trkpt>
      <trkpt lat="44.57439" lon="6.86461">
        <ele>2284.71</ele>
        <time>2015-03-27T13:38:17Z</time>
      </trkpt>
      <trkpt lat="44.5746" lon="6.86437">
        <ele>2283.75</ele>
        <time>2015-03-27T13:38:24Z</time>
      </trkpt>
      <trkpt lat="44.57477" lon="6.86424">
        <ele>2281.83</ele>
        <time>2015-03-27T13:38:29Z</time>
      </trkpt>
      <trkpt lat="44.57478" lon="6.8642">
        <ele>2279.9</ele>
        <time>2015-03-27T13:38:30Z</time>
      </trkpt>
      <trkpt lat="44.57481" lon="6.86415">
        <ele>2277.5</ele>
        <time>2015-03-27T13:38:31Z</time>
      </trkpt>
      <trkpt lat="44.57484" lon="6.8641">
        <ele>2275.1</ele>
        <time>2015-03-27T13:38:32Z</time>
      </trkpt>
      <trkpt lat="44.57487" lon="6.86406">
        <ele>2273.66</ele>
        <time>2015-03-27T13:38:33Z</time>
      </trkpt>
      <trkpt lat="44.57491" lon="6.86402">
        <ele>2273.66</ele>
        <time>2015-03-27T13:38:34Z</time>
      </trkpt>
      <trkpt lat="44.57495" lon="6.86399">
        <ele>2273.66</ele>
        <time>2015-03-27T13:38:35Z</time>
      </trkpt>
      <trkpt lat="44.57521" lon="6.86382">
        <ele>2271.73</ele>
        <time>2015-03-27T13:38:43Z</time>
      </trkpt>
      <trkpt lat="44.57526" lon="6.86377">
        <ele>2270.29</ele>
        <time>2015-03-27T13:38:44Z</time>
      </trkpt>
      <trkpt lat="44.57531" lon="6.86372">
        <ele>2268.85</ele>
        <time>2015-03-27T13:38:45Z</time>
      </trkpt>
      <trkpt lat="44.57541" lon="6.86359">
        <ele>2264.52</ele>
        <time>2015-03-27T13:38:47Z</time>
      </trkpt>
      <trkpt lat="44.57549" lon="6.86344">
        <ele>2259.72</ele>
        <time>2015-03-27T13:38:49Z</time>
      </trkpt>
      <trkpt lat="44.57553" lon="6.86335">
        <ele>2256.83</ele>
        <time>2015-03-27T13:38:50Z</time>
      </trkpt>
      <trkpt lat="44.57559" lon="6.86315">
        <ele>2251.06</ele>
        <time>2015-03-27T13:38:52Z</time>
      </trkpt>
      <trkpt lat="44.57568" lon="6.86293">
        <ele>2247.22</ele>
        <time>2015-03-27T13:38:54Z</time>
      </trkpt>
      <trkpt lat="44.57579" lon="6.86273">
        <ele>2245.78</ele>
        <time>2015-03-27T13:38:56Z</time>
      </trkpt>
      <trkpt lat="44.57584" lon="6.86264">
        <ele>2245.78</ele>
        <time>2015-03-27T13:38:57Z</time>
      </trkpt>
      <trkpt lat="44.57589" lon="6.86256">
        <ele>2245.78</ele>
        <time>2015-03-27T13:38:58Z</time>
      </trkpt>
      <trkpt lat="44.57598" lon="6.86243">
        <ele>2247.22</ele>
        <time>2015-03-27T13:39:00Z</time>
      </trkpt>
      <trkpt lat="44.57607" lon="6.86231">
        <ele>2246.26</ele>
        <time>2015-03-27T13:39:02Z</time>
      </trkpt>
      <trkpt lat="44.57635" lon="6.86185">
        <ele>2242.89</ele>
        <time>2015-03-27T13:39:12Z</time>
      </trkpt>
      <trkpt lat="44.57655" lon="6.86158">
        <ele>2241.93</ele>
        <time>2015-03-27T13:39:29Z</time>
      </trkpt>
      <trkpt lat="44.57656" lon="6.86145">
        <ele>2240.49</ele>
        <time>2015-03-27T13:39:54Z</time>
      </trkpt>
      <trkpt lat="44.57668" lon="6.86127">
        <ele>2237.13</ele>
        <time>2015-03-27T13:39:59Z</time>
      </trkpt>
      <trkpt lat="44.57672" lon="6.8612">
        <ele>2234.24</ele>
        <time>2015-03-27T13:40:01Z</time>
      </trkpt>
      <trkpt lat="44.57678" lon="6.86112">
        <ele>2229.92</ele>
        <time>2015-03-27T13:40:04Z</time>
      </trkpt>
      <trkpt lat="44.57679" lon="6.86106">
        <ele>2226.55</ele>
        <time>2015-03-27T13:40:06Z</time>
      </trkpt>
      <trkpt lat="44.57682" lon="6.86097">
        <ele>2224.63</ele>
        <time>2015-03-27T13:40:08Z</time>
      </trkpt>
      <trkpt lat="44.57686" lon="6.86092">
        <ele>2222.22</ele>
        <time>2015-03-27T13:40:09Z</time>
      </trkpt>
      <trkpt lat="44.5769" lon="6.86086">
        <ele>2222.22</ele>
        <time>2015-03-27T13:40:10Z</time>
      </trkpt>
      <trkpt lat="44.5772" lon="6.86047">
        <ele>2219.82</ele>
        <time>2015-03-27T13:40:18Z</time>
      </trkpt>
      <trkpt lat="44.57736" lon="6.86025">
        <ele>2216.94</ele>
        <time>2015-03-27T13:40:23Z</time>
      </trkpt>
      <trkpt lat="44.57751" lon="6.86011">
        <ele>2212.13</ele>
        <time>2015-03-27T13:40:26Z</time>
      </trkpt>
      <trkpt lat="44.57756" lon="6.86008">
        <ele>2213.57</ele>
        <time>2015-03-27T13:40:27Z</time>
      </trkpt>
      <trkpt lat="44.5776" lon="6.86006">
        <ele>2214.53</ele>
        <time>2015-03-27T13:40:28Z</time>
      </trkpt>
      <trkpt lat="44.57764" lon="6.86006">
        <ele>2214.53</ele>
        <time>2015-03-27T13:40:29Z</time>
      </trkpt>
      <trkpt lat="44.57767" lon="6.86007">
        <ele>2214.53</ele>
        <time>2015-03-27T13:40:30Z</time>
      </trkpt>
      <trkpt lat="44.57771" lon="6.86008">
        <ele>2212.61</ele>
        <time>2015-03-27T13:40:31Z</time>
      </trkpt>
      <trkpt lat="44.57774" lon="6.86009">
        <ele>2212.61</ele>
        <time>2015-03-27T13:40:32Z</time>
      </trkpt>
      <trkpt lat="44.57778" lon="6.86009">
        <ele>2212.61</ele>
        <time>2015-03-27T13:40:33Z</time>
      </trkpt>
      <trkpt lat="44.57792" lon="6.86006">
        <ele>2214.53</ele>
        <time>2015-03-27T13:40:42Z</time>
      </trkpt>
      <trkpt lat="44.57789" lon="6.86003">
        <ele>2215.01</ele>
        <time>2015-03-27T13:40:57Z</time>
      </trkpt>
      <trkpt lat="44.57789" lon="6.85996">
        <ele>2215.98</ele>
        <time>2015-03-27T13:41:12Z</time>
      </trkpt>
      <trkpt lat="44.57789" lon="6.85987">
        <ele>2217.9</ele>
        <time>2015-03-27T13:41:28Z</time>
      </trkpt>
      <trkpt lat="44.57794" lon="6.85989">
        <ele>2217.42</ele>
        <time>2015-03-27T13:41:54Z</time>
      </trkpt>
      <trkpt lat="44.57795" lon="6.85984">
        <ele>2217.9</ele>
        <time>2015-03-27T13:42:05Z</time>
      </trkpt>
      <trkpt lat="44.57796" lon="6.85985">
        <ele>2216.94</ele>
        <time>2015-03-27T13:42:06Z</time>
      </trkpt>
      <trkpt lat="44.57798" lon="6.85986">
        <ele>2216.94</ele>
        <time>2015-03-27T13:42:07Z</time>
      </trkpt>
      <trkpt lat="44.57804" lon="6.85992">
        <ele>2212.61</ele>
        <time>2015-03-27T13:42:09Z</time>
      </trkpt>
      <trkpt lat="44.57813" lon="6.86001">
        <ele>2208.77</ele>
        <time>2015-03-27T13:42:11Z</time>
      </trkpt>
      <trkpt lat="44.57836" lon="6.86031">
        <ele>2209.25</ele>
        <time>2015-03-27T13:42:15Z</time>
      </trkpt>
      <trkpt lat="44.57844" lon="6.86044">
        <ele>2210.21</ele>
        <time>2015-03-27T13:42:17Z</time>
      </trkpt>
      <trkpt lat="44.57846" lon="6.86046">
        <ele>2210.69</ele>
        <time>2015-03-27T13:42:18Z</time>
      </trkpt>
      <trkpt lat="44.5785" lon="6.86044">
        <ele>2212.61</ele>
        <time>2015-03-27T13:42:30Z</time>
      </trkpt>
      <trkpt lat="44.57852" lon="6.86043">
        <ele>2215.01</ele>
        <time>2015-03-27T13:42:52Z</time>
      </trkpt>
      <trkpt lat="44.5785" lon="6.8604">
        <ele>2215.01</ele>
        <time>2015-03-27T13:43:17Z</time>
      </trkpt>
      <trkpt lat="44.57854" lon="6.86038">
        <ele>2215.01</ele>
        <time>2015-03-27T13:43:30Z</time>
      </trkpt>
      <trkpt lat="44.57868" lon="6.86034">
        <ele>2216.46</ele>
        <time>2015-03-27T13:43:53Z</time>
      </trkpt>
      <trkpt lat="44.57873" lon="6.86038">
        <ele>2217.42</ele>
        <time>2015-03-27T13:44:10Z</time>
      </trkpt>
      <trkpt lat="44.57875" lon="6.86034">
        <ele>2216.94</ele>
        <time>2015-03-27T13:44:32Z</time>
      </trkpt>
      <trkpt lat="44.57878" lon="6.86036">
        <ele>2216.46</ele>
        <time>2015-03-27T13:44:37Z</time>
      </trkpt>
      <trkpt lat="44.5788" lon="6.86035">
        <ele>2216.46</ele>
        <time>2015-03-27T13:44:38Z</time>
      </trkpt>
      <trkpt lat="44.57896" lon="6.86025">
        <ele>2214.05</ele>
        <time>2015-03-27T13:44:44Z</time>
      </trkpt>
      <trkpt lat="44.57901" lon="6.86023">
        <ele>2212.61</ele>
        <time>2015-03-27T13:44:45Z</time>
      </trkpt>
      <trkpt lat="44.57905" lon="6.86023">
        <ele>2212.61</ele>
        <time>2015-03-27T13:44:46Z</time>
      </trkpt>
      <trkpt lat="44.57909" lon="6.86021">
        <ele>2212.13</ele>
        <time>2015-03-27T13:44:47Z</time>
      </trkpt>
      <trkpt lat="44.57912" lon="6.86017">
        <ele>2210.69</ele>
        <time>2015-03-27T13:44:48Z</time>
      </trkpt>
      <trkpt lat="44.57916" lon="6.86014">
        <ele>2208.77</ele>
        <time>2015-03-27T13:44:49Z</time>
      </trkpt>
      <trkpt lat="44.5792" lon="6.8601">
        <ele>2208.29</ele>
        <time>2015-03-27T13:44:50Z</time>
      </trkpt>
      <trkpt lat="44.57924" lon="6.86008">
        <ele>2207.81</ele>
        <time>2015-03-27T13:44:51Z</time>
      </trkpt>
      <trkpt lat="44.57929" lon="6.86006">
        <ele>2207.32</ele>
        <time>2015-03-27T13:44:52Z</time>
      </trkpt>
      <trkpt lat="44.57939" lon="6.86001">
        <ele>2206.84</ele>
        <time>2015-03-27T13:44:54Z</time>
      </trkpt>
      <trkpt lat="44.57947" lon="6.85995">
        <ele>2205.4</ele>
        <time>2015-03-27T13:44:56Z</time>
      </trkpt>
      <trkpt lat="44.57963" lon="6.85986">
        <ele>2203.96</ele>
        <time>2015-03-27T13:45:00Z</time>
      </trkpt>
      <trkpt lat="44.57968" lon="6.85985">
        <ele>2203.96</ele>
        <time>2015-03-27T13:45:01Z</time>
      </trkpt>
      <trkpt lat="44.57972" lon="6.85984">
        <ele>2203.48</ele>
        <time>2015-03-27T13:45:02Z</time>
      </trkpt>
      <trkpt lat="44.5798" lon="6.85984">
        <ele>2202.52</ele>
        <time>2015-03-27T13:45:04Z</time>
      </trkpt>
      <trkpt lat="44.57985" lon="6.85984">
        <ele>2202.04</ele>
        <time>2015-03-27T13:45:05Z</time>
      </trkpt>
      <trkpt lat="44.57989" lon="6.85985">
        <ele>2201.08</ele>
        <time>2015-03-27T13:45:06Z</time>
      </trkpt>
      <trkpt lat="44.57993" lon="6.85987">
        <ele>2200.59</ele>
        <time>2015-03-27T13:45:07Z</time>
      </trkpt>
      <trkpt lat="44.58007" lon="6.85991">
        <ele>2199.15</ele>
        <time>2015-03-27T13:45:10Z</time>
      </trkpt>
      <trkpt lat="44.58018" lon="6.85991">
        <ele>2197.23</ele>
        <time>2015-03-27T13:45:12Z</time>
      </trkpt>
      <trkpt lat="44.58024" lon="6.85989">
        <ele>2193.39</ele>
        <time>2015-03-27T13:45:13Z</time>
      </trkpt>
      <trkpt lat="44.5803" lon="6.85986">
        <ele>2191.46</ele>
        <time>2015-03-27T13:45:14Z</time>
      </trkpt>
      <trkpt lat="44.58037" lon="6.85984">
        <ele>2191.46</ele>
        <time>2015-03-27T13:45:15Z</time>
      </trkpt>
      <trkpt lat="44.58044" lon="6.85981">
        <ele>2189.54</ele>
        <time>2015-03-27T13:45:16Z</time>
      </trkpt>
      <trkpt lat="44.5805" lon="6.85978">
        <ele>2189.54</ele>
        <time>2015-03-27T13:45:17Z</time>
      </trkpt>
      <trkpt lat="44.58076" lon="6.85973">
        <ele>2186.18</ele>
        <time>2015-03-27T13:45:21Z</time>
      </trkpt>
      <trkpt lat="44.5809" lon="6.8597">
        <ele>2182.81</ele>
        <time>2015-03-27T13:45:23Z</time>
      </trkpt>
      <trkpt lat="44.58118" lon="6.85959">
        <ele>2177.52</ele>
        <time>2015-03-27T13:45:27Z</time>
      </trkpt>
      <trkpt lat="44.58125" lon="6.85953">
        <ele>2177.04</ele>
        <time>2015-03-27T13:45:28Z</time>
      </trkpt>
      <trkpt lat="44.58143" lon="6.85943">
        <ele>2175.12</ele>
        <time>2015-03-27T13:45:31Z</time>
      </trkpt>
      <trkpt lat="44.5815" lon="6.85943">
        <ele>2174.16</ele>
        <time>2015-03-27T13:45:32Z</time>
      </trkpt>
      <trkpt lat="44.58155" lon="6.85945">
        <ele>2172.72</ele>
        <time>2015-03-27T13:45:33Z</time>
      </trkpt>
      <trkpt lat="44.58161" lon="6.85948">
        <ele>2172.24</ele>
        <time>2015-03-27T13:45:34Z</time>
      </trkpt>
      <trkpt lat="44.58166" lon="6.8595">
        <ele>2172.24</ele>
        <time>2015-03-27T13:45:35Z</time>
      </trkpt>
      <trkpt lat="44.5819" lon="6.85959">
        <ele>2170.31</ele>
        <time>2015-03-27T13:45:40Z</time>
      </trkpt>
      <trkpt lat="44.58219" lon="6.85969">
        <ele>2169.83</ele>
        <time>2015-03-27T13:45:51Z</time>
      </trkpt>
      <trkpt lat="44.58243" lon="6.85983">
        <ele>2165.99</ele>
        <time>2015-03-27T13:45:59Z</time>
      </trkpt>
      <trkpt lat="44.58248" lon="6.85986">
        <ele>2165.03</ele>
        <time>2015-03-27T13:46:00Z</time>
      </trkpt>
      <trkpt lat="44.58252" lon="6.8599">
        <ele>2163.58</ele>
        <time>2015-03-27T13:46:01Z</time>
      </trkpt>
      <trkpt lat="44.58256" lon="6.85993">
        <ele>2163.58</ele>
        <time>2015-03-27T13:46:02Z</time>
      </trkpt>
      <trkpt lat="44.58259" lon="6.85997">
        <ele>2162.62</ele>
        <time>2015-03-27T13:46:03Z</time>
      </trkpt>
      <trkpt lat="44.58261" lon="6.86001">
        <ele>2162.62</ele>
        <time>2015-03-27T13:46:04Z</time>
      </trkpt>
      <trkpt lat="44.58263" lon="6.86004">
        <ele>2162.62</ele>
        <time>2015-03-27T13:46:05Z</time>
      </trkpt>
      <trkpt lat="44.58264" lon="6.86007">
        <ele>2162.62</ele>
        <time>2015-03-27T13:46:06Z</time>
      </trkpt>
      <trkpt lat="44.58263" lon="6.86009">
        <ele>2162.62</ele>
        <time>2015-03-27T13:46:20Z</time>
      </trkpt>
      <trkpt lat="44.58262" lon="6.86012">
        <ele>2162.62</ele>
        <time>2015-03-27T13:46:31Z</time>
      </trkpt>
      <trkpt lat="44.58263" lon="6.86014">
        <ele>2161.66</ele>
        <time>2015-03-27T13:46:32Z</time>
      </trkpt>
      <trkpt lat="44.58269" lon="6.86018">
        <ele>2160.7</ele>
        <time>2015-03-27T13:46:34Z</time>
      </trkpt>
      <trkpt lat="44.58273" lon="6.8602">
        <ele>2159.26</ele>
        <time>2015-03-27T13:46:35Z</time>
      </trkpt>
      <trkpt lat="44.58275" lon="6.86022">
        <ele>2159.26</ele>
        <time>2015-03-27T13:46:36Z</time>
      </trkpt>
      <trkpt lat="44.58277" lon="6.86023">
        <ele>2159.26</ele>
        <time>2015-03-27T13:46:37Z</time>
      </trkpt>
      <trkpt lat="44.58279" lon="6.86022">
        <ele>2159.26</ele>
        <time>2015-03-27T13:46:38Z</time>
      </trkpt>
      <trkpt lat="44.5828" lon="6.86022">
        <ele>2159.26</ele>
        <time>2015-03-27T13:46:39Z</time>
      </trkpt>
      <trkpt lat="44.58281" lon="6.8602">
        <ele>2159.26</ele>
        <time>2015-03-27T13:46:40Z</time>
      </trkpt>
      <trkpt lat="44.58282" lon="6.86018">
        <ele>2159.26</ele>
        <time>2015-03-27T13:46:41Z</time>
      </trkpt>
      <trkpt lat="44.58283" lon="6.86011">
        <ele>2159.26</ele>
        <time>2015-03-27T13:46:57Z</time>
      </trkpt>
      <trkpt lat="44.58282" lon="6.86014">
        <ele>2158.3</ele>
        <time>2015-03-27T13:47:24Z</time>
      </trkpt>
      <trkpt lat="44.58275" lon="6.86014">
        <ele>2158.3</ele>
        <time>2015-03-27T13:47:57Z</time>
      </trkpt>
      <trkpt lat="44.58285" lon="6.86005">
        <ele>2159.26</ele>
        <time>2015-03-27T13:48:30Z</time>
      </trkpt>
      <trkpt lat="44.58298" lon="6.86">
        <ele>2159.74</ele>
        <time>2015-03-27T13:48:44Z</time>
      </trkpt>
      <trkpt lat="44.58316" lon="6.86003">
        <ele>2160.22</ele>
        <time>2015-03-27T13:49:05Z</time>
      </trkpt>
      <trkpt lat="44.58322" lon="6.86007">
        <ele>2160.22</ele>
        <time>2015-03-27T13:49:11Z</time>
      </trkpt>
      <trkpt lat="44.58324" lon="6.86008">
        <ele>2160.22</ele>
        <time>2015-03-27T13:49:12Z</time>
      </trkpt>
      <trkpt lat="44.58325" lon="6.86009">
        <ele>2160.22</ele>
        <time>2015-03-27T13:49:13Z</time>
      </trkpt>
      <trkpt lat="44.58343" lon="6.86015">
        <ele>2157.82</ele>
        <time>2015-03-27T13:49:25Z</time>
      </trkpt>
      <trkpt lat="44.58359" lon="6.86012">
        <ele>2160.22</ele>
        <time>2015-03-27T13:49:47Z</time>
      </trkpt>
      <trkpt lat="44.58373" lon="6.86007">
        <ele>2161.66</ele>
        <time>2015-03-27T13:50:04Z</time>
      </trkpt>
      <trkpt lat="44.58386" lon="6.85996">
        <ele>2163.1</ele>
        <time>2015-03-27T13:50:26Z</time>
      </trkpt>
      <trkpt lat="44.58397" lon="6.85989">
        <ele>2164.55</ele>
        <time>2015-03-27T13:50:39Z</time>
      </trkpt>
      <trkpt lat="44.58417" lon="6.85967">
        <ele>2163.1</ele>
        <time>2015-03-27T13:50:57Z</time>
      </trkpt>
      <trkpt lat="44.58424" lon="6.85958">
        <ele>2161.18</ele>
        <time>2015-03-27T13:51:00Z</time>
      </trkpt>
      <trkpt lat="44.58451" lon="6.85943">
        <ele>2159.74</ele>
        <time>2015-03-27T13:51:13Z</time>
      </trkpt>
      <trkpt lat="44.58457" lon="6.85934">
        <ele>2158.78</ele>
        <time>2015-03-27T13:51:22Z</time>
      </trkpt>
      <trkpt lat="44.58454" lon="6.85937">
        <ele>2158.3</ele>
        <time>2015-03-27T13:51:52Z</time>
      </trkpt>
      <trkpt lat="44.58452" lon="6.85933">
        <ele>2158.3</ele>
        <time>2015-03-27T13:52:17Z</time>
      </trkpt>
      <trkpt lat="44.58453" lon="6.85931">
        <ele>2159.26</ele>
        <time>2015-03-27T13:52:38Z</time>
      </trkpt>
      <trkpt lat="44.58457" lon="6.85929">
        <ele>2159.26</ele>
        <time>2015-03-27T13:53:04Z</time>
      </trkpt>
      <trkpt lat="44.58462" lon="6.85937">
        <ele>2157.82</ele>
        <time>2015-03-27T13:53:30Z</time>
      </trkpt>
      <trkpt lat="44.58466" lon="6.85938">
        <ele>2155.89</ele>
        <time>2015-03-27T13:53:37Z</time>
      </trkpt>
      <trkpt lat="44.58469" lon="6.85939">
        <ele>2154.93</ele>
        <time>2015-03-27T13:53:38Z</time>
      </trkpt>
      <trkpt lat="44.58479" lon="6.8594">
        <ele>2151.09</ele>
        <time>2015-03-27T13:53:41Z</time>
      </trkpt>
      <trkpt lat="44.58479" lon="6.85938">
        <ele>2147.72</ele>
        <time>2015-03-27T13:53:44Z</time>
      </trkpt>
      <trkpt lat="44.58482" lon="6.85936">
        <ele>2144.84</ele>
        <time>2015-03-27T13:53:46Z</time>
      </trkpt>
      <trkpt lat="44.58485" lon="6.85936">
        <ele>2141.47</ele>
        <time>2015-03-27T13:53:48Z</time>
      </trkpt>
      <trkpt lat="44.58487" lon="6.85937">
        <ele>2137.63</ele>
        <time>2015-03-27T13:53:50Z</time>
      </trkpt>
      <trkpt lat="44.58488" lon="6.85936">
        <ele>2134.74</ele>
        <time>2015-03-27T13:53:51Z</time>
      </trkpt>
      <trkpt lat="44.58492" lon="6.85931">
        <ele>2131.86</ele>
        <time>2015-03-27T13:53:54Z</time>
      </trkpt>
      <trkpt lat="44.58495" lon="6.85928">
        <ele>2128.02</ele>
        <time>2015-03-27T13:53:56Z</time>
      </trkpt>
      <trkpt lat="44.58502" lon="6.85924">
        <ele>2126.09</ele>
        <time>2015-03-27T13:53:59Z</time>
      </trkpt>
      <trkpt lat="44.58528" lon="6.85918">
        <ele>2124.65</ele>
        <time>2015-03-27T13:54:11Z</time>
      </trkpt>
      <trkpt lat="44.58529" lon="6.85908">
        <ele>2125.13</ele>
        <time>2015-03-27T13:54:32Z</time>
      </trkpt>
      <trkpt lat="44.58535" lon="6.8591">
        <ele>2125.13</ele>
        <time>2015-03-27T13:55:01Z</time>
      </trkpt>
      <trkpt lat="44.58536" lon="6.8591">
        <ele>2124.65</ele>
        <time>2015-03-27T13:55:02Z</time>
      </trkpt>
      <trkpt lat="44.58543" lon="6.85913">
        <ele>2124.65</ele>
        <time>2015-03-27T13:55:09Z</time>
      </trkpt>
      <trkpt lat="44.58548" lon="6.85917">
        <ele>2124.65</ele>
        <time>2015-03-27T13:55:25Z</time>
      </trkpt>
      <trkpt lat="44.58554" lon="6.85927">
        <ele>2122.73</ele>
        <time>2015-03-27T13:55:38Z</time>
      </trkpt>
      <trkpt lat="44.58555" lon="6.85927">
        <ele>2122.25</ele>
        <time>2015-03-27T13:55:39Z</time>
      </trkpt>
      <trkpt lat="44.58557" lon="6.85926">
        <ele>2121.77</ele>
        <time>2015-03-27T13:55:40Z</time>
      </trkpt>
      <trkpt lat="44.58562" lon="6.85922">
        <ele>2117.92</ele>
        <time>2015-03-27T13:55:43Z</time>
      </trkpt>
      <trkpt lat="44.58565" lon="6.85918">
        <ele>2116.48</ele>
        <time>2015-03-27T13:55:45Z</time>
      </trkpt>
      <trkpt lat="44.5857" lon="6.85911">
        <ele>2113.6</ele>
        <time>2015-03-27T13:55:49Z</time>
      </trkpt>
      <trkpt lat="44.58578" lon="6.85903">
        <ele>2112.15</ele>
        <time>2015-03-27T13:56:03Z</time>
      </trkpt>
      <trkpt lat="44.58582" lon="6.85906">
        <ele>2109.75</ele>
        <time>2015-03-27T13:56:09Z</time>
      </trkpt>
      <trkpt lat="44.58586" lon="6.85907">
        <ele>2105.91</ele>
        <time>2015-03-27T13:56:12Z</time>
      </trkpt>
      <trkpt lat="44.58588" lon="6.85908">
        <ele>2105.91</ele>
        <time>2015-03-27T13:56:13Z</time>
      </trkpt>
      <trkpt lat="44.5859" lon="6.85909">
        <ele>2103.5</ele>
        <time>2015-03-27T13:56:15Z</time>
      </trkpt>
      <trkpt lat="44.58596" lon="6.85907">
        <ele>2102.06</ele>
        <time>2015-03-27T13:56:23Z</time>
      </trkpt>
      <trkpt lat="44.58597" lon="6.85906">
        <ele>2102.06</ele>
        <time>2015-03-27T13:56:24Z</time>
      </trkpt>
      <trkpt lat="44.58599" lon="6.85902">
        <ele>2098.7</ele>
        <time>2015-03-27T13:56:26Z</time>
      </trkpt>
      <trkpt lat="44.58613" lon="6.85885">
        <ele>2095.33</ele>
        <time>2015-03-27T13:56:34Z</time>
      </trkpt>
      <trkpt lat="44.58615" lon="6.85884">
        <ele>2092.45</ele>
        <time>2015-03-27T13:56:35Z</time>
      </trkpt>
      <trkpt lat="44.58618" lon="6.85883">
        <ele>2096.77</ele>
        <time>2015-03-27T13:56:36Z</time>
      </trkpt>
      <trkpt lat="44.58621" lon="6.85883">
        <ele>2093.41</ele>
        <time>2015-03-27T13:56:37Z</time>
      </trkpt>
      <trkpt lat="44.58636" lon="6.85881">
        <ele>2092.45</ele>
        <time>2015-03-27T13:56:49Z</time>
      </trkpt>
      <trkpt lat="44.58635" lon="6.85873">
        <ele>2091.97</ele>
        <time>2015-03-27T13:57:07Z</time>
      </trkpt>
      <trkpt lat="44.58637" lon="6.85872">
        <ele>2091.49</ele>
        <time>2015-03-27T13:57:09Z</time>
      </trkpt>
      <trkpt lat="44.58639" lon="6.8587">
        <ele>2091</ele>
        <time>2015-03-27T13:57:10Z</time>
      </trkpt>
      <trkpt lat="44.58641" lon="6.85868">
        <ele>2091</ele>
        <time>2015-03-27T13:57:11Z</time>
      </trkpt>
      <trkpt lat="44.5865" lon="6.8586">
        <ele>2091</ele>
        <time>2015-03-27T13:57:26Z</time>
      </trkpt>
      <trkpt lat="44.58658" lon="6.85859">
        <ele>2090.52</ele>
        <time>2015-03-27T13:57:54Z</time>
      </trkpt>
      <trkpt lat="44.58661" lon="6.8586">
        <ele>2090.52</ele>
        <time>2015-03-27T13:58:21Z</time>
      </trkpt>
      <trkpt lat="44.58662" lon="6.85858">
        <ele>2090.52</ele>
        <time>2015-03-27T13:58:22Z</time>
      </trkpt>
      <trkpt lat="44.58664" lon="6.85857">
        <ele>2089.08</ele>
        <time>2015-03-27T13:58:23Z</time>
      </trkpt>
      <trkpt lat="44.58666" lon="6.85857">
        <ele>2088.6</ele>
        <time>2015-03-27T13:58:24Z</time>
      </trkpt>
      <trkpt lat="44.58669" lon="6.85857">
        <ele>2088.6</ele>
        <time>2015-03-27T13:58:25Z</time>
      </trkpt>
      <trkpt lat="44.58679" lon="6.85859">
        <ele>2084.28</ele>
        <time>2015-03-27T13:58:28Z</time>
      </trkpt>
      <trkpt lat="44.58682" lon="6.85861">
        <ele>2083.31</ele>
        <time>2015-03-27T13:58:29Z</time>
      </trkpt>
      <trkpt lat="44.58685" lon="6.85863">
        <ele>2082.83</ele>
        <time>2015-03-27T13:58:30Z</time>
      </trkpt>
      <trkpt lat="44.58687" lon="6.85864">
        <ele>2082.83</ele>
        <time>2015-03-27T13:58:31Z</time>
      </trkpt>
      <trkpt lat="44.58693" lon="6.85868">
        <ele>2081.87</ele>
        <time>2015-03-27T13:58:37Z</time>
      </trkpt>
      <trkpt lat="44.58695" lon="6.85868">
        <ele>2081.39</ele>
        <time>2015-03-27T13:58:38Z</time>
      </trkpt>
      <trkpt lat="44.58697" lon="6.85868">
        <ele>2080.43</ele>
        <time>2015-03-27T13:58:39Z</time>
      </trkpt>
      <trkpt lat="44.58702" lon="6.85868">
        <ele>2076.59</ele>
        <time>2015-03-27T13:58:42Z</time>
      </trkpt>
      <trkpt lat="44.58704" lon="6.85868">
        <ele>2076.59</ele>
        <time>2015-03-27T13:58:43Z</time>
      </trkpt>
      <trkpt lat="44.58709" lon="6.8587">
        <ele>2077.07</ele>
        <time>2015-03-27T13:59:00Z</time>
      </trkpt>
      <trkpt lat="44.58709" lon="6.85866">
        <ele>2074.66</ele>
        <time>2015-03-27T13:59:26Z</time>
      </trkpt>
      <trkpt lat="44.58711" lon="6.85866">
        <ele>2074.66</ele>
        <time>2015-03-27T13:59:27Z</time>
      </trkpt>
      <trkpt lat="44.58713" lon="6.85866">
        <ele>2072.26</ele>
        <time>2015-03-27T13:59:28Z</time>
      </trkpt>
      <trkpt lat="44.58725" lon="6.85867">
        <ele>2067.93</ele>
        <time>2015-03-27T13:59:31Z</time>
      </trkpt>
      <trkpt lat="44.5873" lon="6.85867">
        <ele>2067.45</ele>
        <time>2015-03-27T13:59:32Z</time>
      </trkpt>
      <trkpt lat="44.58746" lon="6.85864">
        <ele>2065.05</ele>
        <time>2015-03-27T13:59:35Z</time>
      </trkpt>
      <trkpt lat="44.58761" lon="6.85861">
        <ele>2063.13</ele>
        <time>2015-03-27T13:59:38Z</time>
      </trkpt>
      <trkpt lat="44.58776" lon="6.8586">
        <ele>2061.2</ele>
        <time>2015-03-27T13:59:41Z</time>
      </trkpt>
      <trkpt lat="44.58792" lon="6.85861">
        <ele>2058.32</ele>
        <time>2015-03-27T13:59:44Z</time>
      </trkpt>
      <trkpt lat="44.58798" lon="6.85864">
        <ele>2058.32</ele>
        <time>2015-03-27T13:59:45Z</time>
      </trkpt>
      <trkpt lat="44.58803" lon="6.85866">
        <ele>2058.32</ele>
        <time>2015-03-27T13:59:46Z</time>
      </trkpt>
      <trkpt lat="44.58815" lon="6.85868">
        <ele>2057.36</ele>
        <time>2015-03-27T13:59:48Z</time>
      </trkpt>
      <trkpt lat="44.58821" lon="6.8587">
        <ele>2057.36</ele>
        <time>2015-03-27T13:59:49Z</time>
      </trkpt>
      <trkpt lat="44.58826" lon="6.85872">
        <ele>2056.4</ele>
        <time>2015-03-27T13:59:50Z</time>
      </trkpt>
      <trkpt lat="44.58831" lon="6.85872">
        <ele>2055.44</ele>
        <time>2015-03-27T13:59:51Z</time>
      </trkpt>
      <trkpt lat="44.58837" lon="6.85872">
        <ele>2055.44</ele>
        <time>2015-03-27T13:59:52Z</time>
      </trkpt>
      <trkpt lat="44.58842" lon="6.8587">
        <ele>2053.99</ele>
        <time>2015-03-27T13:59:53Z</time>
      </trkpt>
      <trkpt lat="44.58846" lon="6.85868">
        <ele>2053.99</ele>
        <time>2015-03-27T13:59:54Z</time>
      </trkpt>
      <trkpt lat="44.58873" lon="6.85861">
        <ele>2052.07</ele>
        <time>2015-03-27T13:59:59Z</time>
      </trkpt>
      <trkpt lat="44.5889" lon="6.85858">
        <ele>2050.63</ele>
        <time>2015-03-27T14:00:02Z</time>
      </trkpt>
      <trkpt lat="44.58895" lon="6.85858">
        <ele>2050.63</ele>
        <time>2015-03-27T14:00:03Z</time>
      </trkpt>
      <trkpt lat="44.58901" lon="6.8586">
        <ele>2050.15</ele>
        <time>2015-03-27T14:00:04Z</time>
      </trkpt>
      <trkpt lat="44.58907" lon="6.85861">
        <ele>2049.19</ele>
        <time>2015-03-27T14:00:05Z</time>
      </trkpt>
      <trkpt lat="44.58913" lon="6.85861">
        <ele>2049.19</ele>
        <time>2015-03-27T14:00:06Z</time>
      </trkpt>
      <trkpt lat="44.58919" lon="6.85861">
        <ele>2048.71</ele>
        <time>2015-03-27T14:00:07Z</time>
      </trkpt>
      <trkpt lat="44.58931" lon="6.8586">
        <ele>2047.75</ele>
        <time>2015-03-27T14:00:09Z</time>
      </trkpt>
      <trkpt lat="44.58943" lon="6.85859">
        <ele>2047.26</ele>
        <time>2015-03-27T14:00:11Z</time>
      </trkpt>
      <trkpt lat="44.58948" lon="6.8586">
        <ele>2045.82</ele>
        <time>2015-03-27T14:00:12Z</time>
      </trkpt>
      <trkpt lat="44.58955" lon="6.85864">
        <ele>2045.34</ele>
        <time>2015-03-27T14:00:13Z</time>
      </trkpt>
      <trkpt lat="44.58959" lon="6.85868">
        <ele>2045.34</ele>
        <time>2015-03-27T14:00:14Z</time>
      </trkpt>
      <trkpt lat="44.58963" lon="6.85871">
        <ele>2044.38</ele>
        <time>2015-03-27T14:00:15Z</time>
      </trkpt>
      <trkpt lat="44.58967" lon="6.85874">
        <ele>2043.9</ele>
        <time>2015-03-27T14:00:16Z</time>
      </trkpt>
      <trkpt lat="44.58971" lon="6.85876">
        <ele>2042.46</ele>
        <time>2015-03-27T14:00:17Z</time>
      </trkpt>
      <trkpt lat="44.58975" lon="6.85877">
        <ele>2041.5</ele>
        <time>2015-03-27T14:00:18Z</time>
      </trkpt>
      <trkpt lat="44.58981" lon="6.85878">
        <ele>2038.61</ele>
        <time>2015-03-27T14:00:19Z</time>
      </trkpt>
      <trkpt lat="44.58999" lon="6.85883">
        <ele>2036.21</ele>
        <time>2015-03-27T14:00:22Z</time>
      </trkpt>
      <trkpt lat="44.59018" lon="6.85891">
        <ele>2032.84</ele>
        <time>2015-03-27T14:00:27Z</time>
      </trkpt>
      <trkpt lat="44.59028" lon="6.85894">
        <ele>2030.44</ele>
        <time>2015-03-27T14:00:30Z</time>
      </trkpt>
      <trkpt lat="44.59034" lon="6.859">
        <ele>2028.52</ele>
        <time>2015-03-27T14:00:32Z</time>
      </trkpt>
      <trkpt lat="44.59044" lon="6.8591">
        <ele>2025.15</ele>
        <time>2015-03-27T14:00:36Z</time>
      </trkpt>
      <trkpt lat="44.5905" lon="6.85913">
        <ele>2023.71</ele>
        <time>2015-03-27T14:00:38Z</time>
      </trkpt>
      <trkpt lat="44.59072" lon="6.85914">
        <ele>2020.35</ele>
        <time>2015-03-27T14:00:42Z</time>
      </trkpt>
      <trkpt lat="44.59076" lon="6.85911">
        <ele>2019.39</ele>
        <time>2015-03-27T14:00:43Z</time>
      </trkpt>
      <trkpt lat="44.5908" lon="6.85908">
        <ele>2019.39</ele>
        <time>2015-03-27T14:00:44Z</time>
      </trkpt>
      <trkpt lat="44.59083" lon="6.85905">
        <ele>2018.43</ele>
        <time>2015-03-27T14:00:45Z</time>
      </trkpt>
      <trkpt lat="44.59086" lon="6.85901">
        <ele>2017.94</ele>
        <time>2015-03-27T14:00:46Z</time>
      </trkpt>
      <trkpt lat="44.59089" lon="6.85897">
        <ele>2017.46</ele>
        <time>2015-03-27T14:00:47Z</time>
      </trkpt>
      <trkpt lat="44.59092" lon="6.85894">
        <ele>2017.46</ele>
        <time>2015-03-27T14:00:48Z</time>
      </trkpt>
      <trkpt lat="44.59094" lon="6.85891">
        <ele>2016.5</ele>
        <time>2015-03-27T14:00:49Z</time>
      </trkpt>
      <trkpt lat="44.59097" lon="6.85888">
        <ele>2016.02</ele>
        <time>2015-03-27T14:00:50Z</time>
      </trkpt>
      <trkpt lat="44.59104" lon="6.85879">
        <ele>2016.98</ele>
        <time>2015-03-27T14:01:04Z</time>
      </trkpt>
      <trkpt lat="44.59107" lon="6.8586">
        <ele>2016.98</ele>
        <time>2015-03-27T14:01:31Z</time>
      </trkpt>
      <trkpt lat="44.59107" lon="6.85859">
        <ele>2016.5</ele>
        <time>2015-03-27T14:01:32Z</time>
      </trkpt>
      <trkpt lat="44.59107" lon="6.85857">
        <ele>2015.06</ele>
        <time>2015-03-27T14:01:33Z</time>
      </trkpt>
      <trkpt lat="44.59107" lon="6.85851">
        <ele>2014.1</ele>
        <time>2015-03-27T14:01:35Z</time>
      </trkpt>
      <trkpt lat="44.59106" lon="6.85839">
        <ele>2010.25</ele>
        <time>2015-03-27T14:01:38Z</time>
      </trkpt>
      <trkpt lat="44.59104" lon="6.85828">
        <ele>2005.93</ele>
        <time>2015-03-27T14:01:41Z</time>
      </trkpt>
      <trkpt lat="44.59102" lon="6.85816">
        <ele>2002.08</ele>
        <time>2015-03-27T14:01:44Z</time>
      </trkpt>
      <trkpt lat="44.59103" lon="6.85802">
        <ele>1998.24</ele>
        <time>2015-03-27T14:01:47Z</time>
      </trkpt>
      <trkpt lat="44.59104" lon="6.85792">
        <ele>1997.28</ele>
        <time>2015-03-27T14:01:49Z</time>
      </trkpt>
      <trkpt lat="44.59105" lon="6.85768">
        <ele>1994.87</ele>
        <time>2015-03-27T14:01:51Z</time>
      </trkpt>
      <trkpt lat="44.59112" lon="6.85721">
        <ele>1991.03</ele>
        <time>2015-03-27T14:01:56Z</time>
      </trkpt>
      <trkpt lat="44.59114" lon="6.85713">
        <ele>1991.03</ele>
        <time>2015-03-27T14:01:57Z</time>
      </trkpt>
      <trkpt lat="44.59124" lon="6.8569">
        <ele>1987.66</ele>
        <time>2015-03-27T14:02:01Z</time>
      </trkpt>
      <trkpt lat="44.5913" lon="6.85681">
        <ele>1986.7</ele>
        <time>2015-03-27T14:02:03Z</time>
      </trkpt>
      <trkpt lat="44.59146" lon="6.85658">
        <ele>1982.86</ele>
        <time>2015-03-27T14:02:08Z</time>
      </trkpt>
      <trkpt lat="44.59158" lon="6.85643">
        <ele>1979.97</ele>
        <time>2015-03-27T14:02:12Z</time>
      </trkpt>
      <trkpt lat="44.59168" lon="6.85631">
        <ele>1976.13</ele>
        <time>2015-03-27T14:02:16Z</time>
      </trkpt>
      <trkpt lat="44.59172" lon="6.85626">
        <ele>1975.17</ele>
        <time>2015-03-27T14:02:18Z</time>
      </trkpt>
      <trkpt lat="44.59173" lon="6.85627">
        <ele>1972.76</ele>
        <time>2015-03-27T14:02:20Z</time>
      </trkpt>
      <trkpt lat="44.59175" lon="6.85652">
        <ele>1969.88</ele>
        <time>2015-03-27T14:02:25Z</time>
      </trkpt>
      <trkpt lat="44.59178" lon="6.85671">
        <ele>1967.96</ele>
        <time>2015-03-27T14:02:28Z</time>
      </trkpt>
      <trkpt lat="44.59181" lon="6.85675">
        <ele>1964.59</ele>
        <time>2015-03-27T14:02:30Z</time>
      </trkpt>
      <trkpt lat="44.59182" lon="6.85676">
        <ele>1964.59</ele>
        <time>2015-03-27T14:02:31Z</time>
      </trkpt>
      <trkpt lat="44.59185" lon="6.85677">
        <ele>1960.27</ele>
        <time>2015-03-27T14:02:35Z</time>
      </trkpt>
      <trkpt lat="44.59189" lon="6.85671">
        <ele>1957.86</ele>
        <time>2015-03-27T14:02:38Z</time>
      </trkpt>
      <trkpt lat="44.59196" lon="6.85661">
        <ele>1954.98</ele>
        <time>2015-03-27T14:02:41Z</time>
      </trkpt>
      <trkpt lat="44.59204" lon="6.85649">
        <ele>1952.57</ele>
        <time>2015-03-27T14:02:44Z</time>
      </trkpt>
      <trkpt lat="44.59214" lon="6.85629">
        <ele>1949.69</ele>
        <time>2015-03-27T14:02:48Z</time>
      </trkpt>
      <trkpt lat="44.59223" lon="6.85616">
        <ele>1948.73</ele>
        <time>2015-03-27T14:02:51Z</time>
      </trkpt>
      <trkpt lat="44.59243" lon="6.85597">
        <ele>1945.36</ele>
        <time>2015-03-27T14:02:55Z</time>
      </trkpt>
      <trkpt lat="44.59247" lon="6.85594">
        <ele>1945.36</ele>
        <time>2015-03-27T14:02:56Z</time>
      </trkpt>
      <trkpt lat="44.59268" lon="6.85577">
        <ele>1942</ele>
        <time>2015-03-27T14:03:00Z</time>
      </trkpt>
      <trkpt lat="44.59274" lon="6.85573">
        <ele>1942</ele>
        <time>2015-03-27T14:03:01Z</time>
      </trkpt>
      <trkpt lat="44.59283" lon="6.85567">
        <ele>1939.6</ele>
        <time>2015-03-27T14:03:03Z</time>
      </trkpt>
      <trkpt lat="44.59293" lon="6.8556">
        <ele>1938.16</ele>
        <time>2015-03-27T14:03:05Z</time>
      </trkpt>
      <trkpt lat="44.59306" lon="6.85547">
        <ele>1936.23</ele>
        <time>2015-03-27T14:03:08Z</time>
      </trkpt>
      <trkpt lat="44.59321" lon="6.85524">
        <ele>1933.35</ele>
        <time>2015-03-27T14:03:12Z</time>
      </trkpt>
      <trkpt lat="44.59338" lon="6.85498">
        <ele>1929.98</ele>
        <time>2015-03-27T14:03:17Z</time>
      </trkpt>
      <trkpt lat="44.59347" lon="6.85483">
        <ele>1928.06</ele>
        <time>2015-03-27T14:03:20Z</time>
      </trkpt>
      <trkpt lat="44.59362" lon="6.85452">
        <ele>1925.18</ele>
        <time>2015-03-27T14:03:25Z</time>
      </trkpt>
      <trkpt lat="44.59371" lon="6.8543">
        <ele>1923.25</ele>
        <time>2015-03-27T14:03:28Z</time>
      </trkpt>
      <trkpt lat="44.59384" lon="6.85399">
        <ele>1920.37</ele>
        <time>2015-03-27T14:03:33Z</time>
      </trkpt>
      <trkpt lat="44.59389" lon="6.85387">
        <ele>1919.41</ele>
        <time>2015-03-27T14:03:35Z</time>
      </trkpt>
      <trkpt lat="44.59396" lon="6.85365">
        <ele>1917.01</ele>
        <time>2015-03-27T14:03:38Z</time>
      </trkpt>
      <trkpt lat="44.59401" lon="6.85343">
        <ele>1914.6</ele>
        <time>2015-03-27T14:03:41Z</time>
      </trkpt>
      <trkpt lat="44.59404" lon="6.85318">
        <ele>1913.64</ele>
        <time>2015-03-27T14:03:44Z</time>
      </trkpt>
      <trkpt lat="44.59405" lon="6.85291">
        <ele>1911.24</ele>
        <time>2015-03-27T14:03:47Z</time>
      </trkpt>
      <trkpt lat="44.59406" lon="6.8526">
        <ele>1907.39</ele>
        <time>2015-03-27T14:03:50Z</time>
      </trkpt>
      <trkpt lat="44.59409" lon="6.85237">
        <ele>1906.91</ele>
        <time>2015-03-27T14:03:52Z</time>
      </trkpt>
      <trkpt lat="44.59417" lon="6.85206">
        <ele>1904.03</ele>
        <time>2015-03-27T14:03:55Z</time>
      </trkpt>
      <trkpt lat="44.5942" lon="6.85197">
        <ele>1905.47</ele>
        <time>2015-03-27T14:03:56Z</time>
      </trkpt>
      <trkpt lat="44.59422" lon="6.85191">
        <ele>1905.95</ele>
        <time>2015-03-27T14:03:57Z</time>
      </trkpt>
      <trkpt lat="44.59428" lon="6.85174">
        <ele>1905.95</ele>
        <time>2015-03-27T14:04:07Z</time>
      </trkpt>
      <trkpt lat="44.59426" lon="6.8517">
        <ele>1905.95</ele>
        <time>2015-03-27T14:04:31Z</time>
      </trkpt>
      <trkpt lat="44.59422" lon="6.85174">
        <ele>1905.95</ele>
        <time>2015-03-27T14:05:04Z</time>
      </trkpt>
      <trkpt lat="44.59416" lon="6.85166">
        <ele>1905.95</ele>
        <time>2015-03-27T14:05:34Z</time>
      </trkpt>
      <trkpt lat="44.59414" lon="6.85171">
        <ele>1905.95</ele>
        <time>2015-03-27T14:06:05Z</time>
      </trkpt>
      <trkpt lat="44.59427" lon="6.85159">
        <ele>1906.43</ele>
        <time>2015-03-27T14:06:29Z</time>
      </trkpt>
      <trkpt lat="44.59427" lon="6.85144">
        <ele>1904.99</ele>
        <time>2015-03-27T14:06:50Z</time>
      </trkpt>
      <trkpt lat="44.59418" lon="6.8512">
        <ele>1903.55</ele>
        <time>2015-03-27T14:07:11Z</time>
      </trkpt>
      <trkpt lat="44.59417" lon="6.85118">
        <ele>1903.55</ele>
        <time>2015-03-27T14:07:12Z</time>
      </trkpt>
      <trkpt lat="44.59404" lon="6.85058">
        <ele>1904.03</ele>
        <time>2015-03-27T14:07:24Z</time>
      </trkpt>
      <trkpt lat="44.59399" lon="6.85044">
        <ele>1902.11</ele>
        <time>2015-03-27T14:07:26Z</time>
      </trkpt>
      <trkpt lat="44.59392" lon="6.84976">
        <ele>1901.63</ele>
        <time>2015-03-27T14:07:39Z</time>
      </trkpt>
      <trkpt lat="44.5939" lon="6.84976">
        <ele>1901.63</ele>
        <time>2015-03-27T14:07:50Z</time>
      </trkpt>
      <trkpt lat="44.59389" lon="6.84973">
        <ele>1901.63</ele>
        <time>2015-03-27T14:07:52Z</time>
      </trkpt>
      <trkpt lat="44.59389" lon="6.84971">
        <ele>1901.63</ele>
        <time>2015-03-27T14:07:53Z</time>
      </trkpt>
      <trkpt lat="44.59388" lon="6.84969">
        <ele>1901.63</ele>
        <time>2015-03-27T14:07:54Z</time>
      </trkpt>
      <trkpt lat="44.59387" lon="6.84966">
        <ele>1901.63</ele>
        <time>2015-03-27T14:07:55Z</time>
      </trkpt>
      <trkpt lat="44.59387" lon="6.84963">
        <ele>1901.63</ele>
        <time>2015-03-27T14:07:56Z</time>
      </trkpt>
      <trkpt lat="44.59382" lon="6.84939">
        <ele>1902.59</ele>
        <time>2015-03-27T14:08:12Z</time>
      </trkpt>
      <trkpt lat="44.59376" lon="6.84913">
        <ele>1903.07</ele>
        <time>2015-03-27T14:08:29Z</time>
      </trkpt>
      <trkpt lat="44.59358" lon="6.84853">
        <ele>1905.95</ele>
        <time>2015-03-27T14:08:47Z</time>
      </trkpt>
      <trkpt lat="44.59358" lon="6.84856">
        <ele>1904.99</ele>
        <time>2015-03-27T14:08:56Z</time>
      </trkpt>
      <trkpt lat="44.59357" lon="6.84856">
        <ele>1906.43</ele>
        <time>2015-03-27T14:09:04Z</time>
      </trkpt>
      <trkpt lat="44.59357" lon="6.84855">
        <ele>1903.07</ele>
        <time>2015-03-27T14:09:14Z</time>
      </trkpt>
      <trkpt lat="44.59359" lon="6.84854">
        <ele>1906.91</ele>
        <time>2015-03-27T14:09:16Z</time>
      </trkpt>
      <trkpt lat="44.5936" lon="6.84852">
        <ele>1906.91</ele>
        <time>2015-03-27T14:09:26Z</time>
      </trkpt>
      <trkpt lat="44.59362" lon="6.84843">
        <ele>1909.32</ele>
        <time>2015-03-27T14:09:36Z</time>
      </trkpt>
      <trkpt lat="44.5936" lon="6.84829">
        <ele>1911.24</ele>
        <time>2015-03-27T14:09:48Z</time>
      </trkpt>
      <trkpt lat="44.59362" lon="6.84824">
        <ele>1911.72</ele>
        <time>2015-03-27T14:09:53Z</time>
      </trkpt>
      <trkpt lat="44.59362" lon="6.84822">
        <ele>1911.72</ele>
        <time>2015-03-27T14:09:54Z</time>
      </trkpt>
      <trkpt lat="44.59362" lon="6.84821">
        <ele>1912.2</ele>
        <time>2015-03-27T14:09:55Z</time>
      </trkpt>
      <trkpt lat="44.59362" lon="6.84817">
        <ele>1912.68</ele>
        <time>2015-03-27T14:09:57Z</time>
      </trkpt>
      <trkpt lat="44.59364" lon="6.84803">
        <ele>1914.6</ele>
        <time>2015-03-27T14:10:11Z</time>
      </trkpt>
      <trkpt lat="44.59364" lon="6.84801">
        <ele>1915.08</ele>
        <time>2015-03-27T14:10:24Z</time>
      </trkpt>
      <trkpt lat="44.59363" lon="6.848">
        <ele>1915.08</ele>
        <time>2015-03-27T14:10:41Z</time>
      </trkpt>
      <trkpt lat="44.59365" lon="6.84799">
        <ele>1915.08</ele>
        <time>2015-03-27T14:10:59Z</time>
      </trkpt>
    </trkseg>
  </trk>
</gpx>